ftp/pub/palmer/observations_modified/2019/July/original_files/AR190713_BASE.txt
Download
Sample DateTime Unit Id WS Avg 2min WD Avg 2min WGS 10min WGD 10min Air Temp Rel Humidity Dew Point Pyranometer Quantum Air Pressure Snow Level Rainfall PW Current Visibility CBase 1 CBase 2 CBase 3 Vert Vis
2019/07/13 00:00:01 BASE 2.18 330 3.34 294 -4.5 100 -4.5 0 0 1013.2 NA 0.0000 9999 0 0 0 0
2019/07/13 00:01:00 BASE 2.35 338 3.34 294 -4.5 100 -4.5 0 0 1013.2 NA 0.0000 9999 0 0 0 0
2019/07/13 00:02:01 BASE 2.35 346 3.09 300 -4.6 100 -4.6 0 0 1013.2 NA 0.0000 9999 0 0 0 0
2019/07/13 00:03:01 BASE 2.29 352 3.09 300 -4.6 100 -4.6 0 0 1013.2 NA 0.0000 9999 0 0 0 0
2019/07/13 00:04:00 BASE 2.27 0 2.68 301 -4.6 100 -4.6 0 0 1013.2 NA 0.0000 9999 0 0 0 0
2019/07/13 00:05:00 BASE 2.29 12 2.62 349 -4.7 100 -4.7 0 0 1013.1 NA 0.0000 9999 0 0 0 0
2019/07/13 00:06:01 BASE 2.16 16 2.62 349 -4.7 100 -4.7 0 0 1013.0 NA 0.0000 9999 0 0 0 0
2019/07/13 00:07:00 BASE 2.00 12 2.62 349 -4.7 100 -4.7 0 0 1013.0 NA 0.0000 9999 0 0 0 0
2019/07/13 00:08:01 BASE 2.07 15 2.62 349 -4.8 100 -4.8 0 0 1013.0 NA 0.0000 9999 0 0 0 0
2019/07/13 00:09:01 BASE 2.11 20 2.62 349 -4.8 100 -4.8 0 0 1013.0 NA 0.0000 9999 0 0 0 0
2019/07/13 00:10:01 BASE 2.13 15 2.62 349 -4.8 100 -4.8 0 0 1013.0 NA 0.0000 9999 0 0 0 0
2019/07/13 00:11:01 BASE 2.21 12 2.62 349 -4.8 100 -4.8 0 0 1013.0 NA 0.0000 9999 0 0 0 0
2019/07/13 00:12:01 BASE 2.22 17 2.52 19 -4.8 100 -4.8 0 0 1013.0 NA 0.0000 9999 0 0 0 0
2019/07/13 00:13:01 BASE 2.22 28 2.52 19 -4.8 100 -4.8 0 0 1013.0 NA 0.0000 9999 0 0 0 0
2019/07/13 00:14:01 BASE 2.12 33 2.52 19 -4.8 100 -4.8 0 0 1013.0 NA 0.0000 9999 0 0 0 0
2019/07/13 00:15:01 BASE 2.01 29 2.42 26 -4.8 100 -4.8 0 0 1013.0 NA 0.0000 9999 0 0 0 0
2019/07/13 00:16:01 BASE 1.91 24 2.42 26 -4.8 100 -4.8 0 0 1012.9 NA 0.0000 9999 0 0 0 0
2019/07/13 00:17:01 BASE 1.67 24 2.42 26 -4.8 100 -4.8 0 0 1012.9 NA 0.0000 9999 0 0 0 0
2019/07/13 00:18:01 BASE 1.25 25 2.42 26 -4.8 100 -4.8 0 0 1012.9 NA 0.0000 9999 0 0 0 0
2019/07/13 00:19:01 BASE 1.10 22 2.42 26 -4.8 100 -4.8 0 0 1012.9 NA 0.0000 9999 0 0 0 0
2019/07/13 00:20:01 BASE 1.37 16 2.42 26 -4.8 100 -4.8 0 0 1012.9 NA 0.0000 9999 0 0 0 0
2019/07/13 00:21:01 BASE 1.61 11 2.42 26 -4.8 100 -4.8 0 0 1012.9 NA 0.0000 9999 0 0 0 0
2019/07/13 00:22:01 BASE 1.86 4 2.52 11 -4.8 100 -4.8 0 0 1012.9 NA 0.0000 9999 0 0 0 0
2019/07/13 00:23:01 BASE 2.14 355 2.52 350 -4.7 100 -4.7 0 0 1012.9 NA 0.0000 9999 0 0 0 0
2019/07/13 00:24:01 BASE 2.14 355 2.52 350 -4.7 100 -4.7 0 0 1012.9 NA 0.0000 9999 0 0 0 0
2019/07/13 00:25:01 BASE 1.98 359 2.52 350 -4.7 100 -4.7 0 0 1012.9 NA 0.0000 9999 0 0 0 0
2019/07/13 00:26:01 BASE 1.80 1 2.52 350 -4.7 100 -4.7 0 0 1012.9 NA 0.0000 9999 0 0 0 0
2019/07/13 00:27:01 BASE 1.61 357 2.52 350 -4.7 100 -4.7 0 0 1012.9 NA 0.0000 9999 0 0 0 0
2019/07/13 00:28:01 BASE 1.50 357 2.52 350 -4.7 100 -4.7 0 0 1012.9 NA 0.0000 9999 0 0 0 0
2019/07/13 00:29:01 BASE 1.63 1 2.52 350 -4.7 100 -4.7 0 0 1012.9 NA 0.0000 9999 0 0 0 0
2019/07/13 00:30:01 BASE 1.76 357 2.52 350 -4.7 100 -4.7 0 0 1012.9 NA 0.0000 9999 0 0 0 0
2019/07/13 00:31:01 BASE 1.79 2 2.52 350 -4.7 100 -4.7 0 0 1013.0 NA 0.0000 9999 0 0 0 0
2019/07/13 00:32:01 BASE 1.75 7 2.52 350 -4.8 100 -4.8 0 0 1013.0 NA 0.0000 9999 0 0 0 0
2019/07/13 00:33:01 BASE 1.65 8 2.21 343 -4.8 100 -4.8 0 0 1013.0 NA 0.0000 9999 0 0 0 0
2019/07/13 00:34:01 BASE 1.71 12 2.21 343 -4.8 100 -4.8 0 0 1013.0 NA 0.0000 9999 0 0 0 0
2019/07/13 00:35:01 BASE 1.88 14 2.11 1 -4.9 100 -4.9 0 0 1013.0 NA 0.0000 9999 0 0 0 0
2019/07/13 00:36:01 BASE 1.98 16 2.16 20 -4.9 100 -4.9 0 0 1013.0 NA 0.0000 9999 0 0 0 0
2019/07/13 00:37:01 BASE 2.04 17 2.26 15 -4.9 100 -4.9 0 0 1013.0 NA 0.0000 9999 0 0 0 0
2019/07/13 00:38:01 BASE 2.02 18 2.26 15 -5.0 100 -5.0 0 0 1013.0 NA 0.0000 9999 0 0 0 0
2019/07/13 00:39:01 BASE 1.86 20 2.26 15 -5.0 100 -5.0 0 0 1013.0 NA 0.0000 9999 0 0 0 0
2019/07/13 00:40:01 BASE 1.72 28 2.26 15 -5.0 100 -5.0 0 0 1013.0 NA 0.0000 9999 0 0 0 0
2019/07/13 00:41:01 BASE 1.78 37 2.26 15 -5.0 100 -5.0 0 0 1013.0 NA 0.0000 9999 0 0 0 0
2019/07/13 00:42:01 BASE 1.90 38 2.31 31 -5.1 100 -5.1 0 0 1013.0 NA 0.0000 9999 0 0 0 0
2019/07/13 00:43:01 BASE 2.06 35 2.52 43 -5.1 100 -5.1 0 0 1013.0 NA 0.0000 9999 0 0 0 0
2019/07/13 00:44:01 BASE 2.02 24 2.52 43 -5.1 100 -5.1 0 0 1013.0 NA 0.0000 9999 0 0 0 0
2019/07/13 00:45:01 BASE 1.74 16 2.52 43 -5.0 100 -5.0 0 0 1013.0 NA 0.0000 9999 0 0 0 0
2019/07/13 00:46:01 BASE 1.71 12 2.52 43 -5.0 100 -5.0 0 0 1013.0 NA 0.0000 9999 0 0 0 0
2019/07/13 00:47:01 BASE 1.73 10 2.52 43 -5.0 100 -5.0 0 0 1012.9 NA 0.0000 9999 0 0 0 0
2019/07/13 00:48:01 BASE 1.72 12 2.52 43 -5.0 100 -5.0 0 0 1012.9 NA 0.0000 9999 0 0 0 0
2019/07/13 00:49:01 BASE 1.80 13 2.52 43 -5.0 100 -5.0 0 0 1012.9 NA 0.0000 9999 0 0 0 0
2019/07/13 00:50:01 BASE 1.79 13 2.52 43 -5.0 100 -5.0 0 0 1012.9 NA 0.0000 9999 0 0 0 0
2019/07/13 00:51:01 BASE 1.86 14 2.52 43 -5.0 100 -5.0 0 0 1012.9 NA 0.0000 9999 0 0 0 0
2019/07/13 00:52:01 BASE 1.93 17 2.52 43 -5.0 100 -5.0 0 0 1012.9 NA 0.0000 9999 0 0 0 0
2019/07/13 00:53:01 BASE 1.89 22 2.21 8 -5.0 100 -5.0 0 0 1012.9 NA 0.0000 9999 0 0 0 0
2019/07/13 00:54:01 BASE 1.88 27 2.21 8 -5.0 100 -5.0 0 0 1012.9 NA 0.0000 9999 0 0 0 0
2019/07/13 00:55:00 BASE 1.91 31 2.21 8 -5.0 100 -5.0 0 0 1012.9 NA 0.0000 9999 0 0 0 0
2019/07/13 00:56:00 BASE 2.06 30 2.42 25 -5.1 100 -5.1 0 0 1012.8 NA 0.0000 9999 0 0 0 0
2019/07/13 00:57:00 BASE 2.06 29 2.42 25 -5.1 100 -5.1 0 0 1012.8 NA 0.0000 9999 0 0 0 0
2019/07/13 00:58:01 BASE 1.96 30 2.42 25 -5.1 100 -5.1 0 0 1012.8 NA 0.0000 9999 0 0 0 0
2019/07/13 00:59:00 BASE 1.90 33 2.42 25 -5.1 100 -5.1 0 0 1012.8 NA 0.0000 9999 0 0 0 0
2019/07/13 01:00:00 BASE 1.99 32 2.42 25 -5.1 100 -5.1 0 0 1012.8 NA 0.0000 9999 0 0 0 0
2019/07/13 01:01:00 BASE 2.22 31 2.52 41 -5.1 100 -5.1 0 0 1012.8 NA 0.0000 9999 0 0 0 0
2019/07/13 01:02:00 BASE 2.29 34 2.57 42 -5.1 100 -5.1 0 0 1012.8 NA 0.0000 9999 0 0 0 0
2019/07/13 01:03:00 BASE 2.30 33 2.68 37 -5.1 100 -5.1 0 0 1012.8 NA 0.0000 9999 0 0 0 0
2019/07/13 01:04:00 BASE 2.25 31 2.68 37 -5.1 100 -5.1 0 0 1012.8 NA 0.0000 9999 0 0 0 0
2019/07/13 01:05:00 BASE 2.23 31 2.68 37 -5.1 100 -5.1 0 0 1012.8 NA 0.0000 9999 0 0 0 0
2019/07/13 01:06:00 BASE 2.32 30 2.68 37 -5.0 100 -5.0 0 0 1012.8 NA 0.0000 9999 0 0 0 0
2019/07/13 01:07:00 BASE 2.41 29 2.68 37 -5.0 100 -5.0 0 0 1012.8 NA 0.0000 9999 0 0 0 0
2019/07/13 01:08:00 BASE 2.44 27 2.68 37 -5.0 100 -5.0 0 0 1012.8 NA 0.0000 9999 0 0 0 0
2019/07/13 01:09:00 BASE 2.36 21 2.68 37 -4.9 100 -4.9 0 0 1012.8 NA 0.0000 9999 0 0 0 0
2019/07/13 01:10:00 BASE 2.26 16 2.68 37 -4.9 100 -4.9 0 0 1012.8 NA 0.0000 9999 0 0 0 0
2019/07/13 01:11:00 BASE 2.40 16 2.83 12 -4.9 100 -4.9 0 0 1012.8 NA 0.0000 9999 0 0 0 0
2019/07/13 01:12:00 BASE 2.56 14 2.88 10 -5.0 100 -5.0 0 0 1012.8 NA 0.0000 9999 0 0 0 0
2019/07/13 01:13:00 BASE 2.47 8 2.88 10 -5.0 100 -5.0 0 0 1012.8 NA 0.0000 9999 0 0 0 0
2019/07/13 01:14:00 BASE 2.50 359 2.93 351 -5.0 100 -5.0 0 0 1012.8 NA 0.0000 9999 0 0 0 0
2019/07/13 01:15:00 BASE 2.54 355 2.93 351 -5.0 100 -5.0 0 0 1012.8 NA 0.0000 9999 0 0 0 0
2019/07/13 01:16:00 BASE 2.68 355 3.19 360 -5.1 100 -5.1 0 0 1012.8 NA 0.0000 9999 0 0 0 0
2019/07/13 01:17:00 BASE 2.93 354 3.24 352 -5.1 100 -5.1 0 0 1012.8 NA 0.0000 9999 0 0 0 0
2019/07/13 01:18:01 BASE 2.95 354 3.24 352 -5.1 100 -5.1 0 0 1012.8 NA 0.0000 9999 0 0 0 0
2019/07/13 01:19:00 BASE 2.83 353 3.24 352 -5.0 100 -5.0 0 0 1012.8 NA 0.0000 9999 0 0 0 0
2019/07/13 01:20:00 BASE 2.65 350 3.24 352 -4.9 100 -4.9 0 0 1012.8 NA 0.0000 9999 0 0 0 0
2019/07/13 01:21:00 BASE 2.45 351 3.24 352 -4.9 100 -4.9 0 0 1012.8 NA 0.0000 9999 0 0 0 0
2019/07/13 01:22:00 BASE 2.31 351 3.24 352 -4.9 100 -4.9 0 0 1012.8 NA 0.0000 9999 0 0 0 0
2019/07/13 01:23:00 BASE 2.29 350 3.24 352 -4.9 100 -4.9 0 0 1012.8 NA 0.0000 9999 0 0 0 0
2019/07/13 01:24:00 BASE 2.33 348 3.24 352 -4.9 100 -4.9 0 0 1012.8 NA 0.0000 9999 0 0 0 0
2019/07/13 01:25:00 BASE 2.61 346 3.24 352 -5.0 100 -5.0 0 0 1012.8 NA 0.0000 9999 0 0 0 0
2019/07/13 01:26:01 BASE 2.97 348 3.24 349 -5.0 100 -5.0 0 0 1012.8 NA 0.0000 9999 0 0 0 0
2019/07/13 01:27:00 BASE 3.09 349 3.24 349 -5.0 100 -5.0 0 0 1012.8 NA 0.0000 9999 0 0 0 0
2019/07/13 01:28:00 BASE 3.07 354 3.24 349 -4.9 100 -4.9 0 0 1012.8 NA 0.0000 9999 0 0 0 0
2019/07/13 01:29:00 BASE 3.07 360 3.34 354 -5.0 100 -5.0 0 0 1012.8 NA 0.0000 9999 0 0 0 0
2019/07/13 01:30:00 BASE 3.12 1 3.34 354 -5.0 100 -5.0 0 0 1012.8 NA 0.0000 9999 0 0 0 0
2019/07/13 01:31:00 BASE 3.17 3 3.34 354 -5.0 100 -5.0 0 0 1012.8 NA 0.0000 9999 0 0 0 0
2019/07/13 01:32:01 BASE 3.15 6 3.34 354 -5.0 100 -5.0 0 0 1012.8 NA 0.0000 9999 0 0 0 0
2019/07/13 01:33:00 BASE 3.06 10 3.34 354 -5.0 100 -5.0 0 0 1012.8 NA 0.0000 9999 0 0 0 0
2019/07/13 01:34:00 BASE 2.93 12 3.34 354 -5.0 100 -5.0 0 0 1012.8 NA 0.0000 9999 0 0 0 0
2019/07/13 01:35:00 BASE 2.88 12 3.34 354 -5.0 100 -5.0 0 0 1012.8 NA 0.0000 9999 0 0 0 0
2019/07/13 01:36:00 BASE 2.79 14 3.34 354 -4.9 100 -4.9 0 0 1012.8 NA 0.0000 9999 0 0 0 0
2019/07/13 01:37:00 BASE 2.64 16 3.34 354 -4.8 100 -4.8 0 0 1012.8 NA 0.0000 9999 0 0 0 0
2019/07/13 01:38:00 BASE 2.52 13 3.34 354 -4.8 100 -4.8 0 0 1012.8 NA 0.0000 9999 0 0 0 0
2019/07/13 01:39:00 BASE 2.53 9 3.29 2 -4.8 100 -4.8 0 0 1012.8 NA 0.0000 9999 0 0 0 0
2019/07/13 01:40:00 BASE 2.82 4 3.29 2 -4.7 100 -4.7 0 0 1012.8 NA 0.0000 9999 0 0 0 0
2019/07/13 01:41:00 BASE 3.02 4 3.24 360 -4.7 100 -4.7 0 0 1012.7 NA 0.0000 9999 0 0 0 0
2019/07/13 01:42:00 BASE 3.06 357 3.19 353 -4.7 100 -4.7 0 0 1012.7 NA 0.0000 9999 0 0 0 0
2019/07/13 01:43:00 BASE 2.97 356 3.19 353 -4.7 100 -4.7 0 0 1012.7 NA 0.0000 9999 0 0 0 0
2019/07/13 01:44:00 BASE 2.84 360 3.19 353 -4.7 100 -4.7 0 0 1012.7 NA 0.0000 9999 0 0 0 0
2019/07/13 01:45:00 BASE 2.78 359 3.19 353 -4.7 100 -4.7 0 0 1012.7 NA 0.0000 9999 0 0 0 0
2019/07/13 01:46:00 BASE 2.93 354 3.34 346 -4.7 100 -4.7 0 0 1012.7 NA 0.0000 9999 0 0 0 0
2019/07/13 01:47:00 BASE 3.13 350 3.34 346 -4.7 100 -4.7 0 0 1012.7 NA 0.0000 9999 0 0 0 0
2019/07/13 01:48:00 BASE 3.21 351 3.40 352 -4.6 100 -4.6 0 0 1012.6 NA 0.0000 9999 0 0 0 0
2019/07/13 01:49:00 BASE 3.17 356 3.40 354 -4.6 100 -4.6 0 0 1012.6 NA 0.0000 9999 0 0 0 0
2019/07/13 01:50:00 BASE 3.04 1 3.40 354 -4.6 100 -4.6 0 0 1012.6 NA 0.0000 9999 0 0 0 0
2019/07/13 01:51:00 BASE 2.90 4 3.40 354 -4.7 100 -4.7 0 0 1012.6 NA 0.0000 9999 0 0 0 0
2019/07/13 01:52:00 BASE 2.79 9 3.40 354 -4.7 100 -4.7 0 0 1012.6 NA 0.0000 9999 0 0 0 0
2019/07/13 01:53:00 BASE 2.77 13 3.40 354 -4.8 100 -4.8 0 0 1012.6 NA 0.0000 9999 0 0 0 0
2019/07/13 01:54:00 BASE 2.79 12 3.40 354 -4.8 100 -4.8 0 0 1012.6 NA 0.0000 9999 0 0 0 0
2019/07/13 01:55:00 BASE 2.80 9 3.40 354 -4.9 100 -4.9 0 0 1012.6 NA 0.0000 9999 0 0 0 0
2019/07/13 01:56:00 BASE 2.83 7 3.40 354 -4.9 100 -4.9 0 0 1012.6 NA 0.0000 9999 0 0 0 0
2019/07/13 01:57:00 BASE 2.74 12 3.40 354 -4.9 100 -4.9 0 0 1012.6 NA 0.0000 9999 0 0 0 0
2019/07/13 01:58:00 BASE 2.52 23 3.40 354 -4.8 100 -4.8 0 0 1012.5 NA 0.0000 9999 0 0 0 0
2019/07/13 01:59:00 BASE 2.41 28 3.34 1 -4.8 100 -4.8 0 0 1012.5 NA 0.0000 9999 0 0 0 0
2019/07/13 02:00:00 BASE 2.45 28 3.34 1 -4.8 100 -4.8 0 0 1012.5 NA 0.0000 9999 0 0 0 0
2019/07/13 02:01:00 BASE 2.47 23 3.34 1 -4.8 100 -4.8 0 0 1012.5 NA 0.0000 9999 0 0 0 0
2019/07/13 02:02:00 BASE 2.39 17 3.34 1 -4.7 100 -4.7 0 0 1012.6 NA 0.0000 9999 0 0 0 0
2019/07/13 02:03:00 BASE 2.34 19 3.34 1 -4.7 100 -4.7 0 0 1012.6 NA 0.0000 9999 0 0 0 0
2019/07/13 02:04:00 BASE 2.38 25 3.34 1 -4.7 100 -4.7 0 0 1012.6 NA 0.0000 9999 0 0 0 0
2019/07/13 02:05:00 BASE 2.41 24 3.34 1 -4.7 100 -4.7 0 0 1012.6 NA 0.0000 9999 0 0 0 0
2019/07/13 02:06:00 BASE 2.41 22 3.09 21 -4.7 100 -4.7 0 0 1012.6 NA 0.0000 9999 0 0 0 0
2019/07/13 02:07:00 BASE 2.31 22 2.78 26 -4.7 100 -4.7 0 0 1012.6 NA 0.0000 9999 0 0 0 0
2019/07/13 02:08:00 BASE 2.05 19 2.78 26 -4.7 100 -4.7 0 0 1012.6 NA 0.0000 9999 0 0 0 0
2019/07/13 02:09:00 BASE 2.06 6 2.78 26 -4.6 100 -4.6 0 0 1012.6 NA 0.0000 9999 0 0 0 0
2019/07/13 02:10:00 BASE 2.13 354 2.78 26 -4.6 100 -4.6 0 0 1012.6 NA 0.0000 9999 0 0 0 0
2019/07/13 02:11:00 BASE 2.30 343 2.88 334 -4.6 100 -4.6 0 0 1012.6 NA 0.0000 9999 0 0 0 0
2019/07/13 02:12:00 BASE 2.40 334 2.88 334 -4.6 100 -4.6 0 0 1012.6 NA 0.0000 9999 0 0 0 0
2019/07/13 02:13:01 BASE 2.22 332 2.88 334 -4.5 100 -4.5 0 0 1012.6 NA 0.0000 9999 0 0 0 0
2019/07/13 02:14:00 BASE 2.27 330 2.88 334 -4.5 100 -4.5 0 0 1012.6 NA 0.0000 9999 0 0 0 0
2019/07/13 02:15:00 BASE 2.29 329 2.88 334 -4.5 100 -4.5 0 0 1012.6 NA 0.0000 9999 0 0 0 0
2019/07/13 02:16:00 BASE 2.23 326 2.88 334 -4.5 100 -4.5 0 0 1012.6 NA 0.0000 9999 0 0 0 0
2019/07/13 02:17:00 BASE 2.12 327 2.88 334 -4.5 100 -4.5 0 0 1012.6 NA 0.0000 9999 0 0 0 0
2019/07/13 02:18:01 BASE 2.00 330 2.88 334 -4.5 100 -4.5 0 0 1012.6 NA 0.0000 9999 0 0 0 0
2019/07/13 02:19:00 BASE 1.83 330 2.88 334 -4.5 100 -4.5 0 0 1012.6 NA 0.0000 9999 0 0 0 0
2019/07/13 02:20:00 BASE 1.57 328 2.88 334 -4.4 100 -4.4 0 0 1012.6 NA 0.0000 9999 0 0 0 0
2019/07/13 02:21:00 BASE 1.38 331 2.78 322 -4.5 100 -4.5 0 0 1012.6 NA 0.0000 9999 0 0 0 0
2019/07/13 02:22:00 BASE 1.36 338 2.78 322 -4.5 100 -4.5 0 0 1012.6 NA 0.0000 9999 0 0 0 0
2019/07/13 02:23:00 BASE 1.45 338 2.73 327 -4.5 100 -4.5 0 0 1012.6 NA 0.0000 9999 0 0 0 0
2019/07/13 02:24:00 BASE 1.53 334 2.68 328 -4.5 100 -4.5 0 0 1012.6 NA 0.0000 9999 0 0 0 0
2019/07/13 02:25:00 BASE 1.62 330 2.47 319 -4.5 100 -4.5 0 0 1012.6 NA 0.0000 9999 0 0 0 0
2019/07/13 02:26:00 BASE 1.33 330 2.42 326 -4.5 100 -4.5 0 0 1012.6 NA 0.0000 9999 0 0 0 0
2019/07/13 02:27:00 BASE 1.34 340 2.21 321 -4.5 100 -4.5 0 0 1012.6 NA 0.0000 9999 0 0 0 0
2019/07/13 02:28:00 BASE 1.82 349 2.16 350 -4.5 100 -4.5 0 0 1012.6 NA 0.0000 9999 0 0 0 0
2019/07/13 02:29:00 BASE 1.99 349 2.26 352 -4.5 100 -4.5 0 0 1012.6 NA 0.0000 9999 0 0 0 0
2019/07/13 02:30:00 BASE 2.05 350 2.37 350 -4.5 100 -4.5 0 0 1012.6 NA 0.0000 9999 0 0 0 0
2019/07/13 02:31:00 BASE 2.24 348 2.52 355 -4.6 100 -4.6 0 0 1012.6 NA 0.0000 9999 0 0 0 0
2019/07/13 02:32:00 BASE 2.36 345 2.73 342 -4.6 100 -4.6 0 0 1012.6 NA 0.0000 9999 0 0 0 0
2019/07/13 02:33:00 BASE 2.36 346 2.73 342 -4.6 100 -4.6 0 0 1012.6 NA 0.0000 9999 0 0 0 0
2019/07/13 02:34:01 BASE 2.28 350 2.73 342 -4.6 100 -4.6 0 0 1012.6 NA 0.0000 9999 0 0 0 0
2019/07/13 02:35:00 BASE 2.17 352 2.73 342 -4.6 100 -4.6 0 0 1012.6 NA 0.0000 9999 0 0 0 0
2019/07/13 02:36:00 BASE 2.24 347 2.73 342 -4.6 100 -4.6 0 0 1012.6 NA 0.0000 9999 0 0 0 0
2019/07/13 02:37:00 BASE 2.16 352 2.73 342 -4.6 100 -4.6 0 0 1012.5 NA 0.0000 9999 0 0 0 0
2019/07/13 02:38:00 BASE 2.05 357 2.73 342 -4.7 100 -4.7 0 0 1012.5 NA 0.0000 9999 0 0 0 0
2019/07/13 02:39:00 BASE 2.12 357 2.73 342 -4.7 100 -4.7 0 0 1012.6 NA 0.0000 9999 0 0 0 0
2019/07/13 02:40:00 BASE 2.10 7 2.73 342 -4.7 100 -4.7 0 0 1012.6 NA 0.0000 9999 0 0 0 0
2019/07/13 02:41:00 BASE 2.08 18 2.73 342 -4.7 100 -4.7 0 0 1012.6 NA 0.0000 9999 0 0 0 0
2019/07/13 02:42:00 BASE 2.15 21 2.68 347 -4.7 100 -4.7 0 0 1012.6 NA 0.0000 9999 0 0 0 0
2019/07/13 02:43:00 BASE 2.30 18 2.68 347 -4.7 100 -4.7 0 0 1012.6 NA 0.0000 9999 0 0 0 0
2019/07/13 02:44:00 BASE 2.27 16 2.68 347 -4.7 100 -4.7 0 0 1012.6 NA 0.0000 9999 0 0 0 0
2019/07/13 02:45:00 BASE 2.29 24 2.68 347 -4.7 100 -4.7 0 0 1012.6 NA 0.0000 9999 0 0 0 0
2019/07/13 02:46:01 BASE 2.59 39 2.98 44 -4.8 100 -4.8 0 0 1012.6 NA 0.0000 9999 0 0 0 0
2019/07/13 02:47:00 BASE 2.39 43 2.98 44 -4.8 100 -4.8 0 0 1012.6 NA 0.0000 9999 0 0 0 0
2019/07/13 02:48:00 BASE 2.11 38 2.98 44 -4.9 100 -4.9 0 0 1012.6 NA 0.0000 9999 0 0 0 0
2019/07/13 02:49:00 BASE 2.14 35 2.98 44 -5.0 100 -5.0 0 0 1012.6 NA 0.0000 9999 0 0 0 0
2019/07/13 02:50:00 BASE 2.18 29 2.98 44 -5.0 100 -5.0 0 0 1012.5 NA 0.0000 9999 0 0 0 0
2019/07/13 02:51:00 BASE 2.26 26 2.98 44 -5.0 100 -5.0 0 0 1012.5 NA 0.0000 9999 0 0 0 0
2019/07/13 02:52:00 BASE 2.23 22 2.98 44 -5.0 100 -5.0 0 0 1012.5 NA 0.0000 9999 0 0 0 0
2019/07/13 02:53:00 BASE 2.10 17 2.98 44 -5.0 100 -5.0 0 0 1012.5 NA 0.0000 9999 0 0 0 0
2019/07/13 02:54:00 BASE 1.88 16 2.98 44 -5.0 100 -5.0 0 0 1012.5 NA 0.0000 9999 0 0 0 0
2019/07/13 02:55:00 BASE 1.75 24 2.98 44 -5.0 100 -5.0 0 0 1012.5 NA 0.0000 9999 0 0 0 0
2019/07/13 02:56:01 BASE 1.74 36 2.78 48 -5.0 100 -5.0 0 0 1012.5 NA 0.0000 9999 0 0 0 0
2019/07/13 02:57:01 BASE 1.75 38 2.42 24 -5.0 100 -5.0 0 0 1012.5 NA 0.0000 9999 0 0 0 0
2019/07/13 02:58:00 BASE 1.77 32 2.42 24 -5.0 100 -5.0 0 0 1012.5 NA 0.0000 9999 0 0 0 0
2019/07/13 02:59:00 BASE 1.79 21 2.42 24 -4.9 100 -4.9 0 0 1012.5 NA 0.0000 9999 0 0 0 0
2019/07/13 03:00:00 BASE 1.85 14 2.37 21 -4.9 100 -4.9 0 0 1012.5 NA 0.0000 9999 0 0 0 0
2019/07/13 03:01:00 BASE 1.99 11 2.47 351 -4.8 100 -4.8 0 0 1012.5 NA 0.0000 9999 0 0 0 0
2019/07/13 03:02:00 BASE 2.13 7 2.47 351 -4.8 100 -4.8 0 0 1012.5 NA 0.0000 9999 0 0 0 0
2019/07/13 03:03:00 BASE 2.30 4 2.73 1 -4.8 100 -4.8 0 0 1012.5 NA 0.0000 9999 0 0 0 0
2019/07/13 03:04:00 BASE 2.43 0 2.78 351 -4.8 100 -4.8 0 0 1012.6 NA 0.0000 9999 0 0 0 0
2019/07/13 03:05:01 BASE 2.51 360 2.78 351 -4.8 100 -4.8 0 0 1012.6 NA 0.0000 9999 0 0 0 0
2019/07/13 03:06:00 BASE 2.58 5 2.78 351 -4.9 100 -4.9 0 0 1012.6 NA 0.0000 9999 0 0 0 0
2019/07/13 03:07:00 BASE 2.56 13 2.78 351 -4.9 100 -4.9 0 0 1012.6 NA 0.0000 9999 0 0 0 0
2019/07/13 03:08:00 BASE 2.60 17 2.98 6 -5.0 100 -5.0 0 0 1012.6 NA 0.0000 9999 0 0 0 0
2019/07/13 03:09:00 BASE 2.72 24 2.98 6 -5.1 100 -5.1 0 0 1012.6 NA 0.0000 9999 0 0 0 0
2019/07/13 03:10:01 BASE 2.72 28 2.98 6 -5.2 100 -5.2 0 0 1012.6 NA 0.0000 9999 0 0 0 0
2019/07/13 03:11:00 BASE 2.52 22 2.98 6 -5.2 100 -5.2 0 0 1012.6 NA 0.0000 9999 0 0 0 0
2019/07/13 03:12:00 BASE 2.39 20 2.98 6 -5.2 100 -5.2 0 0 1012.5 NA 0.0000 9999 0 0 0 0
2019/07/13 03:13:00 BASE 2.41 23 2.98 6 -5.3 100 -5.3 0 0 1012.5 NA 0.0000 9999 0 0 0 0
2019/07/13 03:14:00 BASE 2.25 23 2.98 6 -5.3 100 -5.3 0 0 1012.5 NA 0.0000 9999 0 0 0 0
2019/07/13 03:15:00 BASE 2.24 23 2.98 6 -5.3 100 -5.3 0 0 1012.5 NA 0.0000 9999 0 0 0 0
2019/07/13 03:16:00 BASE 2.46 18 2.98 6 -5.3 100 -5.3 0 0 1012.5 NA 0.0000 9999 0 0 0 0
2019/07/13 03:17:00 BASE 2.54 10 2.98 6 -5.3 100 -5.3 0 0 1012.5 NA 0.0000 9999 0 0 0 0
2019/07/13 03:18:00 BASE 2.55 12 2.93 29 -5.3 100 -5.3 0 0 1012.5 NA 0.0000 9999 0 0 0 0
2019/07/13 03:19:00 BASE 2.59 18 2.88 9 -5.3 100 -5.3 0 0 1012.5 NA 0.0000 9999 0 0 0 0
2019/07/13 03:20:00 BASE 2.59 23 2.88 26 -5.3 100 -5.3 0 0 1012.5 NA 0.0000 9999 0 0 0 0
2019/07/13 03:21:00 BASE 2.51 29 2.88 26 -5.3 100 -5.3 0 0 1012.5 NA 0.0000 9999 0 0 0 0
2019/07/13 03:22:00 BASE 2.42 33 2.88 26 -5.3 100 -5.3 0 0 1012.5 NA 0.0000 9999 0 0 0 0
2019/07/13 03:23:00 BASE 2.37 34 2.88 26 -5.3 100 -5.3 0 0 1012.5 NA 0.0000 9999 0 0 0 0
2019/07/13 03:24:00 BASE 2.25 35 2.88 26 -5.3 100 -5.3 0 0 1012.5 NA 0.0000 9999 0 0 0 0
2019/07/13 03:25:00 BASE 2.20 35 2.88 26 -5.4 100 -5.4 0 0 1012.5 NA 0.0000 9999 0 0 0 0
2019/07/13 03:26:00 BASE 2.24 36 2.88 26 -5.4 100 -5.4 0 0 1012.5 NA 0.0000 9999 0 0 0 0
2019/07/13 03:27:00 BASE 2.20 39 2.88 26 -5.4 100 -5.4 0 0 1012.5 NA 0.0000 9999 0 0 0 0
2019/07/13 03:28:00 BASE 2.18 42 2.88 26 -5.4 100 -5.4 0 0 1012.5 NA 0.0000 9999 0 0 0 0
2019/07/13 03:29:00 BASE 2.24 40 2.88 26 -5.4 100 -5.4 0 0 1012.5 NA 0.0000 9999 0 0 0 0
2019/07/13 03:30:00 BASE 2.28 33 2.83 23 -5.4 100 -5.4 0 0 1012.5 NA 0.0000 9999 0 0 0 0
2019/07/13 03:31:00 BASE 2.30 28 2.62 17 -5.4 100 -5.4 0 0 1012.5 NA 0.0000 9999 0 0 0 0
2019/07/13 03:32:00 BASE 2.25 23 2.62 17 -5.3 100 -5.3 0 0 1012.5 NA 0.0000 9999 0 0 0 0
2019/07/13 03:33:00 BASE 2.22 19 2.62 17 -5.3 100 -5.3 0 0 1012.4 NA 0.0000 9999 0 0 0 0
2019/07/13 03:34:00 BASE 2.20 19 2.62 17 -5.3 100 -5.3 0 0 1012.3 NA 0.0000 9999 0 0 0 0
2019/07/13 03:35:00 BASE 2.13 16 2.62 17 -5.3 100 -5.3 0 0 1012.3 NA 0.0000 9999 0 0 0 0
2019/07/13 03:36:00 BASE 2.00 15 2.62 17 -5.2 100 -5.2 0 0 1012.3 NA 0.0000 9999 0 0 0 0
2019/07/13 03:37:00 BASE 1.91 16 2.62 17 -5.2 100 -5.2 0 0 1012.3 NA 0.0000 9999 0 0 0 0
2019/07/13 03:38:00 BASE 1.93 17 2.62 17 -5.2 100 -5.2 0 0 1012.3 NA 0.0000 9999 0 0 0 0
2019/07/13 03:39:00 BASE 1.95 16 2.62 17 -5.2 100 -5.2 0 0 1012.3 NA 0.0000 9999 0 0 0 0
2019/07/13 03:40:00 BASE 1.97 13 2.57 20 -5.2 100 -5.2 0 0 1012.3 NA 0.0000 9999 0 0 0 0
2019/07/13 03:41:00 BASE 1.85 15 2.57 20 -5.2 100 -5.2 0 0 1012.3 NA 0.0000 9999 0 0 0 0
2019/07/13 03:42:00 BASE 1.80 21 2.52 9 -5.2 100 -5.2 0 0 1012.3 NA 0.0000 9999 0 0 0 0
2019/07/13 03:43:00 BASE 1.92 24 2.37 15 -5.2 100 -5.2 0 0 1012.3 NA 0.0000 9999 0 0 0 0
2019/07/13 03:44:00 BASE 1.98 25 2.21 16 -5.2 100 -5.2 0 0 1012.3 NA 0.0000 9999 0 0 0 0
2019/07/13 03:45:00 BASE 1.94 26 2.21 16 -5.2 100 -5.2 0 0 1012.3 NA 0.0000 9999 0 0 0 0
2019/07/13 03:46:00 BASE 1.91 28 2.21 16 -5.2 100 -5.2 0 0 1012.3 NA 0.0000 9999 0 0 0 0
2019/07/13 03:47:00 BASE 2.07 27 2.47 25 -5.2 100 -5.2 0 0 1012.3 NA 0.0000 9999 0 0 0 0
2019/07/13 03:48:01 BASE 2.29 23 2.68 24 -5.2 100 -5.2 0 0 1012.3 NA 0.0000 9999 0 0 0 0
2019/07/13 03:49:00 BASE 2.29 18 2.68 24 -5.2 100 -5.2 0 0 1012.3 NA 0.0000 9999 0 0 0 0
2019/07/13 03:50:00 BASE 2.10 19 2.68 24 -5.2 100 -5.2 0 0 1012.3 NA 0.0000 9999 0 0 0 0
2019/07/13 03:51:00 BASE 2.05 27 2.68 24 -5.2 100 -5.2 0 0 1012.3 NA 0.0000 9999 0 0 0 0
2019/07/13 03:52:00 BASE 1.98 34 2.68 24 -5.2 100 -5.2 0 0 1012.3 NA 0.0000 9999 0 0 0 0
2019/07/13 03:53:00 BASE 1.89 35 2.68 24 -5.2 100 -5.2 0 0 1012.3 NA 0.0000 9999 0 0 0 0
2019/07/13 03:54:00 BASE 1.92 35 2.68 24 -5.2 100 -5.2 0 0 1012.3 NA 0.0000 9999 0 0 0 0
2019/07/13 03:55:00 BASE 1.90 34 2.68 24 -5.2 100 -5.2 0 0 1012.3 NA 0.0000 9999 0 0 0 0
2019/07/13 03:56:00 BASE 1.90 22 2.68 24 -5.1 100 -5.1 0 0 1012.3 NA 0.0000 9999 0 0 0 0
2019/07/13 03:57:00 BASE 2.01 22 2.68 24 -5.1 100 -5.1 0 0 1012.3 NA 0.0000 9999 0 0 0 0
2019/07/13 03:58:00 BASE 2.11 29 2.62 20 -5.1 100 -5.1 0 0 1012.3 NA 0.0000 9999 0 0 0 0
2019/07/13 03:59:00 BASE 2.14 27 2.52 35 -5.1 100 -5.1 0 0 1012.3 NA 0.0000 9999 0 0 0 0
2019/07/13 04:00:00 BASE 2.10 28 2.52 35 -5.1 100 -5.1 0 0 1012.3 NA 0.0000 9999 0 0 0 0
2019/07/13 04:01:00 BASE 2.12 30 2.52 34 -5.2 100 -5.2 0 0 1012.3 NA 0.0000 9999 0 0 0 0
2019/07/13 04:02:00 BASE 2.30 29 2.83 21 -5.2 100 -5.2 0 0 1012.3 NA 0.0000 9999 0 0 0 0
2019/07/13 04:03:00 BASE 2.17 33 2.83 21 -5.2 100 -5.2 0 0 1012.3 NA 0.0000 9999 0 0 0 0
2019/07/13 04:04:00 BASE 2.06 42 2.83 21 -5.2 100 -5.2 0 0 1012.3 NA 0.0000 9999 0 0 0 0
2019/07/13 04:06:00 BASE 2.06 40 2.83 21 -5.2 100 -5.2 0 0 1012.3 NA 0.0000 9999 0 0 0 0
2019/07/13 04:07:00 BASE 1.82 31 2.83 21 -5.2 100 -5.2 0 0 1012.3 NA 0.0000 9999 0 0 0 0
2019/07/13 04:08:00 BASE 1.90 33 2.83 21 -5.1 100 -5.1 0 0 1012.3 NA 0.0000 9999 0 0 0 0
2019/07/13 04:09:00 BASE 1.80 36 2.83 21 -5.2 100 -5.2 0 0 1012.3 NA 0.0000 9999 0 0 0 0
2019/07/13 04:10:00 BASE 1.73 35 2.83 21 -5.2 100 -5.2 0 0 1012.3 NA 0.0000 9999 0 0 0 0
2019/07/13 04:11:00 BASE 1.85 31 2.83 21 -5.2 100 -5.2 0 0 1012.3 NA 0.0000 9999 0 0 0 0
2019/07/13 04:12:00 BASE 1.87 28 2.62 33 -5.3 100 -5.3 0 0 1012.3 NA 0.0000 9999 0 0 0 0
2019/07/13 04:13:00 BASE 1.78 33 2.52 41 -5.3 100 -5.3 0 0 1012.3 NA 0.0000 9999 0 0 0 0
2019/07/13 04:14:00 BASE 1.76 29 2.52 41 -5.3 100 -5.3 0 0 1012.3 NA 0.0000 9999 0 0 0 0
2019/07/13 04:15:00 BASE 1.79 28 2.21 18 -5.3 100 -5.3 0 0 1012.3 NA 0.0000 9999 0 0 0 0
2019/07/13 04:16:00 BASE 1.77 32 2.21 18 -5.3 100 -5.3 0 0 1012.3 NA 0.0000 9999 0 0 0 0
2019/07/13 04:17:00 BASE 1.84 31 2.11 31 -5.3 100 -5.3 0 0 1012.3 NA 0.0000 9999 0 0 0 0
2019/07/13 04:18:00 BASE 1.98 30 2.68 14 -5.3 100 -5.3 0 0 1012.3 NA 0.0000 9999 0 0 0 0
2019/07/13 04:19:00 BASE 1.93 30 2.68 14 -5.3 100 -5.3 0 0 1012.3 NA 0.0000 9999 0 0 0 0
2019/07/13 04:20:00 BASE 1.98 36 2.68 14 -5.3 100 -5.3 0 0 1012.3 NA 0.0000 9999 0 0 0 0
2019/07/13 04:21:00 BASE 2.14 35 2.68 14 -5.3 100 -5.3 0 0 1012.3 NA 0.0000 9999 0 0 0 0
2019/07/13 04:22:00 BASE 2.12 28 2.68 14 -5.3 100 -5.3 0 0 1012.3 NA 0.0000 9999 0 0 0 0
2019/07/13 04:23:00 BASE 2.12 27 2.68 14 -5.3 100 -5.3 0 0 1012.3 NA 0.0000 9999 0 0 0 0
2019/07/13 04:24:00 BASE 2.24 28 2.68 14 -5.3 100 -5.3 0 0 1012.4 NA 0.0000 9999 0 0 0 0
2019/07/13 04:25:00 BASE 2.44 24 2.68 14 -5.3 100 -5.3 0 0 1012.4 NA 0.0000 9999 0 0 0 0
2019/07/13 04:26:00 BASE 2.50 20 2.68 14 -5.3 100 -5.3 0 0 1012.4 NA 0.0000 9999 0 0 0 0
2019/07/13 04:27:00 BASE 2.52 26 2.78 37 -5.3 100 -5.3 0 0 1012.5 NA 0.0000 9999 0 0 0 0
2019/07/13 04:28:00 BASE 2.68 29 3.34 32 -5.4 100 -5.4 0 0 1012.5 NA 0.0000 9999 0 0 0 0
2019/07/13 04:29:00 BASE 2.74 30 3.34 32 -5.4 100 -5.4 0 0 1012.5 NA 0.0000 9999 0 0 0 0
2019/07/13 04:30:00 BASE 2.81 30 3.34 32 -5.5 100 -5.5 0 0 1012.5 NA 0.0000 9999 0 0 0 0
2019/07/13 04:31:00 BASE 2.88 28 3.34 32 -5.5 100 -5.5 0 0 1012.5 NA 0.0000 9999 0 0 0 0
2019/07/13 04:32:00 BASE 2.74 32 3.34 32 -5.6 100 -5.6 0 0 1012.5 NA 0.0000 9999 0 0 0 0
2019/07/13 04:33:00 BASE 2.50 34 3.34 32 -5.6 100 -5.6 0 0 1012.4 NA 0.0000 9999 0 0 0 0
2019/07/13 04:34:00 BASE 2.41 34 3.34 32 -5.6 100 -5.6 0 0 1012.4 NA 0.0000 9999 0 0 0 0
2019/07/13 04:35:00 BASE 2.49 36 3.34 32 -5.6 100 -5.6 0 0 1012.4 NA 0.0000 9999 0 0 0 0
2019/07/13 04:36:00 BASE 2.67 39 3.34 32 -5.6 100 -5.6 0 0 1012.3 NA 0.0000 9999 0 0 0 300
2019/07/13 04:37:00 BASE 2.53 42 3.34 32 -5.5 100 -5.5 0 0 1012.3 NA 0.0000 9999 0 0 0 300
2019/07/13 04:38:00 BASE 2.12 45 3.14 20 -5.5 100 -5.5 0 0 1012.3 NA 0.0000 9999 0 0 0 0
2019/07/13 04:39:00 BASE 1.91 48 3.09 32 -5.4 100 -5.4 0 0 1012.3 NA 0.0000 9999 0 0 0 0
2019/07/13 04:40:00 BASE 1.92 44 3.09 32 -5.3 100 -5.3 0 0 1012.3 NA 0.0000 9999 0 0 0 0
2019/07/13 04:41:00 BASE 1.92 36 2.88 42 -5.3 100 -5.3 0 0 1012.3 NA 0.0000 9999 0 0 0 0
2019/07/13 04:42:00 BASE 1.84 33 2.88 42 -5.3 100 -5.3 0 0 1012.3 NA 0.0000 9999 0 0 0 0
2019/07/13 04:43:00 BASE 1.89 32 2.88 42 -5.2 100 -5.2 0 0 1012.3 NA 0.0000 9999 0 0 0 0
2019/07/13 04:44:00 BASE 1.88 31 2.88 42 -5.2 100 -5.2 0 0 1012.3 NA 0.0000 9999 0 0 0 0
2019/07/13 04:45:00 BASE 1.67 26 2.88 42 -5.2 100 -5.2 0 0 1012.4 NA 0.0000 9999 0 0 0 0
2019/07/13 04:46:00 BASE 1.41 25 2.68 42 -5.2 100 -5.2 0 0 1012.5 NA 0.0000 9999 0 0 0 0
2019/07/13 04:47:00 BASE 1.44 23 2.26 45 -5.2 100 -5.2 0 0 1012.5 NA 0.0000 9999 0 0 0 0
2019/07/13 04:48:00 BASE 1.52 19 2.16 26 -5.2 100 -5.2 0 0 1012.5 NA 0.0000 9999 0 0 0 0
2019/07/13 04:49:00 BASE 1.67 18 2.16 26 -5.2 100 -5.2 0 0 1012.5 NA 0.0000 9999 0 0 0 0
2019/07/13 04:50:00 BASE 1.92 13 2.37 8 -5.1 100 -5.1 0 0 1012.5 NA 0.0000 9999 0 0 0 0
2019/07/13 04:51:00 BASE 2.17 9 2.68 8 -5.1 100 -5.1 0 0 1012.5 NA 0.0000 9999 0 0 0 0
2019/07/13 04:52:00 BASE 2.21 10 2.68 8 -5.1 100 -5.1 0 0 1012.5 NA 0.0000 9999 0 0 0 0
2019/07/13 04:53:00 BASE 2.13 15 2.68 8 -5.1 100 -5.1 0 0 1012.5 NA 0.0000 9999 0 0 0 0
2019/07/13 04:54:00 BASE 2.18 18 2.68 8 -5.1 100 -5.1 0 0 1012.5 NA 0.0000 9999 0 0 0 0
2019/07/13 04:55:00 BASE 2.11 25 2.68 8 -5.2 100 -5.2 0 0 1012.6 NA 0.0000 9999 0 0 0 0
2019/07/13 04:56:00 BASE 2.28 28 2.88 23 -5.2 100 -5.2 0 0 1012.6 NA 0.0000 9999 0 0 0 0
2019/07/13 04:57:00 BASE 2.57 24 2.98 21 -5.3 100 -5.3 0 0 1012.6 NA 0.0000 9999 0 0 0 0
2019/07/13 04:58:00 BASE 2.60 20 2.98 21 -5.4 100 -5.4 0 0 1012.6 NA 0.0000 9999 0 0 0 0
2019/07/13 04:59:00 BASE 2.56 27 2.98 21 -5.4 100 -5.4 0 0 1012.6 NA 0.0000 9999 0 0 0 0
2019/07/13 05:00:00 BASE 2.59 28 2.98 21 -5.5 100 -5.5 0 0 1012.6 NA 0.0000 9999 0 0 0 0
2019/07/13 05:01:00 BASE 2.64 22 2.98 20 -5.5 100 -5.5 0 0 1012.6 NA 0.0000 9999 0 0 0 0
2019/07/13 05:02:01 BASE 2.69 21 3.09 13 -5.5 100 -5.5 0 0 1012.6 NA 0.0000 9999 0 0 0 0
2019/07/13 05:03:00 BASE 2.82 19 3.14 22 -5.5 100 -5.5 0 0 1012.6 NA 0.0000 9999 0 0 0 0
2019/07/13 05:04:00 BASE 2.94 19 3.14 18 -5.5 100 -5.5 0 0 1012.6 NA 0.0000 9999 0 0 0 0
2019/07/13 05:05:00 BASE 2.95 17 3.14 18 -5.5 100 -5.5 0 0 1012.6 NA 0.0000 9999 0 0 0 0
2019/07/13 05:06:00 BASE 2.75 15 3.14 18 -5.5 100 -5.5 0 0 1012.6 NA 0.0000 9999 0 0 0 0
2019/07/13 05:07:00 BASE 2.57 17 3.14 18 -5.6 100 -5.6 0 0 1012.6 NA 0.0000 9999 0 0 0 0
2019/07/13 05:08:00 BASE 2.73 18 3.14 18 -5.7 100 -5.7 0 0 1012.6 NA 0.0000 9999 0 0 0 0
2019/07/13 05:09:00 BASE 2.88 18 3.14 18 -5.7 100 -5.7 0 0 1012.6 NA 0.0000 9999 0 0 0 0
2019/07/13 05:10:00 BASE 2.84 20 3.14 18 -5.8 100 -5.8 0 0 1012.6 NA 0.0000 9999 0 0 0 430
2019/07/13 05:11:01 BASE 2.80 21 3.14 18 -5.7 100 -5.7 0 0 1012.6 NA 0.0000 9999 460 0 0 0
2019/07/13 05:12:00 BASE 2.67 22 3.14 18 -5.7 100 -5.7 0 0 1012.5 NA 0.0000 9999 490 0 0 0
2019/07/13 05:13:01 BASE 2.64 24 3.14 18 -5.6 100 -5.6 0 0 1012.6 NA 0.0000 9999 430 0 0 0
2019/07/13 05:14:00 BASE 2.71 24 3.09 22 -5.6 100 -5.6 0 0 1012.5 NA 0.0000 9999 390 0 0 0
2019/07/13 05:15:00 BASE 2.61 26 3.09 22 -5.6 100 -5.6 0 0 1012.5 NA 0.0000 9999 430 0 0 0
2019/07/13 05:16:00 BASE 2.59 26 3.09 22 -5.6 100 -5.6 0 0 1012.5 NA 0.0000 9999 430 0 0 0
2019/07/13 05:17:00 BASE 2.64 25 3.09 22 -5.6 100 -5.6 0 0 1012.5 NA 0.0000 9999 360 0 0 0
2019/07/13 05:18:00 BASE 2.76 17 3.24 7 -5.7 100 -5.7 0 0 1012.5 NA 0.0000 9999 390 0 0 0
2019/07/13 05:19:01 BASE 2.91 6 3.24 2 -5.6 100 -5.6 0 0 1012.5 NA 0.0000 9999 330 0 0 0
2019/07/13 05:20:00 BASE 2.79 11 3.24 2 -5.6 100 -5.6 0 0 1012.5 NA 0.0000 9999 230 0 0 0
2019/07/13 05:21:00 BASE 2.66 17 3.24 2 -5.6 100 -5.6 0 0 1012.5 NA 0.0000 9999 260 0 0 0
2019/07/13 05:22:00 BASE 2.70 23 3.24 2 -5.6 100 -5.6 0 0 1012.4 NA 0.0000 9999 460 0 0 0
2019/07/13 05:23:00 BASE 2.96 23 3.34 20 -5.6 100 -5.6 0 0 1012.4 NA 0.0000 9999 390 0 0 0
2019/07/13 05:24:00 BASE 3.28 22 3.55 21 -5.7 100 -5.7 0 0 1012.4 NA 0.0000 9999 0 0 0 390
2019/07/13 05:25:00 BASE 3.35 21 3.76 16 -5.7 100 -5.7 0 0 1012.4 NA 0.0000 9999 0 0 0 360
2019/07/13 05:26:00 BASE 3.19 14 3.76 16 -5.7 100 -5.7 0 0 1012.4 NA 0.0000 9999 300 0 0 0
2019/07/13 05:27:00 BASE 3.00 7 3.76 16 -5.8 100 -5.8 0 0 1012.4 NA 0.0000 9999 0 0 0 0
2019/07/13 05:28:00 BASE 2.98 2 3.76 16 -5.8 100 -5.8 0 0 1012.3 NA 0.0000 9999 0 0 0 0
2019/07/13 05:29:00 BASE 2.83 355 3.76 16 -5.8 100 -5.8 0 0 1012.3 NA 0.0000 9999 0 0 0 0
2019/07/13 05:30:00 BASE 2.80 346 3.76 16 -5.8 100 -5.8 0 0 1012.3 NA 0.0000 9999 0 0 0 0
2019/07/13 05:31:00 BASE 3.04 338 3.76 16 -5.8 100 -5.8 0 0 1012.3 NA 0.0000 9999 0 0 0 0
2019/07/13 05:32:00 BASE 3.14 337 3.76 16 -5.7 100 -5.7 0 0 1012.3 NA 0.0000 9999 0 0 0 0
2019/07/13 05:33:00 BASE 3.14 338 3.76 16 -5.7 100 -5.7 0 0 1012.3 NA 0.0000 9999 0 0 0 0
2019/07/13 05:34:01 BASE 3.13 340 3.76 16 -5.6 100 -5.6 0 0 1012.3 NA 0.0000 9999 0 0 0 0
2019/07/13 05:35:01 BASE 2.86 346 3.45 334 -5.5 100 -5.5 0 0 1012.3 NA 0.0000 9999 0 0 0 0
2019/07/13 05:36:01 BASE 2.40 351 3.45 334 -5.5 100 -5.5 0 0 1012.3 NA 0.0000 9999 0 0 0 0
2019/07/13 05:37:01 BASE 2.09 357 3.45 334 -5.5 100 -5.5 0 0 1012.3 NA 0.0000 9999 0 0 0 0
2019/07/13 05:38:01 BASE 2.06 357 3.45 334 -5.5 100 -5.5 0 0 1012.3 NA 0.0000 9999 0 0 0 0
2019/07/13 05:39:01 BASE 2.13 350 3.45 334 -5.5 100 -5.5 0 0 1012.3 NA 0.0000 9999 0 0 0 0
2019/07/13 05:40:01 BASE 2.09 343 3.45 334 -5.4 100 -5.4 0 0 1012.3 NA 0.0000 9999 0 0 0 0
2019/07/13 05:41:01 BASE 2.12 338 3.45 334 -5.4 100 -5.4 0 0 1012.3 NA 0.0000 9999 0 0 0 0
2019/07/13 05:42:01 BASE 2.31 337 3.45 334 -5.4 100 -5.4 0 0 1012.2 NA 0.0000 9999 0 0 0 0
2019/07/13 05:43:01 BASE 2.30 340 3.24 339 -5.4 100 -5.4 0 0 1012.2 NA 0.0000 9999 0 0 0 0
2019/07/13 05:44:01 BASE 2.35 333 3.09 320 -5.4 100 -5.4 0 0 1012.3 NA 0.0000 9999 0 0 0 0
2019/07/13 05:45:01 BASE 2.89 323 3.76 313 -5.5 100 -5.5 0 0 1012.3 NA 0.0000 9999 0 0 0 0
2019/07/13 05:46:01 BASE 3.24 322 3.76 313 -5.5 100 -5.5 0 0 1012.3 NA 0.0000 9999 0 0 0 0
2019/07/13 05:47:01 BASE 3.34 323 3.81 317 -5.6 100 -5.6 0 0 1012.3 NA 0.0000 9999 0 0 0 0
2019/07/13 05:48:01 BASE 3.59 320 4.06 312 -5.6 100 -5.6 0 0 1012.3 NA 0.0000 9999 0 0 0 0
2019/07/13 05:49:01 BASE 3.63 320 4.06 312 -5.6 100 -5.6 0 0 1012.3 NA 0.0000 9999 0 0 0 0
2019/07/13 05:50:01 BASE 3.48 325 4.06 312 -5.5 100 -5.5 0 0 1012.3 NA 0.0000 9999 0 0 0 0
2019/07/13 05:51:01 BASE 3.58 329 4.06 330 -5.5 100 -5.5 0 0 1012.3 NA 0.0000 9999 0 0 0 0
2019/07/13 05:52:01 BASE 3.66 332 4.06 330 -5.5 100 -5.5 0 0 1012.3 NA 0.0000 9999 0 0 0 0
2019/07/13 05:53:01 BASE 3.60 334 4.06 330 -5.6 100 -5.6 0 0 1012.3 NA 0.0000 9999 0 0 0 0
2019/07/13 05:54:01 BASE 3.72 332 4.12 330 -5.6 100 -5.6 0 0 1012.3 NA 0.0000 9999 0 0 0 0
2019/07/13 05:55:01 BASE 3.86 332 4.12 330 -5.6 100 -5.6 0 0 1012.3 NA 0.0000 9999 0 0 0 0
2019/07/13 05:56:01 BASE 3.72 335 4.12 330 -5.6 100 -5.6 0 0 1012.3 NA 0.0000 9999 0 0 0 0
2019/07/13 05:57:00 BASE 3.62 337 4.12 330 -5.6 100 -5.6 0 0 1012.3 NA 0.0000 9999 0 0 0 0
2019/07/13 05:58:01 BASE 3.65 338 4.12 330 -5.6 100 -5.6 0 0 1012.3 NA 0.0000 9999 0 0 0 0
2019/07/13 05:59:01 BASE 3.52 343 4.12 330 -5.6 100 -5.6 0 0 1012.3 NA 0.0000 9999 0 0 0 0
2019/07/13 06:00:00 BASE 3.26 350 4.12 330 -5.6 100 -5.6 0 0 1012.3 NA 0.0000 9999 0 0 0 0
2019/07/13 06:01:00 BASE 3.25 351 4.12 330 -5.7 100 -5.7 0 0 1012.3 NA 0.0000 9999 0 0 0 0
2019/07/13 06:02:00 BASE 3.41 350 4.12 330 -5.7 100 -5.7 0 0 1012.3 NA 0.0000 9999 0 0 0 360
2019/07/13 06:03:00 BASE 3.35 359 4.12 330 -5.7 100 -5.7 0 0 1012.2 NA 0.0000 9999 0 0 0 0
2019/07/13 06:04:01 BASE 3.09 6 4.01 331 -5.8 100 -5.8 0 0 1012.3 NA 0.0000 9999 0 0 0 260
2019/07/13 06:05:01 BASE 2.90 6 3.91 335 -5.8 100 -5.8 0 0 1012.3 NA 0.0000 9999 330 0 0 0
2019/07/13 06:06:00 BASE 3.00 7 3.86 340 -5.8 100 -5.8 0 0 1012.3 NA 0.0000 9999 300 0 0 0
2019/07/13 06:07:00 BASE 3.04 7 3.86 340 -5.9 100 -5.9 0 0 1012.3 NA 0.0000 9999 260 0 0 0
2019/07/13 06:08:00 BASE 2.84 12 3.65 350 -6.0 100 -6.0 0 0 1012.3 NA 0.0000 9999 230 0 0 0
2019/07/13 06:09:00 BASE 2.75 19 3.65 350 -6.0 100 -6.0 0 0 1012.3 NA 0.0000 9999 260 0 0 0
2019/07/13 06:10:00 BASE 2.83 21 3.65 350 -6.1 100 -6.1 0 0 1012.3 NA 0.0000 9999 230 0 0 0
2019/07/13 06:11:00 BASE 2.90 22 3.65 350 -6.1 100 -6.1 0 0 1012.2 NA 0.0000 9999 200 0 0 0
2019/07/13 06:12:00 BASE 2.79 21 3.45 114 -6.1 100 -6.1 0 0 1012.2 NA 0.0000 9999 200 0 0 0
2019/07/13 06:13:00 BASE 2.67 22 3.29 12 -6.0 100 -6.0 0 0 1012.2 NA 0.0000 9999 200 0 0 0
2019/07/13 06:14:01 BASE 2.60 22 3.29 12 -6.0 100 -6.0 0 0 1012.2 NA 0.0000 9999 200 0 0 0
2019/07/13 06:15:00 BASE 2.61 20 3.29 12 -6.0 100 -6.0 0 0 1012.2 NA 0.0000 9999 200 0 0 0
2019/07/13 06:16:01 BASE 2.59 18 3.24 12 -5.9 100 -5.9 0 0 1012.2 NA 0.0000 9999 200 0 0 0
2019/07/13 06:17:01 BASE 2.57 16 3.24 12 -5.9 100 -5.9 0 0 1012.2 NA 0.0000 9999 200 0 0 0
2019/07/13 06:18:01 BASE 2.71 14 3.24 12 -5.9 100 -5.9 0 0 1012.2 NA 0.0000 9999 200 0 0 0
2019/07/13 06:19:01 BASE 2.89 11 3.29 360 -5.9 100 -5.9 0 0 1012.2 NA 0.0000 9999 200 0 0 0
2019/07/13 06:20:01 BASE 2.84 10 3.29 360 -5.9 100 -5.9 0 0 1012.2 NA 0.0000 9999 160 0 0 0
2019/07/13 06:21:00 BASE 2.78 11 3.29 360 -5.9 100 -5.9 0 0 1012.2 NA 0.0000 9999 0 0 0 460
2019/07/13 06:22:01 BASE 2.78 15 3.29 360 -5.8 100 -5.8 0 0 1012.2 NA 0.0000 9999 0 0 0 300
2019/07/13 06:23:01 BASE 2.64 19 3.29 360 -5.8 100 -5.8 0 0 1012.2 NA 0.0000 9999 160 0 0 0
2019/07/13 06:24:00 BASE 2.66 19 3.29 360 -5.8 100 -5.8 0 0 1012.2 NA 0.0000 9999 200 0 0 0
2019/07/13 06:25:00 BASE 2.67 19 3.29 360 -5.8 100 -5.8 0 0 1012.2 NA 0.0000 9999 0 0 0 490
2019/07/13 06:26:01 BASE 2.63 18 3.29 360 -5.8 100 -5.8 0 0 1012.2 NA 0.0000 9999 160 0 0 0
2019/07/13 06:27:00 BASE 2.58 18 3.29 360 -5.8 100 -5.8 0 0 1012.2 NA 0.0000 9999 200 0 0 0
2019/07/13 06:28:01 BASE 2.50 20 3.29 360 -5.8 100 -5.8 0 0 1012.2 NA 0.0000 9999 200 0 0 0
2019/07/13 06:29:00 BASE 2.48 24 3.19 1 -5.8 100 -5.8 0 0 1012.2 NA 0.0000 9999 200 0 0 0
2019/07/13 06:30:00 BASE 2.53 25 3.19 1 -5.8 100 -5.8 0 0 1012.2 NA 0.0000 9999 230 0 0 0
2019/07/13 06:31:00 BASE 2.65 24 3.29 22 -5.8 100 -5.8 0 0 1012.2 NA 0.0000 9999 200 0 0 0
2019/07/13 06:32:01 BASE 2.77 24 3.29 22 -5.8 100 -5.8 0 0 1012.2 NA 0.0000 9999 230 0 0 0
2019/07/13 06:33:00 BASE 2.62 24 3.29 22 -5.8 100 -5.8 0 0 1012.2 NA 0.0000 9999 230 0 0 0
2019/07/13 06:34:01 BASE 2.47 22 3.29 22 -5.8 100 -5.8 0 0 1012.2 NA 0.0000 9999 260 0 0 0
2019/07/13 06:35:01 BASE 2.55 21 3.29 22 -5.7 100 -5.7 0 0 1012.2 NA 0.0000 9999 260 0 0 0
2019/07/13 06:36:01 BASE 2.65 25 3.29 22 -5.7 100 -5.7 0 0 1012.2 NA 0.0000 9999 260 0 0 0
2019/07/13 06:37:00 BASE 2.84 29 3.34 20 -5.7 100 -5.7 0 0 1012.2 NA 0.0000 9999 260 0 0 0
2019/07/13 06:38:00 BASE 2.82 27 3.34 20 -5.7 100 -5.7 0 0 1012.2 NA 0.0000 9999 230 0 0 0
2019/07/13 06:39:00 BASE 2.76 26 3.34 20 -5.7 100 -5.7 0 0 1012.2 NA 0.0000 9999 230 0 0 0
2019/07/13 06:40:00 BASE 2.91 30 3.34 20 -5.7 100 -5.7 0 0 1012.2 NA 0.0000 9999 230 0 0 0
2019/07/13 06:41:00 BASE 3.12 28 3.76 22 -5.7 100 -5.7 0 0 1012.2 NA 0.0000 9999 230 0 0 0
2019/07/13 06:42:01 BASE 3.04 26 3.76 22 -5.7 100 -5.7 0 0 1012.2 NA 0.0000 9999 230 0 0 0
2019/07/13 06:43:00 BASE 2.83 29 3.76 22 -5.7 100 -5.7 0 0 1012.2 NA 0.0000 9999 230 0 0 0
2019/07/13 06:44:00 BASE 2.88 32 3.76 22 -5.7 100 -5.7 0 0 1012.2 NA 0.0000 9999 200 0 0 0
2019/07/13 06:45:00 BASE 2.83 35 3.76 22 -5.7 100 -5.7 0 0 1012.2 NA 0.0000 9999 200 0 0 0
2019/07/13 06:46:01 BASE 2.83 36 3.76 22 -5.8 100 -5.8 0 0 1012.2 NA 0.0000 9999 200 0 0 0
2019/07/13 06:47:00 BASE 2.73 41 3.76 22 -5.7 100 -5.7 0 0 1012.2 NA 0.0000 9999 160 0 0 0
2019/07/13 06:48:00 BASE 2.67 48 3.76 22 -5.7 100 -5.7 0 0 1012.2 NA 0.0000 9999 160 0 0 0
2019/07/13 06:49:01 BASE 2.72 46 3.76 22 -5.7 100 -5.7 0 0 1012.2 NA 0.0000 9999 200 0 0 0
2019/07/13 06:50:00 BASE 2.68 40 3.76 22 -5.6 100 -5.6 0 0 1012.2 NA 0.0000 9999 160 0 0 0
2019/07/13 06:51:00 BASE 2.68 33 3.34 45 -5.6 100 -5.6 0 0 1012.2 NA 0.0000 9999 200 0 0 0
2019/07/13 06:52:01 BASE 2.60 29 3.34 45 -5.6 100 -5.6 0 0 1012.2 NA 0.0000 9999 160 0 0 0
2019/07/13 06:53:00 BASE 2.60 27 3.34 45 -5.6 100 -5.6 0 0 1012.2 NA 0.0000 9999 0 0 0 490
2019/07/13 06:54:00 BASE 2.47 26 3.34 45 -5.6 100 -5.6 0 0 1012.2 NA 0.0000 9999 0 0 0 490
2019/07/13 06:55:00 BASE 2.29 35 3.34 45 -5.6 100 -5.6 0 0 1012.2 NA 0.0000 9999 0 0 0 520
2019/07/13 06:56:00 BASE 2.29 33 3.34 45 -5.6 100 -5.6 0 0 1012.2 NA 0.0000 9999 160 0 0 0
2019/07/13 06:57:00 BASE 2.25 24 3.34 45 -5.6 100 -5.6 0 0 1012.3 NA 0.0000 9999 0 0 0 490
2019/07/13 06:58:00 BASE 2.31 23 3.34 45 -5.6 100 -5.6 0 0 1012.3 NA 0.0000 9999 0 0 0 520
2019/07/13 06:59:00 BASE 2.27 17 3.34 45 -5.5 100 -5.6 0 0 1012.3 NA 0.0000 9999 0 0 0 520
2019/07/13 07:00:00 BASE 1.99 14 3.14 41 -5.5 100 -5.5 0 0 1012.3 NA 0.0000 9999 0 0 0 560
2019/07/13 07:01:00 BASE 1.95 10 3.14 41 -5.5 100 -5.5 0 0 1012.2 NA 0.0000 9999 0 0 0 520
2019/07/13 07:02:00 BASE 2.13 7 3.04 23 -5.4 100 -5.4 0 0 1012.2 NA 0.0000 9999 0 0 0 520
2019/07/13 07:03:00 BASE 2.27 11 2.83 28 -5.4 100 -5.4 0 0 1012.2 NA 0.0000 9999 0 0 0 590
2019/07/13 07:04:00 BASE 2.33 14 2.88 21 -5.4 100 -5.4 0 0 1012.2 NA 0.0000 9999 0 0 0 560
2019/07/13 07:05:00 BASE 2.43 15 2.88 21 -5.4 100 -5.4 0 0 1012.2 NA 0.0000 9999 0 0 0 560
2019/07/13 07:06:01 BASE 2.58 12 2.98 10 -5.4 100 -5.4 0 0 1012.2 NA 0.0000 9999 0 0 0 620
2019/07/13 07:07:00 BASE 2.61 15 3.09 23 -5.5 100 -5.5 0 0 1012.2 NA 0.0000 9999 0 0 0 660
2019/07/13 07:08:00 BASE 2.76 22 3.19 23 -5.5 100 -5.5 0 0 1012.2 NA 0.0000 9999 160 0 0 0
2019/07/13 07:09:00 BASE 2.93 21 3.19 23 -5.5 100 -5.5 0 0 1012.2 NA 0.0000 9999 160 0 0 0
2019/07/13 07:10:00 BASE 2.98 22 3.29 26 -5.5 100 -5.5 0 0 1012.2 NA 0.0000 9999 0 0 0 590
2019/07/13 07:11:00 BASE 3.01 26 3.29 14 -5.6 100 -5.6 0 0 1012.2 NA 0.0000 9999 0 0 0 560
2019/07/13 07:12:00 BASE 2.73 30 3.29 14 -5.6 100 -5.6 0 0 1012.2 NA 0.0000 9000 0 0 0 560
2019/07/13 07:13:00 BASE 2.33 25 3.29 14 -5.7 100 -5.7 0 0 1012.2 NA 0.0000 8000 0 0 0 560
2019/07/13 07:14:00 BASE 2.30 18 3.29 14 -5.7 100 -5.7 0 0 1012.2 NA 0.0000 9999 0 0 0 560
2019/07/13 07:15:00 BASE 2.50 15 3.29 14 -5.7 100 -5.7 0 0 1012.2 NA 0.0000 9999 160 0 0 0
2019/07/13 07:16:00 BASE 2.51 2 3.29 14 -5.6 100 -5.6 0 0 1012.2 NA 0.0000 9999 0 0 0 620
2019/07/13 07:17:00 BASE 2.58 352 3.29 14 -5.6 100 -5.6 0 0 1012.2 NA 0.0000 9999 0 0 0 660
2019/07/13 07:18:00 BASE 2.66 355 3.29 14 -5.6 100 -5.6 0 0 1012.2 NA 0.0000 9999 0 0 0 590
2019/07/13 07:19:00 BASE 2.56 357 3.29 14 -5.6 100 -5.6 0 0 1012.2 NA 0.0000 9999 0 0 0 590
2019/07/13 07:20:00 BASE 2.54 351 3.29 14 -5.6 100 -5.6 0 0 1012.2 NA 0.0000 9999 0 0 0 660
2019/07/13 07:21:00 BASE 2.59 342 2.88 354 -5.6 100 -5.6 0 0 1012.2 NA 0.0000 9999 0 0 0 660
2019/07/13 07:22:00 BASE 2.59 347 2.88 354 -5.6 100 -5.6 0 0 1012.2 NA 0.0000 9999 360 0 0 0
2019/07/13 07:23:01 BASE 2.63 350 2.88 354 -5.5 100 -5.5 0 0 1012.2 NA 0.0000 9999 360 0 0 0
2019/07/13 07:24:00 BASE 2.72 353 2.88 354 -5.5 100 -5.5 0 0 1012.2 NA 0.0000 9999 430 0 0 0
2019/07/13 07:25:00 BASE 2.70 358 2.88 354 -5.5 100 -5.5 0 0 1012.2 NA 0.0000 9999 390 0 0 0
2019/07/13 07:26:00 BASE 2.72 357 2.88 360 -5.5 100 -5.5 0 0 1012.2 NA 0.0000 9999 430 0 0 0
2019/07/13 07:27:00 BASE 2.88 355 3.19 360 -5.5 100 -5.5 0 0 1012.2 NA 0.0000 9999 430 0 0 0
2019/07/13 07:28:00 BASE 3.10 357 3.40 360 -5.5 100 -5.6 0 0 1012.2 NA 0.0000 9999 460 0 0 0
2019/07/13 07:29:00 BASE 3.17 359 3.50 360 -5.6 100 -5.6 0 0 1012.2 NA 0.0000 9999 390 0 0 0
2019/07/13 07:30:00 BASE 3.35 359 3.86 350 -5.5 100 -5.5 0 0 1012.2 NA 0.0000 9999 390 0 0 0
2019/07/13 07:31:00 BASE 3.53 358 3.91 308 -5.5 100 -5.5 0 0 1012.2 NA 0.0000 9999 390 0 0 0
2019/07/13 07:32:00 BASE 3.53 0 3.96 3 -5.5 100 -5.5 0 0 1012.2 NA 0.0000 9999 460 0 0 0
2019/07/13 07:33:01 BASE 3.44 3 3.96 3 -5.5 100 -5.5 0 0 1012.2 NA 0.0000 9999 430 0 0 0
2019/07/13 07:34:00 BASE 3.15 7 3.96 3 -5.6 100 -5.6 0 0 1012.2 NA 0.0000 9999 590 0 0 0
2019/07/13 07:35:00 BASE 2.90 13 3.96 3 -5.6 100 -5.6 0 0 1012.2 NA 0.0000 9999 0 0 0 620
2019/07/13 07:36:01 BASE 3.06 15 3.96 3 -5.7 100 -5.7 0 0 1012.2 NA 0.0000 9999 0 0 0 460
2019/07/13 07:37:00 BASE 3.51 13 3.96 11 -5.8 100 -5.8 0 0 1012.2 NA 0.0000 9999 0 0 0 430
2019/07/13 07:38:00 BASE 3.93 10 4.42 8 -5.8 100 -5.8 0 0 1012.2 NA 0.0000 9999 0 0 0 0
2019/07/13 07:39:00 BASE 3.96 11 4.42 8 -5.9 100 -5.9 0 0 1012.2 NA 0.0000 9999 0 0 0 0
2019/07/13 07:40:00 BASE 3.85 14 4.42 8 -5.8 100 -5.8 0 0 1012.2 NA 0.0000 9999 0 0 0 0
2019/07/13 07:41:00 BASE 3.79 16 4.42 8 -5.9 100 -5.9 0 0 1012.2 NA 0.0000 9999 0 0 0 0
2019/07/13 07:42:01 BASE 3.52 19 4.42 8 -5.9 100 -5.9 0 0 1012.1 NA 0.0000 9999 0 0 0 0
2019/07/13 07:43:01 BASE 3.44 21 4.42 8 -5.9 100 -5.9 0 0 1012.1 NA 0.0000 9999 0 0 0 0
2019/07/13 07:44:00 BASE 3.46 22 4.42 8 -6.0 100 -6.0 0 0 1012.1 NA 0.0000 9999 0 0 0 0
2019/07/13 07:45:00 BASE 3.36 21 4.42 8 -6.0 100 -6.0 0 0 1012.1 NA 0.0000 9999 0 0 0 0
2019/07/13 07:46:00 BASE 3.35 20 4.42 8 -6.0 100 -6.0 0 0 1012.1 NA 0.0000 9999 0 0 0 0
2019/07/13 07:47:00 BASE 3.46 18 4.42 8 -6.0 100 -6.0 0 0 1012.1 NA 0.0000 9999 0 0 0 0
2019/07/13 07:48:00 BASE 3.28 16 4.22 17 -6.1 100 -6.1 0 0 1012.1 NA 0.0000 9999 0 0 0 0
2019/07/13 07:49:00 BASE 3.38 15 4.22 17 -6.1 100 -6.1 0 0 1012.1 NA 0.0000 9999 0 0 0 0
2019/07/13 07:50:00 BASE 3.55 17 3.96 17 -6.2 100 -6.2 0 0 1012.1 NA 0.0000 9999 0 0 0 0
2019/07/13 07:51:00 BASE 3.48 17 4.01 16 -6.2 100 -6.2 0 0 1012.1 NA 0.0000 9999 0 0 0 0
2019/07/13 07:52:00 BASE 3.51 15 4.01 16 -6.2 100 -6.2 0 0 1012.1 NA 0.0000 9999 0 0 0 0
2019/07/13 07:53:01 BASE 3.53 15 4.01 16 -6.2 100 -6.2 0 0 1012.1 NA 0.0000 9999 0 0 0 0
2019/07/13 07:54:00 BASE 3.60 14 4.01 16 -6.2 100 -6.2 0 0 1012.1 NA 0.0000 9999 0 0 0 0
2019/07/13 07:55:00 BASE 3.65 16 4.12 20 -6.1 100 -6.1 0 0 1012.1 NA 0.0000 9999 0 0 0 0
2019/07/13 07:56:00 BASE 3.73 18 4.22 18 -6.1 100 -6.1 0 0 1012.1 NA 0.0000 9999 0 0 0 0
2019/07/13 07:57:00 BASE 3.74 17 4.22 18 -6.1 100 -6.1 0 0 1012.1 NA 0.0000 9999 0 0 0 0
2019/07/13 07:58:00 BASE 3.59 16 4.22 18 -6.1 100 -6.1 0 0 1012.1 NA 0.0000 9999 0 0 0 0
2019/07/13 07:59:00 BASE 3.32 15 4.22 18 -6.1 100 -6.1 0 0 1012.1 NA 0.0000 9999 0 0 0 0
2019/07/13 08:00:00 BASE 2.97 18 4.22 18 -6.1 100 -6.1 0 0 1012.1 NA 0.0000 9999 0 0 0 0
2019/07/13 08:01:00 BASE 2.70 23 4.22 18 -6.1 100 -6.1 0 0 1012.1 NA 0.0000 9999 0 0 0 0
2019/07/13 08:02:00 BASE 2.73 26 4.22 18 -6.1 100 -6.1 0 0 1012.2 NA 0.0000 9999 0 0 0 0
2019/07/13 08:03:00 BASE 2.53 28 4.22 18 -6.1 100 -6.1 0 0 1012.2 NA 0.0000 9999 0 0 0 0
2019/07/13 08:04:00 BASE 2.30 30 4.22 18 -6.2 100 -6.2 0 0 1012.2 NA 0.0000 9999 0 0 0 0
2019/07/13 08:05:00 BASE 2.37 28 4.22 18 -6.2 100 -6.2 0 0 1012.2 NA 0.0000 9999 0 0 0 0
2019/07/13 08:06:00 BASE 2.43 26 4.01 11 -6.2 100 -6.2 0 0 1012.1 NA 0.0000 9999 0 0 0 0
2019/07/13 08:07:00 BASE 2.61 26 3.55 8 -6.2 100 -6.2 0 0 1012.1 NA 0.0000 9999 0 0 0 0
2019/07/13 08:08:00 BASE 2.70 29 3.55 8 -6.1 100 -6.1 0 0 1012.1 NA 0.0000 9999 0 0 0 0
2019/07/13 08:09:01 BASE 2.42 31 3.19 19 -6.1 100 -6.1 0 0 1012.2 NA 0.0000 9999 0 0 0 0
2019/07/13 08:10:01 BASE 2.16 34 3.19 19 -6.0 100 -6.0 0 0 1012.2 NA 0.0000 9999 0 0 0 0
2019/07/13 08:11:00 BASE 2.20 35 3.19 19 -6.0 100 -6.0 0 0 1012.2 NA 0.0000 9999 0 0 0 0
2019/07/13 08:12:00 BASE 2.34 34 3.09 31 -6.0 100 -6.0 0 0 1012.2 NA 0.0000 9999 0 0 0 0
2019/07/13 08:13:00 BASE 2.37 31 3.09 31 -5.9 100 -5.9 0 0 1012.2 NA 0.0000 9999 0 0 0 0
2019/07/13 08:14:00 BASE 2.23 29 3.09 31 -5.9 100 -5.9 0 0 1012.2 NA 0.0000 9999 0 0 0 0
2019/07/13 08:15:00 BASE 2.21 30 3.09 31 -5.8 100 -5.8 0 0 1012.2 NA 0.0000 9999 0 0 0 0
2019/07/13 08:16:01 BASE 2.15 27 3.09 31 -5.8 100 -5.8 0 0 1012.2 NA 0.0000 9999 0 0 0 0
2019/07/13 08:17:00 BASE 2.04 20 3.09 31 -5.8 100 -5.8 0 0 1012.2 NA 0.0000 9999 0 0 0 0
2019/07/13 08:18:00 BASE 2.07 14 2.93 27 -5.7 100 -5.7 0 0 1012.2 NA 0.0000 9999 0 0 0 0
2019/07/13 08:19:00 BASE 2.01 20 2.78 24 -5.6 100 -5.6 0 0 1012.2 NA 0.0000 9999 0 0 0 0
2019/07/13 08:20:00 BASE 1.80 28 2.78 24 -5.6 100 -5.6 0 0 1012.2 NA 0.0000 9999 0 0 0 0
2019/07/13 08:21:00 BASE 1.80 31 2.78 24 -5.6 100 -5.6 0 0 1012.2 NA 0.0000 9999 0 0 0 0
2019/07/13 08:22:01 BASE 1.97 39 2.78 24 -5.6 100 -5.6 0 0 1012.2 NA 0.0000 9999 0 0 0 0
2019/07/13 08:23:00 BASE 2.13 47 2.78 24 -5.6 100 -5.6 0 0 1012.2 NA 0.0000 9999 0 0 0 0
2019/07/13 08:24:00 BASE 2.20 46 2.78 24 -5.6 100 -5.6 0 0 1012.2 NA 0.0000 9999 0 0 0 0
2019/07/13 08:25:00 BASE 2.01 43 2.57 51 -5.6 100 -5.6 0 0 1012.2 NA 0.0000 9999 0 0 0 0
2019/07/13 08:26:00 BASE 2.00 49 2.57 51 -5.6 100 -5.6 0 0 1012.1 NA 0.0000 9999 0 0 0 0
2019/07/13 08:27:00 BASE 1.92 54 2.57 51 -5.5 100 -5.5 0 0 1012.1 NA 0.0000 9999 0 0 0 0
2019/07/13 08:28:00 BASE 1.80 54 2.57 51 -5.4 100 -5.4 0 0 1012.1 NA 0.0000 9999 0 0 0 0
2019/07/13 08:29:00 BASE 2.04 59 2.57 51 -5.4 100 -5.4 0 0 1012.1 NA 0.0000 9999 0 0 0 0
2019/07/13 08:30:00 BASE 2.17 61 2.57 51 -5.3 100 -5.3 0 0 1012.1 NA 0.0000 9999 0 0 0 0
2019/07/13 08:31:00 BASE 2.11 56 2.57 51 -5.3 100 -5.3 0 0 1012.0 NA 0.0000 9999 0 0 0 0
2019/07/13 08:32:01 BASE 2.00 56 2.57 51 -5.3 100 -5.3 0 0 1012.0 NA 0.0000 9999 0 0 0 0
2019/07/13 08:33:00 BASE 2.17 59 2.57 61 -5.3 100 -5.3 0 0 1012.0 NA 0.0000 9999 0 0 0 0
2019/07/13 08:34:00 BASE 2.50 62 2.68 64 -5.3 100 -5.3 0 0 1012.0 NA 0.0000 9999 0 0 0 0
2019/07/13 08:35:00 BASE 2.53 61 2.68 64 -5.4 100 -5.4 0 0 1012.0 NA 0.0000 9999 0 0 0 0
2019/07/13 08:36:00 BASE 2.54 60 2.68 64 -5.4 100 -5.4 0 0 1012.0 NA 0.0000 9999 0 0 0 0
2019/07/13 08:37:00 BASE 2.60 61 2.78 64 -5.4 100 -5.4 0 0 1012.0 NA 0.0000 9999 0 0 0 0
2019/07/13 08:38:00 BASE 2.65 60 2.78 60 -5.4 100 -5.4 0 0 1012.0 NA 0.0000 9999 0 0 0 0
2019/07/13 08:39:00 BASE 2.63 60 2.78 60 -5.5 100 -5.5 0 0 1012.0 NA 0.0000 9999 0 0 0 0
2019/07/13 08:40:00 BASE 2.46 62 2.78 60 -5.5 100 -5.5 0 0 1012.0 NA 0.0000 9999 0 0 0 0
2019/07/13 08:41:00 BASE 2.22 62 2.78 60 -5.5 100 -5.5 0 0 1012.0 NA 0.0000 9999 0 0 0 0
2019/07/13 08:42:00 BASE 2.09 62 2.78 60 -5.5 100 -5.5 0 0 1011.9 NA 0.0000 9999 0 0 0 0
2019/07/13 08:43:00 BASE 2.09 59 2.78 60 -5.5 100 -5.5 0 0 1011.9 NA 0.0000 9999 0 0 0 0
2019/07/13 08:44:00 BASE 2.04 52 2.78 60 -5.5 100 -5.5 0 0 1011.9 NA 0.0000 9999 0 0 0 0
2019/07/13 08:45:00 BASE 1.89 49 2.78 60 -5.4 100 -5.4 0 0 1011.9 NA 0.0000 9999 0 0 0 0
2019/07/13 08:46:00 BASE 1.75 47 2.78 60 -5.5 100 -5.5 0 0 1011.9 NA 0.0000 9999 0 0 0 0
2019/07/13 08:47:00 BASE 1.68 46 2.78 60 -5.4 100 -5.4 0 0 1011.8 NA 0.0000 9999 0 0 0 0
2019/07/13 08:48:00 BASE 1.59 45 2.62 63 -5.5 100 -5.5 0 0 1011.7 NA 0.0000 9999 0 0 0 0
2019/07/13 08:49:00 BASE 1.55 42 2.62 63 -5.5 100 -5.5 0 0 1011.7 NA 0.0000 9999 0 0 0 0
2019/07/13 08:50:00 BASE 1.55 42 2.21 57 -5.5 100 -5.5 0 0 1011.7 NA 0.0000 9999 0 0 0 0
2019/07/13 08:51:00 BASE 1.50 44 2.21 57 -5.5 100 -5.5 0 0 1011.7 NA 0.0000 9999 0 0 0 0
2019/07/13 08:52:00 BASE 1.34 44 2.21 57 -5.5 100 -5.5 0 0 1011.7 NA 0.0000 9999 0 0 0 0
2019/07/13 08:53:00 BASE 1.19 44 2.06 50 -5.5 100 -5.5 0 0 1011.7 NA 0.0000 9999 0 0 0 0
2019/07/13 08:54:00 BASE 1.14 44 1.95 50 -5.5 100 -5.5 0 0 1011.7 NA 0.0000 9999 0 0 0 0
2019/07/13 08:55:00 BASE 1.00 43 1.85 45 -5.5 100 -5.5 0 0 1011.7 NA 0.0000 9999 0 0 0 0
2019/07/13 08:56:00 BASE 1.07 36 1.70 44 -5.5 100 -5.5 0 0 1011.7 NA 0.0000 9999 0 0 0 0
2019/07/13 08:57:00 BASE 1.45 31 1.75 28 -5.5 100 -5.5 0 0 1011.7 NA 0.0000 9999 0 0 0 0
2019/07/13 08:58:01 BASE 1.49 35 1.75 28 -5.6 100 -5.6 0 0 1011.7 NA 0.0000 9999 0 0 0 0
2019/07/13 08:59:00 BASE 0.72 39 1.75 28 -5.6 100 -5.6 0 0 1011.7 NA 0.0000 9999 0 0 0 0
2019/07/13 09:00:00 BASE 0.04 35 1.75 28 -5.7 100 -5.7 0 0 1011.7 NA 0.0000 9999 0 0 0 0
2019/07/13 09:01:00 BASE 0.00 31 1.75 28 -5.7 100 -5.7 0 0 1011.7 NA 0.0000 9999 0 0 0 0
2019/07/13 09:02:00 BASE 0.00 31 1.75 28 -5.7 100 -5.7 0 0 1011.7 NA 0.0000 9999 0 0 0 0
2019/07/13 09:03:01 BASE 0.00 31 1.75 28 -5.7 100 -5.7 0 0 1011.7 NA 0.0000 9999 0 0 0 0
2019/07/13 09:04:00 BASE 0.00 31 1.75 28 -5.7 100 -5.7 0 0 1011.7 NA 0.0000 9999 0 0 0 0
2019/07/13 09:05:00 BASE 0.00 31 1.75 28 -5.6 100 -5.6 0 0 1011.7 NA 0.0000 9999 0 0 0 0
2019/07/13 09:06:00 BASE 0.00 31 1.75 28 -5.6 100 -5.6 0 0 1011.7 NA 0.0000 9999 0 0 0 0
2019/07/13 09:07:00 BASE 0.00 31 1.65 35 -5.5 100 -5.5 0 0 1011.7 NA 0.0000 9999 0 0 0 0
2019/07/13 09:08:00 BASE 0.00 31 1.03 37 -5.4 100 -5.4 0 0 1011.7 NA 0.0000 9999 0 0 0 0
2019/07/13 09:09:00 BASE 0.00 31 M M -5.4 100 -5.4 0 0 1011.7 NA 0.0000 9999 0 0 0 0
2019/07/13 09:10:00 BASE 0.00 31 M M -5.4 100 -5.4 0 0 1011.7 NA 0.0000 9999 0 0 0 0
2019/07/13 09:11:00 BASE 0.00 31 M M -5.5 100 -5.5 0 0 1011.7 NA 0.0000 9999 0 0 0 0
2019/07/13 09:12:00 BASE 0.00 31 M M -5.5 100 -5.5 0 0 1011.7 NA 0.0000 9999 0 0 0 0
2019/07/13 09:13:00 BASE 0.00 38 M M -5.5 100 -5.5 0 0 1011.7 NA 0.0000 9999 0 0 0 0
2019/07/13 09:14:00 BASE 0.00 54 M M -5.5 100 -5.5 0 0 1011.7 NA 0.0000 9999 0 0 0 0
2019/07/13 09:15:00 BASE 0.00 73 M M -5.5 100 -5.5 0 0 1011.7 NA 0.0000 9999 0 0 0 0
2019/07/13 09:16:00 BASE 0.00 86 M M -5.5 100 -5.5 0 0 1011.7 NA 0.0000 9999 0 0 0 0
2019/07/13 09:17:00 BASE 0.00 91 M M -5.4 100 -5.4 0 0 1011.7 NA 0.0000 9999 0 0 0 0
2019/07/13 09:18:00 BASE 0.00 91 M M -5.4 100 -5.4 0 0 1011.7 NA 0.0000 9999 0 0 0 0
2019/07/13 09:19:00 BASE 0.00 90 M M -5.3 100 -5.3 0 0 1011.7 NA 0.0000 9999 0 0 0 0
2019/07/13 09:20:00 BASE 0.00 84 M M -5.3 100 -5.3 0 0 1011.8 NA 0.0000 9999 0 0 0 0
2019/07/13 09:21:00 BASE 0.00 77 M M -5.3 100 -5.3 0 0 1011.9 NA 0.0000 9999 0 0 0 0
2019/07/13 09:22:00 BASE 0.00 75 M M -5.3 100 -5.3 0 0 1011.9 NA 0.0000 9999 0 0 0 0
2019/07/13 09:23:00 BASE 0.00 71 M M -5.3 100 -5.3 0 0 1011.9 NA 0.0000 9999 0 0 0 0
2019/07/13 09:24:00 BASE 0.00 61 M M -5.4 100 -5.4 0 0 1011.9 NA 0.0000 9999 0 0 0 0
2019/07/13 09:25:00 BASE 0.00 60 M M -5.4 100 -5.4 0 0 1011.9 NA 0.0000 9999 0 0 0 0
2019/07/13 09:26:00 BASE 0.00 61 M M -5.5 100 -5.5 0 0 1011.9 NA 0.0000 9999 0 0 0 0
2019/07/13 09:27:00 BASE 0.00 55 M M -5.5 100 -5.5 0 0 1011.9 NA 0.0000 9999 0 0 0 0
2019/07/13 09:28:00 BASE 0.00 50 M M -5.5 100 -5.5 0 0 1011.8 NA 0.0000 9999 0 0 0 0
2019/07/13 09:29:00 BASE 0.00 54 M M -5.5 100 -5.5 0 0 1011.7 NA 0.0000 9999 0 0 0 0
2019/07/13 09:30:00 BASE 0.00 60 M M -5.5 100 -5.5 0 0 1011.7 NA 0.0000 9999 0 0 0 0
2019/07/13 09:31:00 BASE 0.00 63 M M -5.5 100 -5.5 0 0 1011.7 NA 0.0000 9999 0 0 0 0
2019/07/13 09:32:00 BASE 0.00 62 M M -5.5 100 -5.5 0 0 1011.7 NA 0.0000 9999 0 0 0 0
2019/07/13 09:33:00 BASE 0.00 59 M M -5.5 100 -5.5 0 0 1011.7 NA 0.0000 9999 0 0 0 0
2019/07/13 09:34:00 BASE 0.00 55 M M -5.5 100 -5.5 0 0 1011.7 NA 0.0000 9999 0 0 0 0
2019/07/13 09:35:00 BASE 0.00 52 M M -5.5 100 -5.5 0 0 1011.7 NA 0.0000 9999 0 0 0 0
2019/07/13 09:36:00 BASE 0.00 53 M M -5.6 100 -5.6 0 0 1011.7 NA 0.0000 9999 0 0 0 0
2019/07/13 09:37:00 BASE 0.00 56 M M -5.6 100 -5.6 0 0 1011.7 NA 0.0000 9999 0 0 0 0
2019/07/13 09:38:00 BASE 0.00 59 M M -5.6 100 -5.6 0 0 1011.7 NA 0.0000 9999 0 0 0 0
2019/07/13 09:39:00 BASE 0.00 60 M M -5.6 100 -5.6 0 0 1011.7 NA 0.0000 9999 0 0 0 0
2019/07/13 09:40:00 BASE 0.00 62 M M -5.6 100 -5.6 0 0 1011.7 NA 0.0000 9999 0 0 0 0
2019/07/13 09:41:00 BASE 0.00 65 M M -5.6 100 -5.6 0 0 1011.7 NA 0.0000 9999 0 0 0 0
2019/07/13 09:42:00 BASE 0.00 66 M M -5.6 100 -5.6 0 0 1011.7 NA 0.0000 9999 0 0 0 0
2019/07/13 09:43:00 BASE 0.00 64 M M -5.6 100 -5.6 0 0 1011.7 NA 0.0000 9999 0 0 0 0
2019/07/13 09:44:00 BASE 0.00 60 M M -5.5 100 -5.5 0 0 1011.7 NA 0.0000 9999 0 0 0 0
2019/07/13 09:45:00 BASE 0.00 57 M M -5.5 100 -5.5 0 0 1011.8 NA 0.0000 9999 0 0 0 0
2019/07/13 09:46:00 BASE 0.00 55 M M -5.5 100 -5.5 0 0 1011.9 NA 0.0000 9999 0 0 0 0
2019/07/13 09:47:00 BASE 0.00 55 M M -5.5 100 -5.5 0 0 1011.9 NA 0.0000 9999 0 0 0 0
2019/07/13 09:48:00 BASE 0.00 56 M M -5.5 100 -5.5 0 0 1011.9 NA 0.0000 9999 0 0 0 0
2019/07/13 09:49:00 BASE 0.00 57 M M -5.5 100 -5.5 0 0 1011.9 NA 0.0000 9999 0 0 0 0
2019/07/13 09:50:00 BASE 0.00 57 M M -5.5 100 -5.5 0 0 1011.9 NA 0.0000 9999 0 0 0 0
2019/07/13 09:51:00 BASE 0.00 57 M M -5.5 100 -5.5 0 0 1011.9 NA 0.0000 9999 0 0 0 0
2019/07/13 09:52:00 BASE 0.00 57 M M -5.5 100 -5.5 0 0 1011.9 NA 0.0000 9999 0 0 0 0
2019/07/13 09:53:00 BASE 0.00 58 M M -5.6 100 -5.6 0 0 1011.9 NA 0.0000 9999 0 0 0 0
2019/07/13 09:54:00 BASE 0.00 60 M M -5.6 100 -5.6 0 0 1011.9 NA 0.0000 9999 0 0 0 0
2019/07/13 09:55:00 BASE 0.00 61 M M -5.5 100 -5.5 0 0 1011.9 NA 0.0000 9999 0 0 0 0
2019/07/13 09:56:00 BASE 0.00 60 M M -5.6 100 -5.6 0 0 1011.9 NA 0.0000 9999 0 0 0 0
2019/07/13 09:57:00 BASE 1.12 57 2.62 52 -5.6 100 -5.6 0 0 1011.9 NA 0.0000 9999 0 0 0 0
2019/07/13 09:58:00 BASE 2.32 54 2.62 52 -5.6 100 -5.6 0 0 1011.9 NA 0.0000 9999 0 0 0 0
2019/07/13 09:59:00 BASE 2.35 52 2.62 52 -5.7 100 -5.7 0 0 1011.9 NA 0.0000 9999 0 0 0 0
2019/07/13 10:00:00 BASE 2.33 49 2.62 52 -5.7 100 -5.7 0 0 1011.9 NA 0.0000 9999 0 0 0 0
2019/07/13 10:01:00 BASE 2.33 44 2.62 52 -5.8 100 -5.8 0 0 1011.9 NA 0.0000 9999 0 0 0 0
2019/07/13 10:02:00 BASE 2.24 39 2.62 52 -5.8 100 -5.8 0 0 1011.9 NA 0.0000 9999 0 0 0 0
2019/07/13 10:03:00 BASE 2.12 37 2.62 52 -5.8 100 -5.8 0 0 1011.9 NA 0.0000 9999 0 0 0 0
2019/07/13 10:04:00 BASE 2.11 35 2.62 52 -5.9 100 -5.9 0 0 1011.9 NA 0.0000 9999 0 0 0 0
2019/07/13 10:05:00 BASE 2.15 35 2.62 52 -5.9 100 -5.9 0 0 1011.9 NA 0.0000 9999 0 0 0 0
2019/07/13 10:06:00 BASE 2.16 36 2.62 52 -5.9 100 -5.9 0 0 1011.8 NA 0.0000 9999 0 0 0 0
2019/07/13 10:07:00 BASE 2.19 38 2.62 52 -5.9 100 -5.9 0 0 1011.7 NA 0.0000 9999 0 0 0 0
2019/07/13 10:08:00 BASE 2.18 39 2.52 47 -5.9 100 -5.9 0 0 1011.7 NA 0.0000 9999 0 0 0 0
2019/07/13 10:09:00 BASE 2.18 41 2.52 47 -5.9 100 -5.9 0 0 1011.7 NA 0.0000 9999 0 0 0 0
2019/07/13 10:10:00 BASE 2.20 40 2.37 44 -5.9 100 -5.9 0 0 1011.7 NA 0.0000 9999 0 0 0 0
2019/07/13 10:11:00 BASE 2.08 35 2.37 44 -5.9 100 -5.9 0 0 1011.7 NA 0.0000 9999 0 0 0 0
2019/07/13 10:12:00 BASE 1.97 32 2.37 44 -5.9 100 -5.9 0 0 1011.7 NA 0.0000 9999 0 0 0 0
2019/07/13 10:13:00 BASE 1.99 27 2.37 44 -6.0 100 -6.0 0 0 1011.7 NA 0.0000 9999 0 0 0 0
2019/07/13 10:14:00 BASE 2.03 23 2.37 44 -6.0 100 -6.0 0 0 1011.7 NA 0.0000 9999 0 0 0 0
2019/07/13 10:15:00 BASE 2.02 20 2.37 44 -6.0 100 -6.0 0 0 1011.7 NA 0.0000 9999 0 0 0 0
2019/07/13 10:16:00 BASE 2.06 21 2.37 44 -5.9 100 -5.9 0 0 1011.7 NA 0.0000 9999 0 0 0 0
2019/07/13 10:17:00 BASE 2.19 22 2.37 23 -5.9 100 -5.9 0 0 1011.7 NA 0.0000 9999 0 0 0 0
2019/07/13 10:18:00 BASE 2.26 23 2.37 23 -5.9 100 -5.9 0 0 1011.7 NA 0.0000 9999 0 0 0 0
2019/07/13 10:19:00 BASE 2.24 23 2.37 23 -5.8 100 -5.8 0 0 1011.7 NA 0.0000 9999 0 0 0 0
2019/07/13 10:20:00 BASE 2.25 23 2.42 23 -5.9 100 -5.9 0 0 1011.7 NA 0.0000 9999 0 0 0 0
2019/07/13 10:21:00 BASE 2.28 23 2.42 23 -5.9 100 -5.9 0 0 1011.7 NA 0.0000 9999 0 0 0 0
2019/07/13 10:22:00 BASE 2.25 29 2.42 31 -5.9 100 -5.9 0 0 1011.7 NA 0.0000 9999 0 0 0 0
2019/07/13 10:23:00 BASE 2.22 36 2.42 34 -5.9 100 -5.9 0 0 1011.7 NA 0.0000 9999 0 0 0 0
2019/07/13 10:24:00 BASE 2.20 41 2.52 52 -5.9 100 -5.9 0 0 1011.7 NA 0.0000 9999 0 0 0 0
2019/07/13 10:25:00 BASE 2.00 43 2.52 52 -5.9 100 -5.9 0 0 1011.7 NA 0.0000 9999 0 0 0 0
2019/07/13 10:26:00 BASE 1.70 40 2.52 52 -5.8 100 -5.8 0 0 1011.7 NA 0.0000 9999 0 0 0 0
2019/07/13 10:27:00 BASE 1.51 45 2.52 52 -5.7 100 -5.7 0 0 1011.7 NA 0.0000 9999 0 0 0 0
2019/07/13 10:28:00 BASE 1.39 54 2.52 52 -5.7 100 -5.7 0 0 1011.7 NA 0.0000 9999 0 0 0 0
2019/07/13 10:29:00 BASE 1.39 60 2.52 52 -5.7 100 -5.7 0 0 1011.7 NA 0.0000 9999 0 0 0 0
2019/07/13 10:30:00 BASE 1.27 69 2.52 52 -5.7 100 -5.7 0 0 1011.7 NA 0.0000 9999 0 0 0 0
2019/07/13 10:31:00 BASE 0.80 69 2.52 52 -5.6 100 -5.6 0 0 1011.8 NA 0.0000 9999 0 0 0 0
2019/07/13 10:32:00 BASE 0.24 65 2.52 52 -5.5 100 -5.5 0 0 1011.8 NA 0.0000 9999 0 0 0 0
2019/07/13 10:33:00 BASE 0.00 73 2.52 52 -5.4 100 -5.4 0 0 1011.9 NA 0.0000 9999 0 0 0 0
2019/07/13 10:34:00 BASE 0.14 67 1.95 35 -5.3 100 -5.3 0 0 1011.9 NA 0.0000 9999 0 0 0 0
2019/07/13 10:35:00 BASE 0.14 37 1.75 49 -5.2 100 -5.2 0 0 1011.8 NA 0.0000 9999 0 0 0 0
2019/07/13 10:36:00 BASE 0.00 12 1.65 80 -5.1 100 -5.1 0 0 1011.8 NA 0.0000 9999 0 0 0 0
2019/07/13 10:37:00 BASE 0.00 360 1.65 80 -5.1 100 -5.1 0 0 1011.8 NA 0.0000 9999 0 0 0 0
2019/07/13 10:38:00 BASE 0.57 340 1.65 80 -5.0 100 -5.0 0 0 1011.8 NA 0.0000 9999 0 0 0 0
2019/07/13 10:39:00 BASE 1.27 324 1.49 321 -5.0 100 -5.0 0 0 1011.8 NA 0.0000 9999 0 0 0 0
2019/07/13 10:40:00 BASE 1.33 331 1.49 321 -5.1 100 -5.1 0 0 1011.7 NA 0.0000 9999 0 0 0 0
2019/07/13 10:41:00 BASE 0.99 354 1.49 321 -5.1 100 -5.1 0 0 1011.8 NA 0.0000 9999 0 0 0 0
2019/07/13 10:42:00 BASE 0.97 16 1.49 321 -5.1 100 -5.1 0 0 1011.9 NA 0.0000 9999 0 0 0 0
2019/07/13 10:43:00 BASE 1.34 11 1.70 2 -5.1 100 -5.1 0 0 1011.8 NA 0.0000 9999 0 0 0 0
2019/07/13 10:44:00 BASE 1.18 349 1.70 2 -5.1 100 -5.1 0 0 1011.7 NA 0.0000 9999 0 0 0 0
2019/07/13 10:45:00 BASE 0.45 341 1.70 2 -5.2 100 -5.2 0 0 1011.7 NA 0.0000 9999 0 0 0 0
2019/07/13 10:46:00 BASE 0.00 347 1.70 2 -5.2 100 -5.2 0 0 1011.7 NA 0.0000 9999 0 0 0 0
2019/07/13 10:47:00 BASE 0.32 349 1.70 2 -5.2 100 -5.2 0 0 1011.7 NA 0.0000 9999 0 0 0 0
2019/07/13 10:48:00 BASE 0.87 348 1.70 2 -5.2 100 -5.2 0 0 1011.7 NA 0.0000 9999 0 0 0 0
2019/07/13 10:49:01 BASE 0.81 347 1.70 2 -5.2 100 -5.2 0 0 1011.7 NA 0.0000 9999 0 0 0 0
2019/07/13 10:50:00 BASE 0.39 348 1.70 2 -5.2 100 -5.2 0 0 1011.7 NA 0.0000 9999 0 0 0 0
2019/07/13 10:51:00 BASE 0.43 348 1.70 2 -5.2 100 -5.2 0 0 1011.7 NA 0.0000 9999 0 0 0 0
2019/07/13 10:52:00 BASE 0.29 346 1.70 2 -5.3 100 -5.3 0 0 1011.7 NA 0.0000 9999 0 0 0 0
2019/07/13 10:53:00 BASE 0.48 345 1.44 348 -5.3 100 -5.3 0 0 1011.7 NA 0.0000 9999 0 0 0 0
2019/07/13 10:54:00 BASE 1.06 347 1.29 354 -5.3 100 -5.3 0 0 1011.7 NA 0.0000 9999 0 0 0 0
2019/07/13 10:55:00 BASE 1.23 354 1.39 350 -5.3 100 -5.3 0 0 1011.7 NA 0.0000 9999 0 0 0 0
2019/07/13 10:56:00 BASE 1.35 3 1.59 6 -5.3 100 -5.3 0 0 1011.7 NA 0.0000 9999 0 0 0 0
2019/07/13 10:57:00 BASE 1.43 10 1.59 6 -5.3 100 -5.3 0 0 1011.7 NA 0.0000 9999 0 0 0 0
2019/07/13 10:58:00 BASE 1.45 16 1.65 15 -5.3 100 -5.3 0 0 1011.7 NA 0.0000 9999 0 0 0 0
2019/07/13 10:59:00 BASE 1.40 23 1.65 15 -5.3 100 -5.3 0 0 1011.9 NA 0.0000 9999 0 0 0 0
2019/07/13 11:00:00 BASE 1.41 31 1.75 43 -5.3 100 -5.4 0 0 1011.9 NA 0.0000 9999 0 0 0 0
2019/07/13 11:01:00 BASE 1.53 36 1.95 42 -5.4 100 -5.4 0 0 1011.9 NA 0.0000 9999 0 0 0 0
2019/07/13 11:02:00 BASE 1.49 38 1.95 42 -5.4 100 -5.4 0 0 1011.9 NA 0.0000 9999 0 0 0 0
2019/07/13 11:03:00 BASE 1.31 40 1.95 42 -5.4 100 -5.4 0 0 1011.9 NA 0.0000 9999 0 0 0 0
2019/07/13 11:04:00 BASE 1.27 41 1.95 42 -5.4 100 -5.4 0 0 1011.9 NA 0.0000 9999 0 0 0 0
2019/07/13 11:05:00 BASE 1.24 40 1.95 42 -5.4 100 -5.4 0 0 1011.9 NA 0.0000 9999 0 0 0 0
2019/07/13 11:06:00 BASE 0.78 39 1.95 42 -5.4 100 -5.4 0 0 1011.9 NA 0.0000 9999 0 0 0 0
2019/07/13 11:07:00 BASE 0.50 32 1.95 42 -5.3 100 -5.3 0 0 1011.9 NA 0.0000 9999 0 0 0 0
2019/07/13 11:08:00 BASE 1.08 33 1.95 42 -5.3 100 -5.3 0 0 1011.9 NA 0.0000 9999 0 0 0 0
2019/07/13 11:09:00 BASE 1.52 40 1.95 42 -5.3 100 -5.3 0 0 1011.9 NA 0.0000 9999 0 0 0 0
2019/07/13 11:10:00 BASE 1.64 40 2.01 43 -5.3 100 -5.3 0 0 1011.9 NA 0.0000 9999 0 0 0 0
2019/07/13 11:11:00 BASE 1.83 42 2.06 50 -5.4 100 -5.4 0 0 1011.9 NA 0.0000 9999 0 0 0 0
2019/07/13 11:12:00 BASE 1.96 43 2.11 43 -5.4 100 -5.4 0 0 1011.9 NA 0.0000 9999 0 0 0 0
2019/07/13 11:13:00 BASE 1.89 44 2.11 43 -5.5 100 -5.5 0 0 1011.9 NA 0.0000 9999 0 0 0 0
2019/07/13 11:14:00 BASE 1.95 47 2.31 56 -5.5 100 -5.5 0 0 1011.9 NA 0.0000 9999 0 0 0 0
2019/07/13 11:15:00 BASE 2.22 54 2.42 54 -5.6 100 -5.6 0 0 1011.9 NA 0.0000 9999 0 0 0 0
2019/07/13 11:16:00 BASE 2.24 59 2.42 54 -5.6 100 -5.6 0 0 1011.9 NA 0.0000 9999 0 0 0 0
2019/07/13 11:17:00 BASE 2.26 62 2.62 67 -5.6 100 -5.6 0 0 1011.9 NA 0.0000 9999 0 0 0 0
2019/07/13 11:18:00 BASE 2.35 66 2.62 67 -5.6 100 -5.6 0 0 1011.9 NA 0.0000 9999 0 0 0 0
2019/07/13 11:19:00 BASE 2.56 69 3.09 74 -5.5 100 -5.5 0 0 1011.8 NA 0.0000 9999 0 0 0 0
2019/07/13 11:20:00 BASE 2.91 71 3.29 76 -5.5 100 -5.5 0 0 1011.7 NA 0.0000 9999 0 0 0 0
2019/07/13 11:21:00 BASE 2.84 70 3.29 76 -5.5 100 -5.5 0 0 1011.7 NA 0.0000 9999 0 0 0 0
2019/07/13 11:22:00 BASE 2.72 69 3.29 76 -5.5 100 -5.5 0 0 1011.7 NA 0.0000 9999 0 0 0 0
2019/07/13 11:23:00 BASE 2.92 69 3.29 76 -5.5 100 -5.5 0 0 1011.7 NA 0.0000 9999 0 0 0 0
2019/07/13 11:24:00 BASE 2.96 68 3.29 76 -5.5 100 -5.5 0 0 1011.7 NA 0.0000 9999 0 0 0 0
2019/07/13 11:25:00 BASE 2.58 67 3.29 76 -5.4 100 -5.4 0 0 1011.7 NA 0.0000 9999 0 0 0 0
2019/07/13 11:26:00 BASE 2.31 68 3.29 76 -5.4 100 -5.4 0 0 1011.6 NA 0.0000 9999 0 0 0 0
2019/07/13 11:27:00 BASE 2.32 67 3.29 76 -5.4 100 -5.4 0 0 1011.7 NA 0.0000 9999 0 0 0 0
2019/07/13 11:28:00 BASE 2.19 68 3.29 76 -5.4 100 -5.4 0 0 1011.7 NA 0.0000 9999 0 0 0 0
2019/07/13 11:29:00 BASE 2.17 68 3.29 76 -5.4 100 -5.4 0 0 1011.7 NA 0.0000 9999 0 0 0 0
2019/07/13 11:30:00 BASE 2.37 68 3.24 64 -5.4 100 -5.4 0 0 1011.7 NA 0.0000 9999 0 0 0 0
2019/07/13 11:31:00 BASE 2.37 69 3.24 64 -5.4 100 -5.4 0 0 1011.7 NA 0.0000 9999 0 0 0 0
2019/07/13 11:32:00 BASE 2.07 70 3.24 64 -5.3 100 -5.3 0 0 1011.7 NA 0.0000 9999 0 0 0 0
2019/07/13 11:33:00 BASE 1.73 72 3.09 68 -5.3 100 -5.3 0 0 1011.7 NA 0.0000 9999 0 0 0 0
2019/07/13 11:34:00 BASE 1.41 72 2.68 66 -5.3 100 -5.3 0 0 1011.7 NA 0.0000 9999 0 0 0 0
2019/07/13 11:35:00 BASE 0.66 73 2.68 66 -5.2 100 -5.2 0 0 1011.7 NA 0.0000 9999 0 0 0 0
2019/07/13 11:36:00 BASE 0.04 75 2.62 73 -5.2 100 -5.2 0 0 1011.7 NA 0.0000 9999 0 0 0 0
2019/07/13 11:37:00 BASE 0.15 73 2.62 73 -5.1 100 -5.1 0 0 1011.7 NA 0.0000 9999 0 0 0 0
2019/07/13 11:38:00 BASE 0.86 68 2.62 73 -5.1 100 -5.1 0 0 1011.7 NA 0.0000 9999 0 0 0 0
2019/07/13 11:39:00 BASE 1.54 64 2.62 73 -5.0 100 -5.0 0 0 1011.7 NA 0.0000 9999 0 0 0 0
2019/07/13 11:40:00 BASE 1.68 63 2.62 73 -5.0 100 -5.0 0 0 1011.7 NA 0.0000 9999 0 0 0 0
2019/07/13 11:41:00 BASE 1.79 60 2.06 61 -5.0 100 -5.0 0 0 1011.6 NA 0.0000 9999 0 0 0 0
2019/07/13 11:42:00 BASE 1.79 53 2.06 61 -5.0 100 -5.0 0 0 1011.6 NA 0.0000 9999 0 0 0 0
2019/07/13 11:43:00 BASE 1.56 47 2.06 61 -5.0 100 -5.0 0 0 1011.6 NA 0.0000 9999 0 0 0 0
2019/07/13 11:44:01 BASE 1.57 47 2.06 61 -5.0 100 -5.0 0 0 1011.6 NA 0.0000 9999 0 0 0 0
2019/07/13 11:45:00 BASE 1.64 43 2.06 61 -5.0 100 -5.0 0 0 1011.6 NA 0.0000 9999 0 0 0 0
2019/07/13 11:46:00 BASE 1.52 31 2.06 61 -5.0 100 -5.0 0 0 1011.6 NA 0.0000 9999 0 0 0 0
2019/07/13 11:47:00 BASE 1.31 24 2.06 61 -5.0 100 -5.0 0 0 1011.6 NA 0.0000 9999 0 0 0 0
2019/07/13 11:48:00 BASE 0.87 27 2.06 61 -5.1 100 -5.1 0 0 1011.6 NA 0.0000 9999 0 0 0 0
2019/07/13 11:49:00 BASE 0.29 36 2.06 61 -5.1 100 -5.1 0 0 1011.6 NA 0.0000 9999 0 0 0 0
2019/07/13 11:50:00 BASE 0.00 40 2.01 56 -5.1 100 -5.1 0 0 1011.6 NA 0.0000 9999 0 0 0 0
2019/07/13 11:51:00 BASE 0.00 32 1.95 52 -5.1 100 -5.1 0 0 1011.7 NA 0.0000 9999 0 0 0 0
2019/07/13 11:52:00 BASE 0.00 25 1.85 30 -5.0 100 -5.0 0 0 1011.7 NA 0.0000 9999 0 0 0 0
2019/07/13 11:53:00 BASE 0.00 32 1.85 30 -5.0 100 -5.0 0 0 1011.7 NA 0.0000 9999 0 0 0 0
2019/07/13 11:54:00 BASE 0.00 41 1.85 30 -5.0 100 -5.0 0 0 1011.7 NA 0.0000 9999 0 0 0 0
2019/07/13 11:55:00 BASE 0.00 42 1.59 38 -5.0 100 -5.0 0 0 1011.7 NA 0.0000 9999 0 0 0 0
2019/07/13 11:56:00 BASE 0.00 48 1.59 38 -5.0 100 -5.0 0 0 1011.7 NA 0.0000 9999 0 0 0 0
2019/07/13 11:57:00 BASE 0.00 73 1.59 38 -5.0 100 -5.0 0 0 1011.7 NA 0.0000 9999 0 0 0 0
2019/07/13 11:58:00 BASE 0.00 77 M M -5.0 100 -5.0 0 0 1011.7 NA 0.0000 9999 0 0 0 0
2019/07/13 11:59:00 BASE 0.00 62 M M -5.0 100 -5.0 0 0 1011.7 NA 0.0000 9999 0 0 0 0
2019/07/13 12:00:00 BASE 0.00 62 M M -5.0 100 -5.0 0 0 1011.7 NA 0.0000 9999 0 0 0 0
2019/07/13 12:01:00 BASE 0.00 63 M M -5.0 100 -5.0 0 0 1011.7 NA 0.0000 9999 0 0 0 0
2019/07/13 12:02:00 BASE 0.00 64 M M -5.0 100 -5.0 0 0 1011.7 NA 0.0000 9999 0 0 0 0
2019/07/13 12:03:00 BASE 0.00 64 M M -5.0 100 -5.0 0 0 1011.7 NA 0.0000 9999 0 0 0 0
2019/07/13 12:04:00 BASE 0.00 64 M M -5.0 100 -5.0 0 0 1011.7 NA 0.0000 9999 0 0 0 0
2019/07/13 12:05:00 BASE 0.00 64 M M -5.0 100 -5.0 0 0 1011.5 NA 0.0000 9999 0 0 0 0
2019/07/13 12:06:00 BASE 0.00 64 M M -5.0 100 -5.0 0 0 1011.7 NA 0.0000 9999 0 0 0 0
2019/07/13 12:07:00 BASE 0.00 64 M M -5.0 100 -5.0 0 0 1011.7 NA 0.0000 9999 0 0 0 0
2019/07/13 12:08:00 BASE 0.00 72 M M -5.0 100 -5.0 0 0 1011.6 NA 0.0000 9999 0 0 0 0
2019/07/13 12:09:00 BASE 0.00 90 M M -5.0 100 -5.0 0 0 1011.3 NA 0.0000 9999 0 0 0 0
2019/07/13 12:10:00 BASE 0.00 93 M M -5.0 100 -5.0 0 0 1011.6 NA 0.0000 9999 0 0 0 0
2019/07/13 12:11:00 BASE 0.00 99 M M -5.0 100 -5.0 0 0 1011.5 NA 0.0000 9999 0 0 0 0
2019/07/13 12:12:00 BASE 0.00 110 M M -5.0 100 -5.0 0 0 1011.6 NA 0.0000 9999 0 0 0 0
2019/07/13 12:13:00 BASE 0.00 112 M M -5.0 100 -5.0 0 0 1011.6 NA 0.0000 9999 0 0 0 0
2019/07/13 12:14:00 BASE 0.00 115 M M -5.1 100 -5.1 0 0 1011.6 NA 0.0000 9999 0 0 0 0
2019/07/13 12:15:00 BASE 0.00 117 M M -5.1 100 -5.1 0 0 1011.6 NA 0.0000 9999 0 0 0 0
2019/07/13 12:16:00 BASE 0.00 127 M M -5.1 100 -5.1 0 0 1011.6 NA 0.0000 9999 0 0 0 0
2019/07/13 12:17:00 BASE 0.00 136 M M -5.2 100 -5.2 0 0 1011.6 NA 0.0000 9999 0 0 0 890
2019/07/13 12:18:00 BASE 0.00 126 M M -5.2 100 -5.2 0 0 1011.6 NA 0.0000 9999 720 0 0 0
2019/07/13 12:19:00 BASE 0.00 106 M M -5.2 100 -5.2 0 0 1011.7 NA 0.0000 9999 720 0 0 0
2019/07/13 12:20:00 BASE 0.00 101 M M -5.2 100 -5.2 0 0 1011.6 NA 0.0000 9999 690 0 0 0
2019/07/13 12:21:00 BASE 0.00 98 M M -5.1 100 -5.1 0 0 1011.7 NA 0.0000 9999 720 0 0 0
2019/07/13 12:22:00 BASE 0.00 87 M M -5.1 100 -5.1 0 0 1011.7 NA 0.0000 9999 690 0 0 0
2019/07/13 12:23:00 BASE 0.00 84 M M -5.1 100 -5.1 0 0 1011.6 NA 0.0000 9999 620 0 0 0
2019/07/13 12:24:00 BASE 0.00 85 M M -5.1 100 -5.1 0 0 1011.6 NA 0.0000 9999 620 0 0 0
2019/07/13 12:25:00 BASE 0.00 89 M M -5.1 100 -5.1 0 0 1011.6 NA 0.0000 9999 590 0 0 0
2019/07/13 12:26:00 BASE 0.00 98 M M -5.1 100 -5.1 0 0 1011.6 NA 0.0000 9999 620 0 0 0
2019/07/13 12:27:00 BASE 0.00 98 M M -5.1 100 -5.1 0 0 1011.6 NA 0.0000 9999 590 0 0 0
2019/07/13 12:28:00 BASE 0.00 90 M M -5.1 100 -5.1 0 0 1011.6 NA 0.0000 9999 660 0 0 0
2019/07/13 12:29:00 BASE 0.00 78 M M -5.1 100 -5.1 0 0 1011.7 NA 0.0000 9999 690 0 0 0
2019/07/13 12:30:00 BASE 0.99 66 2.52 59 -5.1 100 -5.1 0 0 1011.7 NA 0.0000 9999 690 0 0 0
2019/07/13 12:31:00 BASE 2.00 60 2.52 59 -5.2 100 -5.2 0 0 1011.7 NA 0.0000 9999 690 0 0 0
2019/07/13 12:32:00 BASE 1.90 60 2.52 59 -5.3 100 -5.3 0 0 1011.6 NA 0.0000 9999 690 0 0 0
2019/07/13 12:33:00 BASE 1.88 60 2.52 59 -5.4 100 -5.4 0 0 1011.6 NA 0.0000 9999 690 0 0 0
2019/07/13 12:34:00 BASE 2.18 59 2.62 54 -5.5 100 -5.5 0 0 1011.6 NA 0.0000 9999 720 0 0 0
2019/07/13 12:35:00 BASE 2.33 56 2.62 54 -5.6 100 -5.6 0 0 1011.6 NA 0.0000 9999 690 0 0 0
2019/07/13 12:36:00 BASE 2.11 57 2.62 54 -5.6 100 -5.6 0 0 1011.6 NA 0.0000 9999 690 0 0 0
2019/07/13 12:37:00 BASE 2.16 58 2.62 54 -5.6 100 -5.6 0 0 1011.6 NA 0.0000 9999 690 0 0 0
2019/07/13 12:38:00 BASE 2.26 61 2.62 54 -5.6 100 -5.6 0 0 1011.7 NA 0.0000 9999 620 0 0 0
2019/07/13 12:39:00 BASE 2.25 59 2.62 57 -5.6 100 -5.6 0 0 1011.7 NA 0.0000 9999 590 0 0 0
2019/07/13 12:40:00 BASE 2.27 53 2.62 57 -5.6 100 -5.6 0 0 1011.6 NA 0.0000 9999 620 0 0 0
2019/07/13 12:41:00 BASE 2.33 51 2.62 57 -5.6 100 -5.6 0 0 1011.7 NA 0.0000 9999 590 0 0 0
2019/07/13 12:42:00 BASE 2.41 48 2.62 57 -5.6 100 -5.6 0 0 1011.7 NA 0.0000 9999 490 0 0 0
2019/07/13 12:43:00 BASE 2.48 42 2.68 33 -5.6 100 -5.6 0 0 1011.7 NA 0.0000 9999 490 0 0 0
2019/07/13 12:44:00 BASE 2.67 35 2.93 35 -5.6 100 -5.6 0 0 1011.7 NA 0.0000 9999 620 0 0 0
2019/07/13 12:45:00 BASE 2.81 34 2.98 35 -5.6 100 -5.6 0 0 1011.7 NA 0.0000 9999 560 0 0 0
2019/07/13 12:46:00 BASE 2.92 32 3.09 32 -5.6 100 -5.6 0 0 1011.7 NA 0.0000 9999 390 0 0 0
2019/07/13 12:47:00 BASE 2.90 27 3.09 31 -5.6 100 -5.6 0 0 1011.7 NA 0.0000 9999 430 0 0 0
2019/07/13 12:48:00 BASE 2.75 25 3.09 31 -5.6 100 -5.6 0 0 1011.7 NA 0.0000 9999 460 0 0 0
2019/07/13 12:49:00 BASE 2.62 32 3.09 31 -5.6 100 -5.6 0 0 1011.7 NA 0.0000 9999 360 0 0 0
2019/07/13 12:50:00 BASE 2.56 40 3.09 31 -5.6 100 -5.6 0 0 1011.7 NA 0.0000 9999 560 0 0 0
2019/07/13 12:51:00 BASE 2.46 45 3.09 31 -5.6 100 -5.6 0 0 1011.7 NA 0.0000 9999 590 0 0 0
2019/07/13 12:52:00 BASE 2.21 40 3.09 31 -5.7 100 -5.7 0 0 1011.7 NA 0.0000 9999 520 0 0 0
2019/07/13 12:53:00 BASE 1.97 35 3.09 31 -5.7 100 -5.7 0 0 1011.7 NA 0.0000 9999 460 0 0 0
2019/07/13 12:54:00 BASE 1.88 34 3.09 31 -5.7 100 -5.7 0 0 1011.7 NA 0.0000 9999 490 0 0 0
2019/07/13 12:55:00 BASE 1.96 31 3.09 31 -5.7 100 -5.7 0 0 1011.7 NA 0.0000 9999 560 0 0 0
2019/07/13 12:56:00 BASE 2.09 31 3.09 31 -5.7 100 -5.7 0 0 1011.7 NA 0.0000 9999 520 0 0 0
2019/07/13 12:57:00 BASE 2.11 33 2.83 28 -5.8 100 -5.8 0 0 1011.6 NA 0.0000 9999 520 0 0 0
2019/07/13 12:58:00 BASE 2.12 37 2.78 38 -5.8 100 -5.8 0 0 1011.6 NA 0.0000 9999 520 0 0 0
2019/07/13 12:59:00 BASE 2.35 40 2.83 46 -5.8 100 -5.8 0 0 1011.6 NA 0.0000 9999 520 0 0 0
2019/07/13 13:00:00 BASE 2.36 44 2.83 46 -5.8 100 -5.8 0 0 1011.6 NA 0.0000 9999 590 0 0 0
2019/07/13 13:01:00 BASE 2.10 48 2.83 46 -5.7 100 -5.7 0 0 1011.6 NA 0.0000 9999 520 0 0 0
2019/07/13 13:02:00 BASE 2.00 43 2.83 46 -5.7 100 -5.7 0 0 1011.6 NA 0.0000 9999 430 0 0 0
2019/07/13 13:03:00 BASE 2.03 36 2.83 46 -5.7 100 -5.7 0 0 1011.6 NA 0.0000 9999 390 0 0 0
2019/07/13 13:04:00 BASE 2.20 32 2.83 46 -5.6 100 -5.6 0 0 1011.6 NA 0.0000 9999 390 0 0 0
2019/07/13 13:05:00 BASE 2.27 28 2.83 46 -5.7 100 -5.7 0 0 1011.6 NA 0.0000 9999 390 0 0 0
2019/07/13 13:06:00 BASE 2.28 23 2.83 46 -5.7 100 -5.7 1 0 1011.6 NA 0.0000 9999 430 0 0 0
2019/07/13 13:07:00 BASE 2.24 19 2.83 46 -5.7 100 -5.7 1 0 1011.6 NA 0.0000 9999 490 0 0 0
2019/07/13 13:08:00 BASE 2.10 21 2.83 46 -5.7 100 -5.7 1 0 1011.6 NA 0.0000 9999 520 0 0 0
2019/07/13 13:09:00 BASE 2.07 24 2.57 29 -5.7 100 -5.7 1 0 1011.6 NA 0.0000 9999 0 0 0 520
2019/07/13 13:10:00 BASE 2.07 27 2.57 29 -5.8 100 -5.8 1 0 1011.6 NA 0.0000 9999 520 0 0 0
2019/07/13 13:11:00 BASE 2.06 33 2.57 29 -5.8 100 -5.8 1 0 1011.6 NA 0.0000 9999 520 0 0 0
2019/07/13 13:12:00 BASE 2.07 42 2.57 29 -5.8 100 -5.8 1 0 1011.6 NA 0.0000 9999 560 0 0 0
2019/07/13 13:13:00 BASE 2.23 49 2.73 33 -5.8 100 -5.8 1 0 1011.6 NA 0.0000 9999 430 0 0 0
2019/07/13 13:14:00 BASE 2.42 46 2.83 41 -5.8 100 -5.8 1 0 1011.6 NA 0.0000 9999 0 0 0 560
2019/07/13 13:15:00 BASE 2.39 37 2.83 41 -5.8 100 -5.8 1 0 1011.7 NA 0.0000 9999 0 0 0 460
2019/07/13 13:16:00 BASE 2.24 38 2.83 41 -5.8 100 -5.8 1 0 1011.7 NA 0.0000 9999 0 0 0 330
2019/07/13 13:17:00 BASE 2.17 41 2.83 41 -5.8 100 -5.8 1 0 1011.7 NA 0.0000 9999 0 0 0 0
2019/07/13 13:18:00 BASE 2.05 39 2.83 41 -5.8 100 -5.8 1 0 1011.7 NA 0.0000 9999 0 0 0 0
2019/07/13 13:19:00 BASE 2.07 42 2.83 41 -5.8 100 -5.8 1 0 1011.7 NA 0.0000 9999 0 0 0 0
2019/07/13 13:20:00 BASE 2.15 38 2.83 41 -5.7 100 -5.7 1 0 1011.7 NA 0.0000 9999 0 0 0 0
2019/07/13 13:21:00 BASE 2.07 30 2.83 41 -5.7 100 -5.7 1 0 1011.7 NA 0.0000 9999 0 0 0 0
2019/07/13 13:22:00 BASE 2.01 31 2.83 41 -5.7 100 -5.7 1 0 1011.6 NA 0.0000 9999 0 0 0 0
2019/07/13 13:23:00 BASE 2.05 34 2.83 41 -5.7 100 -5.7 2 0 1011.7 NA 0.0000 9999 0 0 0 0
2019/07/13 13:24:00 BASE 2.31 36 2.68 36 -5.7 100 -5.7 2 0 1011.6 NA 0.0000 9999 0 0 0 0
2019/07/13 13:25:00 BASE 2.48 37 2.68 33 -5.7 100 -5.7 2 0 1011.7 NA 0.0000 9999 0 0 0 0
2019/07/13 13:26:00 BASE 2.56 37 2.83 42 -5.8 100 -5.8 2 0 1011.7 NA 0.0000 9999 0 0 0 0
2019/07/13 13:27:00 BASE 2.81 42 3.19 49 -5.8 100 -5.8 2 0 1011.6 NA 0.0000 9999 0 0 0 130
2019/07/13 13:28:00 BASE 2.84 46 3.19 49 -5.9 100 -5.9 2 0 1011.6 NA 0.0000 9999 0 0 0 100
2019/07/13 13:29:00 BASE 2.60 43 3.19 49 -5.9 100 -5.9 2 0 1011.6 NA 0.0000 9999 0 0 0 0
2019/07/13 13:30:00 BASE 2.51 38 3.19 49 -6.0 100 -6.0 2 0 1011.6 NA 0.0000 9999 0 0 0 0
2019/07/13 13:31:00 BASE 2.56 38 3.19 49 -6.0 100 -6.0 2 0 1011.6 NA 0.0000 9999 0 0 0 0
2019/07/13 13:32:00 BASE 2.62 41 3.19 49 -6.0 100 -6.0 2 0 1011.6 NA 0.0000 9999 0 0 0 0
2019/07/13 13:33:00 BASE 2.65 44 3.19 49 -6.0 100 -6.0 2 0 1011.6 NA 0.0000 9999 0 0 0 0
2019/07/13 13:34:00 BASE 2.56 49 3.19 49 -6.0 100 -6.0 2 0 1011.6 NA 0.0000 9999 0 0 0 0
2019/07/13 13:35:00 BASE 2.34 51 3.19 49 -5.9 100 -5.9 2 0 1011.6 NA 0.0000 9999 0 0 0 0
2019/07/13 13:36:00 BASE 2.12 47 3.19 49 -5.9 100 -5.9 3 0 1011.6 NA 0.0000 9999 0 0 0 0
2019/07/13 13:37:00 BASE 2.08 44 3.04 48 -5.9 100 -5.9 3 0 1011.6 NA 0.0000 9999 0 0 0 0
2019/07/13 13:38:00 BASE 2.11 45 2.88 42 -5.8 100 -5.8 3 0 1011.6 NA 0.0000 9999 0 0 0 0
2019/07/13 13:39:00 BASE 1.92 44 2.88 42 -5.8 100 -5.8 3 0 1011.6 NA 0.0000 9999 0 0 0 0
2019/07/13 13:40:00 BASE 1.71 41 2.88 42 -5.8 100 -5.8 3 0 1011.6 NA 0.0000 9999 0 0 0 0
2019/07/13 13:41:00 BASE 1.59 40 2.88 42 -5.7 100 -5.7 3 0 1011.6 NA 0.0000 9999 0 0 0 0
2019/07/13 13:42:00 BASE 1.53 40 2.88 42 -5.7 100 -5.7 3 0 1011.6 NA 0.0000 9999 0 0 0 0
2019/07/13 13:43:00 BASE 1.49 40 2.62 48 -5.7 100 -5.7 3 0 1011.7 NA 0.0000 9999 0 0 0 0
2019/07/13 13:44:00 BASE 1.41 40 2.37 51 -5.6 100 -5.6 3 0 1011.6 NA 0.0000 9999 0 0 0 0
2019/07/13 13:45:00 BASE 1.35 37 2.21 46 -5.6 100 -5.6 3 0 1011.7 NA 0.0000 9999 0 0 0 0
2019/07/13 13:46:00 BASE 1.33 31 2.21 46 -5.6 100 -5.6 3 0 1011.6 NA 0.0000 9999 0 0 0 0
2019/07/13 13:47:00 BASE 1.00 25 2.21 46 -5.6 100 -5.6 3 0 1011.6 NA 0.0000 9999 0 0 0 0
2019/07/13 13:48:00 BASE 0.34 21 1.85 36 -5.6 100 -5.6 3 0 1011.6 NA 0.0000 9999 0 0 0 0
2019/07/13 13:49:00 BASE 0.00 22 1.75 40 -5.5 100 -5.5 4 0 1011.6 NA 0.0000 9999 0 0 0 0
2019/07/13 13:50:00 BASE 0.46 22 1.54 40 -5.5 100 -5.5 4 0 1011.6 NA 0.0000 9999 0 0 0 0
2019/07/13 13:51:00 BASE 0.93 25 1.54 40 -5.5 100 -5.5 4 0 1011.6 NA 0.0000 9999 15980 0 0 0
2019/07/13 13:52:00 BASE 1.03 25 1.54 40 -5.5 100 -5.5 4 0 1011.6 NA 0.0000 9999 15910 0 0 0
2019/07/13 13:53:00 BASE 1.15 23 1.44 34 -5.5 100 -5.5 4 0 1011.6 NA 0.0000 9999 15780 0 0 0
2019/07/13 13:54:00 BASE 0.92 20 1.44 34 -5.5 100 -5.5 4 0 1011.6 NA 0.0000 9999 15620 0 0 0
2019/07/13 13:55:00 BASE 0.76 22 1.39 29 -5.5 100 -5.5 4 0 1011.6 NA 0.0000 9999 15550 0 0 0
2019/07/13 13:56:00 BASE 1.01 28 1.29 28 -5.5 100 -5.5 5 0 1011.6 NA 0.0000 9999 15550 0 0 0
2019/07/13 13:57:00 BASE 1.22 32 1.39 35 -5.5 100 -5.5 5 0 1011.6 NA 0.0000 9999 0 0 0 0
2019/07/13 13:58:00 BASE 1.27 36 1.39 35 -5.5 100 -5.5 5 0 1011.6 NA 0.0000 9999 0 0 0 0
2019/07/13 13:59:00 BASE 1.25 36 1.39 35 -5.5 100 -5.5 5 0 1011.6 NA 0.0000 9999 0 0 0 0
2019/07/13 14:00:00 BASE 1.22 33 1.39 35 -5.5 100 -5.5 5 0 1011.6 NA 0.0000 9999 0 0 0 0
2019/07/13 14:01:00 BASE 1.17 30 1.39 35 -5.5 100 -5.5 6 0 1011.6 NA 0.0000 9999 0 0 0 0
2019/07/13 14:02:00 BASE 1.13 29 1.39 35 -5.5 100 -5.5 6 0 1011.6 NA 0.0000 9999 0 0 0 0
2019/07/13 14:03:00 BASE 1.15 31 1.39 35 -5.5 100 -5.5 6 0 1011.6 NA 0.0000 9999 0 0 0 0
2019/07/13 14:04:00 BASE 1.18 35 1.39 35 -5.5 100 -5.5 6 0 1011.6 NA 0.0000 9999 0 0 0 0
2019/07/13 14:05:00 BASE 1.00 37 1.39 35 -5.5 100 -5.5 7 0 1011.6 NA 0.0000 9999 0 0 0 0
2019/07/13 14:06:00 BASE 0.92 39 1.39 35 -5.4 100 -5.4 7 0 1011.6 NA 0.0000 9999 0 0 0 0
2019/07/13 14:07:00 BASE 1.03 40 1.34 41 -5.4 100 -5.4 7 0 1011.6 NA 0.0000 9999 0 0 0 0
2019/07/13 14:08:00 BASE 1.09 38 1.29 31 -5.4 100 -5.4 8 0 1011.5 NA 0.0000 9999 0 0 0 0
2019/07/13 14:09:00 BASE 0.95 35 1.29 31 -5.4 100 -5.4 8 0 1011.5 NA 0.0000 9999 0 0 0 0
2019/07/13 14:10:00 BASE 0.40 34 1.29 31 -5.4 100 -5.4 9 0 1011.5 NA 0.0000 9999 0 0 0 0
2019/07/13 14:11:00 BASE 0.00 34 1.29 31 -5.4 100 -5.4 9 0 1011.5 NA 0.0000 9999 0 0 0 0
2019/07/13 14:12:00 BASE 0.45 34 1.29 31 -5.4 100 -5.4 9 0 1011.6 NA 0.0000 9999 0 0 0 0
2019/07/13 14:13:00 BASE 1.08 29 1.39 21 -5.5 100 -5.5 10 0 1011.6 NA 0.0000 9999 0 0 0 0
2019/07/13 14:14:00 BASE 1.32 21 1.44 18 -5.5 100 -5.5 10 0 1011.6 NA 0.0000 9999 0 0 0 0
2019/07/13 14:15:00 BASE 1.40 17 1.49 14 -5.5 100 -5.5 10 0 1011.6 NA 0.0000 9999 0 0 0 300
2019/07/13 14:16:00 BASE 1.38 16 1.54 14 -5.5 100 -5.5 10 0 1011.6 NA 0.0000 9999 0 0 0 0
2019/07/13 14:17:00 BASE 1.23 23 1.54 14 -5.5 100 -5.5 11 0 1011.6 NA 0.0000 9999 0 0 0 0
2019/07/13 14:18:00 BASE 0.69 32 1.54 14 -5.5 100 -5.5 11 0 1011.6 NA 0.0000 9999 0 0 0 230
2019/07/13 14:19:00 BASE 0.13 36 1.54 14 -5.5 100 -5.5 11 0 1011.6 NA 0.0000 9999 0 0 0 0
2019/07/13 14:20:00 BASE 0.00 36 1.54 14 -5.5 100 -5.5 12 0 1011.6 NA 0.0000 9999 0 0 0 0
2019/07/13 14:21:00 BASE 0.00 36 1.54 14 -5.5 100 -5.5 12 0 1011.6 NA 0.0000 9999 0 0 0 0
2019/07/13 14:22:00 BASE 0.18 36 1.54 14 -5.5 100 -5.5 12 0 1011.6 NA 0.0000 9999 0 0 0 0
2019/07/13 14:23:00 BASE 0.74 36 1.54 14 -5.5 100 -5.5 12 0 1011.7 NA 0.0000 9999 0 0 0 330
2019/07/13 14:24:00 BASE 1.10 35 1.54 14 -5.5 100 -5.5 13 0 1011.7 NA 0.0000 9999 0 0 0 390
2019/07/13 14:25:00 BASE 1.20 34 1.54 14 -5.6 100 -5.6 13 0 1011.7 NA 0.0000 9999 0 0 0 260
2019/07/13 14:26:00 BASE 1.34 31 1.49 29 -5.6 100 -5.6 13 0 1011.7 NA 0.0000 9999 0 0 0 260
2019/07/13 14:27:00 BASE 1.33 29 1.49 29 -5.6 100 -5.6 13 0 1011.7 NA 0.0000 9999 0 0 0 230
2019/07/13 14:28:00 BASE 1.33 29 1.49 29 -5.7 100 -5.7 13 0 1011.7 NA 0.0000 9999 0 0 0 230
2019/07/13 14:29:00 BASE 1.36 29 1.49 29 -5.7 100 -5.7 14 0 1011.7 NA 0.0000 9999 0 0 0 300
2019/07/13 14:30:00 BASE 1.39 27 1.49 28 -5.7 100 -5.7 14 0 1011.7 NA 0.0000 9999 0 0 0 260
2019/07/13 14:31:00 BASE 1.40 29 1.49 28 -5.7 100 -5.7 14 0 1011.8 NA 0.0000 9999 0 0 0 260
2019/07/13 14:32:00 BASE 1.38 31 1.49 28 -5.7 100 -5.7 15 0 1011.7 NA 0.0000 9999 0 0 0 300
2019/07/13 14:33:00 BASE 1.39 34 1.49 28 -5.7 100 -5.7 15 0 1011.7 NA 0.0000 9999 360 0 0 0
2019/07/13 14:34:00 BASE 1.32 31 1.49 28 -5.7 100 -5.7 15 0 1011.7 NA 0.0000 9999 0 0 0 390
2019/07/13 14:35:00 BASE 1.27 21 1.49 28 -5.6 100 -5.6 15 0 1011.7 NA 0.0000 9999 0 0 0 300
2019/07/13 14:36:00 BASE 1.22 15 1.49 28 -5.6 100 -5.6 16 0 1011.7 NA 0.0000 9999 0 0 0 390
2019/07/13 14:37:00 BASE 1.21 14 1.49 28 -5.6 100 -5.6 16 0 1011.7 NA 0.0000 9999 0 0 0 300
2019/07/13 14:38:00 BASE 1.19 14 1.49 28 -5.6 100 -5.6 16 0 1011.7 NA 0.0000 9999 0 0 0 160
2019/07/13 14:39:00 BASE 1.16 12 1.49 28 -5.6 100 -5.6 17 0 1011.7 NA 0.0000 9999 0 0 0 130
2019/07/13 14:40:00 BASE 1.16 8 1.44 35 -5.6 100 -5.6 17 0 1011.7 NA 0.0000 9999 0 0 0 0
2019/07/13 14:41:00 BASE 1.12 11 1.44 35 -5.6 100 -5.6 17 0 1011.7 NA 0.0000 9999 0 0 0 0
2019/07/13 14:42:00 BASE 1.15 15 1.44 35 -5.6 100 -5.6 17 0 1011.7 NA 0.0000 9999 0 0 0 0
2019/07/13 14:43:00 BASE 1.26 19 1.39 22 -5.6 100 -5.6 18 0 1011.7 NA 0.0000 9999 0 0 0 0
2019/07/13 14:44:00 BASE 1.36 22 1.44 22 -5.6 100 -5.6 18 0 1011.7 NA 0.0000 9999 0 0 0 0
2019/07/13 14:45:00 BASE 1.45 22 1.59 22 -5.6 100 -5.6 18 0 1011.7 NA 0.0000 9999 0 0 0 0
2019/07/13 14:46:00 BASE 1.53 26 1.65 29 -5.7 100 -5.7 18 0 1011.7 NA 0.0000 9999 0 0 0 0
2019/07/13 14:47:00 BASE 1.65 29 1.85 29 -5.7 100 -5.7 19 0 1011.7 NA 0.0000 9999 0 0 0 0
2019/07/13 14:48:00 BASE 1.84 29 2.06 29 -5.7 100 -5.7 19 0 1011.7 NA 0.0000 9999 0 0 0 0
2019/07/13 14:49:00 BASE 1.90 29 2.06 29 -5.7 100 -5.7 19 0 1011.7 NA 0.0000 9999 0 0 0 0
2019/07/13 14:50:00 BASE 1.94 30 2.11 29 -5.7 100 -5.7 19 0 1011.7 NA 0.0000 9999 0 0 0 0
2019/07/13 14:51:00 BASE 2.01 30 2.26 30 -5.7 100 -5.7 19 0 1011.7 NA 0.0000 9999 0 0 0 0
2019/07/13 14:52:00 BASE 2.11 31 2.31 36 -5.7 100 -5.7 20 0 1011.7 NA 0.0000 9999 0 0 0 0
2019/07/13 14:53:00 BASE 2.29 35 2.47 37 -5.8 100 -5.8 20 0 1011.7 NA 0.0000 9999 0 0 0 0
2019/07/13 14:54:00 BASE 2.33 38 2.47 37 -5.8 100 -5.8 20 0 1011.7 NA 0.0000 9999 0 0 0 0
2019/07/13 14:55:00 BASE 2.30 39 2.52 48 -5.8 100 -5.8 20 0 1011.7 NA 0.0000 9999 0 0 0 0
2019/07/13 14:56:00 BASE 2.30 38 2.52 48 -5.9 100 -5.9 20 0 1011.7 NA 0.0000 9999 0 0 0 0
2019/07/13 14:57:00 BASE 2.27 37 2.52 38 -5.9 100 -5.9 21 0 1011.7 NA 0.0000 9999 0 0 0 0
2019/07/13 14:58:00 BASE 2.24 35 2.52 38 -5.9 100 -5.9 21 0 1011.7 NA 0.0000 9999 0 0 0 0
2019/07/13 14:59:00 BASE 2.22 36 2.52 38 -5.9 100 -5.9 21 0 1011.7 NA 0.0000 9999 0 0 0 0
2019/07/13 15:00:00 BASE 2.21 39 2.52 38 -5.9 100 -5.9 21 0 1011.7 NA 0.0000 9999 0 0 0 0
2019/07/13 15:01:00 BASE 2.24 41 2.52 38 -5.9 100 -5.9 21 0 1011.7 NA 0.0000 9999 0 0 0 0
2019/07/13 15:02:00 BASE 2.30 40 2.52 38 -5.9 100 -5.9 22 0 1011.7 NA 0.0000 9999 0 0 0 0
2019/07/13 15:03:00 BASE 2.21 41 2.52 38 -5.8 100 -5.8 22 0 1011.7 NA 0.0000 9999 0 0 0 0
2019/07/13 15:04:00 BASE 2.07 43 2.52 38 -5.8 100 -5.8 22 0 1011.7 NA 0.0000 9999 0 0 0 0
2019/07/13 15:05:00 BASE 2.04 40 2.52 38 -5.8 100 -5.8 22 0 1011.7 NA 0.0000 9999 15420 0 0 0
2019/07/13 15:06:00 BASE 2.06 38 2.52 38 -5.7 100 -5.7 22 0 1011.7 NA 0.0000 9999 15680 0 0 0
2019/07/13 15:07:00 BASE 2.10 38 2.47 35 -5.7 100 -5.7 23 0 1011.7 NA 0.0000 9999 0 0 0 0
2019/07/13 15:08:00 BASE 2.15 38 2.47 35 -5.7 100 -5.7 23 0 1011.7 NA 0.0000 9999 15650 0 0 0
2019/07/13 15:09:00 BASE 2.26 39 2.47 40 -5.7 100 -5.7 23 0 1011.7 NA 0.0000 9999 0 0 0 0
2019/07/13 15:10:00 BASE 2.38 40 2.47 41 -5.8 100 -5.8 23 0 1011.7 NA 0.0000 9999 0 0 0 0
2019/07/13 15:11:00 BASE 2.50 39 2.62 34 -5.8 100 -5.8 23 0 1011.6 NA 0.0000 9999 0 0 0 0
2019/07/13 15:12:00 BASE 2.54 35 2.62 32 -5.9 100 -5.9 24 0 1011.6 NA 0.0000 9999 0 0 0 0
2019/07/13 15:13:00 BASE 2.48 35 2.62 32 -5.9 100 -5.9 24 0 1011.6 NA 0.0000 9999 0 0 0 0
2019/07/13 15:14:00 BASE 2.53 39 2.73 42 -6.0 100 -6.0 24 0 1011.6 NA 0.0000 9999 0 0 0 0
2019/07/13 15:15:00 BASE 2.66 40 2.78 39 -6.0 100 -6.0 24 0 1011.6 NA 0.0000 9999 0 0 0 0
2019/07/13 15:16:00 BASE 2.74 39 2.88 35 -6.0 100 -6.0 24 0 1011.6 NA 0.0000 9999 0 0 0 0
2019/07/13 15:17:00 BASE 2.90 39 3.19 40 -6.0 100 -6.0 25 0 1011.7 NA 0.0000 9999 0 0 0 0
2019/07/13 15:18:00 BASE 2.90 43 3.19 40 -6.0 100 -6.0 25 0 1011.7 NA 0.0000 9999 0 0 0 0
2019/07/13 15:19:00 BASE 2.74 43 3.19 40 -6.0 100 -6.0 25 0 1011.7 NA 0.0000 9999 0 0 0 0
2019/07/13 15:20:00 BASE 2.72 37 3.19 40 -6.0 100 -6.0 25 0 1011.7 NA 0.0000 9999 0 0 0 0
2019/07/13 15:21:00 BASE 2.79 37 3.19 40 -5.9 100 -5.9 25 0 1011.7 NA 0.0000 9999 0 0 0 0
2019/07/13 15:22:00 BASE 2.92 41 3.19 40 -5.9 100 -5.9 26 0 1011.7 NA 0.0000 9999 0 0 0 0
2019/07/13 15:23:00 BASE 3.03 43 3.19 43 -5.9 100 -5.9 26 0 1011.7 NA 0.0000 9999 0 0 0 0
2019/07/13 15:24:00 BASE 3.00 45 3.19 43 -5.9 100 -5.9 26 0 1011.7 NA 0.0000 9999 0 0 0 0
2019/07/13 15:25:00 BASE 3.04 49 3.19 51 -5.9 100 -5.9 26 0 1011.7 NA 0.0000 9999 0 0 0 0
2019/07/13 15:26:00 BASE 3.09 51 3.19 52 -5.8 100 -5.8 26 0 1011.7 NA 0.0000 9999 0 0 0 0
2019/07/13 15:27:00 BASE 3.03 55 3.19 52 -5.8 100 -5.8 27 0 1011.7 NA 0.0000 9999 0 0 0 0
2019/07/13 15:28:00 BASE 3.00 57 3.19 52 -5.8 100 -5.8 27 0 1011.7 NA 0.0000 9999 0 0 0 0
2019/07/13 15:29:00 BASE 2.98 55 3.19 52 -5.8 100 -5.8 27 0 1011.7 NA 0.0000 9999 0 0 0 0
2019/07/13 15:30:00 BASE 3.11 57 3.45 57 -5.8 100 -5.8 27 0 1011.7 NA 0.0000 9999 0 0 0 0
2019/07/13 15:31:00 BASE 3.30 57 3.50 58 -5.8 100 -5.8 27 0 1011.7 NA 0.0000 9999 0 0 0 0
2019/07/13 15:32:00 BASE 3.35 58 3.55 60 -5.8 100 -5.8 27 0 1011.7 NA 0.0000 9999 0 0 0 0
2019/07/13 15:33:00 BASE 3.34 61 3.55 62 -5.7 100 -5.7 28 0 1011.7 NA 0.0000 9999 0 0 0 0
2019/07/13 15:34:00 BASE 3.28 64 3.55 62 -5.7 100 -5.7 28 0 1011.7 NA 0.0000 9999 0 0 0 0
2019/07/13 15:35:00 BASE 3.27 65 3.55 61 -5.7 100 -5.7 28 0 1011.7 NA 0.0000 9999 0 0 0 0
2019/07/13 15:36:00 BASE 3.32 63 3.55 61 -5.6 100 -5.6 28 0 1011.7 NA 0.0000 9999 0 0 0 0
2019/07/13 15:37:00 BASE 3.20 64 3.55 61 -5.6 100 -5.6 28 0 1011.7 NA 0.0000 9999 0 0 0 0
2019/07/13 15:38:00 BASE 2.93 68 3.55 61 -5.5 100 -5.5 29 0 1011.7 NA 0.0000 9999 0 0 0 0
2019/07/13 15:39:00 BASE 2.71 71 3.55 61 -5.5 100 -5.5 29 0 1011.7 NA 0.0000 9999 0 0 0 0
2019/07/13 15:40:00 BASE 2.51 65 3.55 61 -5.4 100 -5.4 29 0 1011.7 NA 0.0000 9999 0 0 0 0
2019/07/13 15:41:00 BASE 2.45 62 3.55 61 -5.4 100 -5.4 29 0 1011.7 NA 0.0000 9999 0 0 0 0
2019/07/13 15:42:00 BASE 2.52 64 3.55 61 -5.4 100 -5.4 30 0 1011.7 NA 0.0000 9999 0 0 0 0
2019/07/13 15:43:00 BASE 2.17 66 3.55 61 -5.4 100 -5.4 30 0 1011.7 NA 0.0000 9999 0 0 0 0
2019/07/13 15:44:00 BASE 1.58 66 3.55 61 -5.3 100 -5.3 30 0 1011.7 NA 0.0000 9999 0 0 0 0
2019/07/13 15:45:00 BASE 0.90 67 3.45 61 -5.3 100 -5.3 30 0 1011.7 NA 0.0000 9999 0 0 0 0
2019/07/13 15:46:00 BASE 0.53 76 3.24 63 -5.2 100 -5.2 30 0 1011.7 NA 0.0000 9999 0 0 0 0
2019/07/13 15:47:00 BASE 0.43 90 2.98 70 -5.1 100 -5.1 31 0 1011.6 NA 0.0000 9999 18410 0 0 0
2019/07/13 15:48:00 BASE 0.66 101 2.88 75 -5.0 100 -5.0 31 0 1011.6 NA 0.0000 9999 0 0 0 0
2019/07/13 15:49:00 BASE 1.27 106 2.83 63 -4.9 100 -4.9 31 0 1011.6 NA 0.0000 9999 0 0 0 0
2019/07/13 15:50:00 BASE 1.61 102 2.83 63 -4.8 100 -4.8 31 0 1011.6 NA 0.0000 9999 0 0 0 0
2019/07/13 15:51:00 BASE 1.77 97 2.73 62 -4.8 100 -4.8 31 0 1011.6 NA 0.0000 9999 0 0 0 0
2019/07/13 15:52:00 BASE 1.91 95 2.21 70 -4.8 100 -4.8 31 0 1011.6 NA 0.0000 9999 0 0 0 0
2019/07/13 15:53:00 BASE 2.12 93 2.83 94 -4.9 100 -4.9 31 0 1011.6 NA 0.0000 9999 0 0 0 0
2019/07/13 15:54:00 BASE 2.39 93 2.83 94 -5.0 100 -5.0 32 0 1011.7 NA 0.0000 9999 0 0 0 0
2019/07/13 15:55:00 BASE 2.21 122 2.83 94 -5.1 100 -5.1 32 0 1011.3 NA 0.0000 9999 0 0 0 0
2019/07/13 15:56:00 BASE 1.75 169 2.83 94 -5.2 100 -5.2 32 0 1011.7 NA 0.0000 9999 0 0 0 0
2019/07/13 15:57:00 BASE 1.79 183 2.83 94 -5.2 100 -5.2 32 0 1011.7 NA 0.0000 9999 0 0 0 0
2019/07/13 15:58:00 BASE 2.10 182 2.83 94 -5.3 100 -5.3 32 0 1011.6 NA 0.0000 9999 0 0 0 0
2019/07/13 15:59:00 BASE 2.33 182 2.83 94 -5.3 100 -5.3 32 0 1011.7 NA 0.0000 9999 0 0 0 0
2019/07/13 16:00:00 BASE 2.38 182 2.83 94 -5.3 100 -5.3 32 0 1011.7 NA 0.0000 9999 0 0 0 0
2019/07/13 16:01:00 BASE 2.35 181 2.83 94 -5.3 100 -5.3 32 0 1011.7 NA 0.0000 9999 0 0 0 0
2019/07/13 16:02:00 BASE 2.33 177 2.83 94 -5.2 100 -5.2 32 0 1011.7 NA 0.0000 9999 0 0 0 0
2019/07/13 16:03:00 BASE 2.28 173 2.78 92 -5.2 100 -5.2 32 0 1011.7 NA 0.0000 9999 0 0 0 0
2019/07/13 16:04:00 BASE 2.20 171 2.62 180 -5.1 100 -5.1 32 0 1011.7 NA 0.0000 9999 0 0 0 0
2019/07/13 16:05:00 BASE 2.11 170 2.62 180 -5.2 100 -5.2 32 0 1011.7 NA 0.0000 9999 0 0 0 0
2019/07/13 16:06:00 BASE 1.97 172 2.62 180 -5.2 100 -5.2 32 0 1011.7 NA 0.0000 9999 0 0 0 0
2019/07/13 16:07:00 BASE 1.90 169 2.62 180 -5.2 100 -5.2 33 0 1011.7 NA 0.0000 9999 0 0 0 0
2019/07/13 16:08:00 BASE 1.87 162 2.62 180 -5.2 100 -5.2 33 0 1011.7 NA 0.0000 9999 0 0 0 0
2019/07/13 16:09:00 BASE 1.77 161 2.52 180 -5.3 100 -5.3 33 0 1011.7 NA 0.0000 9999 0 0 0 0
2019/07/13 16:10:00 BASE 1.79 158 2.52 180 -5.3 100 -5.3 33 0 1011.5 NA 0.0000 9999 0 0 0 0
2019/07/13 16:11:00 BASE 1.74 153 2.37 172 -5.2 100 -5.2 34 0 1011.5 NA 0.0000 9999 0 0 0 0
2019/07/13 16:12:00 BASE 1.63 153 2.37 172 -5.2 100 -5.2 35 0 1011.7 NA 0.0000 9999 0 0 0 0
2019/07/13 16:13:00 BASE 1.70 148 2.26 150 -5.2 100 -5.2 35 0 1011.7 NA 0.0000 9999 0 0 0 0
2019/07/13 16:14:00 BASE 1.69 139 2.26 150 -5.1 100 -5.1 36 0 1011.7 NA 0.0000 9999 0 0 0 0
2019/07/13 16:15:00 BASE 1.38 132 2.26 150 -5.1 100 -5.1 34 0 1011.7 NA 0.0000 9999 0 0 0 0
2019/07/13 16:16:00 BASE 1.20 135 2.26 150 -5.0 100 -5.0 35 0 1011.7 NA 0.0000 9999 0 0 0 0
2019/07/13 16:17:00 BASE 0.82 134 2.26 150 -5.0 100 -5.0 38 0 1011.7 NA 0.0000 9999 0 0 0 0
2019/07/13 16:18:00 BASE 0.20 131 2.26 150 -5.0 100 -5.0 40 0 1011.7 NA 0.0000 9999 0 0 0 0
2019/07/13 16:19:00 BASE 0.20 134 2.26 150 -5.0 100 -5.0 40 0 1011.7 NA 0.0000 9999 0 0 0 0
2019/07/13 16:20:00 BASE 1.08 126 2.78 103 -5.0 100 -5.0 41 0 1011.7 NA 0.0000 9999 0 0 0 0
2019/07/13 16:21:00 BASE 2.08 111 2.78 103 -5.1 100 -5.1 41 0 1011.7 NA 0.0000 9999 0 0 0 0
2019/07/13 16:22:00 BASE 2.11 109 2.78 103 -5.3 100 -5.3 41 0 1011.7 NA 0.0000 9999 0 0 0 0
2019/07/13 16:23:00 BASE 1.77 110 2.78 103 -5.5 100 -5.5 42 0 1011.7 NA 0.0000 9999 0 0 0 0
2019/07/13 16:24:00 BASE 1.17 115 2.78 103 -5.6 100 -5.6 43 0 1011.7 NA 0.0000 9999 0 0 0 0
2019/07/13 16:25:00 BASE 0.64 123 2.78 103 -5.6 100 -5.6 43 0 1011.5 NA 0.0000 9999 0 0 0 0
2019/07/13 16:26:00 BASE 0.88 114 2.78 103 -5.6 100 -5.6 44 0 1011.7 NA 0.0000 9999 0 0 0 0
2019/07/13 16:27:00 BASE 1.72 97 2.78 103 -5.6 100 -5.6 45 0 1011.7 NA 0.0000 9999 0 0 0 0
2019/07/13 16:28:00 BASE 2.19 84 2.78 103 -5.6 100 -5.6 46 0 1011.7 NA 0.0000 9999 0 0 0 0
2019/07/13 16:29:00 BASE 1.54 86 2.78 103 -5.6 100 -5.6 47 0 1011.7 NA 0.0000 9999 0 0 0 0
2019/07/13 16:30:00 BASE 1.32 83 2.73 101 -5.7 100 -5.7 49 0 1011.7 NA 0.0000 9999 0 0 0 0
2019/07/13 16:31:00 BASE 1.59 79 2.62 70 -5.7 100 -5.7 50 0 1011.7 NA 0.0000 9999 0 0 0 560
2019/07/13 16:32:00 BASE 1.58 87 2.62 70 -5.6 100 -5.6 51 0 1011.7 NA 0.0000 9999 660 0 0 0
2019/07/13 16:33:00 BASE 1.27 87 2.62 70 -5.5 100 -5.5 52 0 1011.7 NA 0.0000 9999 0 0 0 660
2019/07/13 16:34:00 BASE 0.99 77 2.62 70 -5.4 100 -5.4 53 0 1011.4 NA 0.0000 9999 0 0 0 620
2019/07/13 16:35:00 BASE 1.10 79 2.62 70 -5.4 100 -5.4 54 0 1011.5 NA 0.0000 9999 0 0 0 0
2019/07/13 16:36:00 BASE 1.12 74 2.62 70 -5.3 100 -5.3 54 0 1011.7 NA 0.0000 9999 0 0 0 690
2019/07/13 16:37:00 BASE 1.12 54 2.52 62 -5.3 100 -5.3 55 0 1011.7 NA 0.0000 9999 790 0 0 0
2019/07/13 16:38:00 BASE 1.26 47 1.95 79 -5.3 100 -5.3 55 0 1011.7 NA 0.0000 9999 790 0 0 0
2019/07/13 16:39:00 BASE 0.90 41 1.95 79 -5.3 100 -5.3 55 0 1011.7 NA 0.0000 9999 750 0 0 0
2019/07/13 16:40:00 BASE 0.28 34 1.95 79 -5.3 100 -5.3 55 0 1011.7 NA 0.0000 9999 750 0 0 0
2019/07/13 16:41:00 BASE 0.32 31 1.95 79 -5.3 100 -5.3 55 0 1011.7 NA 0.0000 9999 0 0 0 720
2019/07/13 16:42:00 BASE 0.60 30 1.90 99 -5.3 100 -5.3 56 0 1011.7 NA 0.0000 9999 750 0 0 0
2019/07/13 16:43:00 BASE 0.41 30 1.90 99 -5.3 100 -5.3 56 0 1011.7 NA 0.0000 9999 720 0 0 0
2019/07/13 16:44:00 BASE 0.09 31 1.90 99 -5.3 100 -5.3 56 0 1011.7 NA 0.0000 9999 720 0 0 0
2019/07/13 16:45:00 BASE 0.09 38 1.44 43 -5.3 100 -5.3 56 0 1011.7 NA 0.0000 9999 690 0 0 0
2019/07/13 16:46:00 BASE 0.22 45 1.44 43 -5.2 100 -5.2 57 0 1011.7 NA 0.0000 9999 690 0 0 0
2019/07/13 16:47:00 BASE 0.17 49 1.44 43 -5.2 100 -5.2 57 0 1011.7 NA 0.0000 9999 690 0 0 0
2019/07/13 16:48:00 BASE 0.18 50 1.18 30 -5.2 100 -5.2 57 0 1011.7 NA 0.0000 9999 690 0 0 0
2019/07/13 16:49:00 BASE 0.68 46 1.18 44 -5.2 100 -5.2 57 0 1011.6 NA 0.0000 9999 660 0 0 0
2019/07/13 16:50:00 BASE 1.00 44 1.18 44 -5.1 100 -5.1 57 0 1011.7 NA 0.0000 9999 660 0 0 0
2019/07/13 16:51:00 BASE 0.72 43 1.18 44 -5.1 100 -5.1 58 0 1011.7 NA 0.0000 9999 620 0 0 0
2019/07/13 16:52:00 BASE 0.49 44 1.18 44 -5.1 100 -5.1 58 0 1011.7 NA 0.0000 9999 660 0 0 0
2019/07/13 16:53:00 BASE 0.26 45 1.18 44 -5.1 100 -5.1 59 0 1011.7 NA 0.0000 9999 660 0 0 0
2019/07/13 16:54:00 BASE 0.09 45 1.23 44 -5.1 100 -5.1 60 0 1011.7 NA 0.0000 9999 660 0 0 0
2019/07/13 16:55:00 BASE 0.75 48 1.44 52 -5.1 100 -5.1 61 0 1011.6 NA 0.0000 9999 660 0 0 0
2019/07/13 16:56:00 BASE 1.41 53 1.49 54 -5.2 100 -5.2 62 0 1011.6 NA 0.0000 9999 660 0 0 0
2019/07/13 16:57:00 BASE 1.46 53 1.65 51 -5.2 100 -5.2 62 0 1011.6 NA 0.0000 9999 660 0 0 0
2019/07/13 16:58:00 BASE 1.61 51 1.75 44 -5.2 100 -5.2 61 0 1011.6 NA 0.0000 9999 620 0 0 0
2019/07/13 16:59:00 BASE 1.80 46 2.06 49 -5.2 100 -5.2 61 0 1011.6 NA 0.0000 9999 660 0 0 0
2019/07/13 17:00:00 BASE 1.93 37 2.31 33 -5.3 100 -5.3 60 0 1011.6 NA 0.0000 9999 660 0 0 0
2019/07/13 17:01:00 BASE 2.15 33 2.42 35 -5.4 100 -5.4 60 0 1011.6 NA 0.0000 9999 660 0 0 0
2019/07/13 17:02:00 BASE 2.17 34 2.42 35 -5.5 100 -5.5 60 0 1011.7 NA 0.0000 9999 660 1510 0 0
2019/07/13 17:03:00 BASE 1.95 35 2.42 35 -5.6 100 -5.6 60 0 1011.6 NA 0.0000 9999 460 1510 0 0
2019/07/13 17:04:00 BASE 1.87 42 2.42 35 -5.7 100 -5.7 60 0 1011.6 NA 0.0000 9999 360 0 0 0
2019/07/13 17:05:00 BASE 1.79 46 2.42 35 -5.7 100 -5.7 60 0 1011.6 NA 0.0000 9999 330 0 0 0
2019/07/13 17:06:00 BASE 1.64 46 2.42 35 -5.7 100 -5.7 60 0 1011.6 NA 0.0000 9999 360 0 0 0
2019/07/13 17:07:00 BASE 1.65 45 2.42 35 -5.7 100 -5.7 60 0 1011.6 NA 0.0000 9999 390 0 0 0
2019/07/13 17:08:00 BASE 1.82 41 2.42 35 -5.6 100 -5.6 59 0 1011.7 NA 0.0000 9999 360 0 0 0
2019/07/13 17:09:00 BASE 1.85 41 2.42 35 -5.6 100 -5.6 58 0 1011.6 NA 0.0000 9999 520 0 0 0
2019/07/13 17:10:00 BASE 1.77 47 2.42 35 -5.7 100 -5.7 56 0 1011.6 NA 0.0000 9999 590 0 0 0
2019/07/13 17:11:00 BASE 1.77 53 2.31 39 -5.7 100 -5.7 54 0 1011.6 NA 0.0000 9999 590 0 0 0
2019/07/13 17:12:00 BASE 1.89 56 2.11 58 -5.7 100 -5.7 52 0 1011.6 NA 0.0000 9999 560 0 0 0
2019/07/13 17:13:00 BASE 1.99 62 2.11 70 -5.7 100 -5.7 51 0 1011.6 NA 0.0000 9999 520 0 0 0
2019/07/13 17:14:00 BASE 2.00 68 2.11 71 -5.7 100 -5.7 50 0 1011.6 NA 0.0000 9999 520 0 0 0
2019/07/13 17:15:00 BASE 1.92 72 2.31 77 -5.7 100 -5.7 49 0 1011.6 NA 0.0000 9999 330 0 0 0
2019/07/13 17:16:00 BASE 1.76 77 2.31 77 -5.7 100 -5.7 49 0 1011.6 NA 0.0000 9999 330 0 0 0
2019/07/13 17:17:00 BASE 1.72 75 2.31 77 -5.6 100 -5.6 48 0 1011.6 NA 0.0000 9999 360 0 0 0
2019/07/13 17:18:00 BASE 1.99 61 2.37 49 -5.6 100 -5.6 47 0 1011.6 NA 0.0000 9999 390 0 0 0
2019/07/13 17:19:00 BASE 2.37 52 2.73 46 -5.6 100 -5.6 47 0 1011.6 NA 0.0000 9999 520 0 0 0
2019/07/13 17:20:00 BASE 2.58 49 2.73 47 -5.6 100 -5.6 45 0 1011.6 NA 0.0000 9999 520 0 0 0
2019/07/13 17:21:00 BASE 2.69 46 2.78 47 -5.7 100 -5.7 46 0 1011.6 NA 0.0000 9999 560 0 0 0
2019/07/13 17:22:00 BASE 2.72 43 2.83 40 -5.7 100 -5.7 46 0 1011.6 NA 0.0000 9999 620 0 0 0
2019/07/13 17:23:00 BASE 2.75 42 2.93 43 -5.8 100 -5.8 46 0 1011.6 NA 0.0000 9999 590 0 0 0
2019/07/13 17:24:00 BASE 2.76 43 2.93 43 -5.8 100 -5.8 44 0 1011.6 NA 0.0000 9999 590 0 0 0
2019/07/13 17:25:00 BASE 2.68 45 2.93 43 -5.9 100 -5.9 40 0 1011.6 NA 0.0000 9999 560 0 0 0
2019/07/13 17:26:00 BASE 2.60 46 2.93 43 -5.9 100 -5.9 39 0 1011.6 NA 0.0000 9999 520 0 0 0
2019/07/13 17:27:00 BASE 2.65 47 2.93 43 -5.9 100 -5.9 39 0 1011.6 NA 0.0000 9999 490 0 0 0
2019/07/13 17:28:00 BASE 2.78 52 2.98 58 -5.9 100 -5.9 39 0 1011.6 NA 0.0000 9999 520 0 0 0
2019/07/13 17:29:00 BASE 2.84 58 2.98 62 -5.8 100 -5.8 41 0 1011.6 NA 0.0000 9999 430 0 0 0
2019/07/13 17:30:00 BASE 2.75 61 2.98 63 -5.8 100 -5.8 43 0 1011.6 NA 0.0000 9999 390 0 0 0
2019/07/13 17:31:00 BASE 2.51 62 2.98 63 -5.8 100 -5.8 42 0 1011.6 NA 0.0000 9999 490 0 0 0
2019/07/13 17:32:00 BASE 2.27 60 2.98 63 -5.7 100 -5.7 41 0 1011.6 NA 0.0000 9999 460 0 0 0
2019/07/13 17:33:00 BASE 2.30 62 2.98 63 -5.7 100 -5.7 39 0 1011.6 NA 0.0000 9999 490 0 0 0
2019/07/13 17:34:00 BASE 2.39 65 2.98 63 -5.7 100 -5.7 40 0 1011.6 NA 0.0000 9999 520 0 0 0
2019/07/13 17:35:00 BASE 2.36 64 2.98 63 -5.6 100 -5.6 41 0 1011.6 NA 0.0000 9999 490 0 0 0
2019/07/13 17:36:00 BASE 2.31 59 2.98 63 -5.6 100 -5.6 45 0 1011.7 NA 0.0000 9999 490 0 0 0
2019/07/13 17:37:00 BASE 2.39 54 2.98 63 -5.6 100 -5.6 43 0 1011.7 NA 0.0000 9999 490 0 0 0
2019/07/13 17:38:00 BASE 2.48 52 2.98 63 -5.6 100 -5.6 44 0 1011.7 NA 0.0000 9999 560 0 0 0
2019/07/13 17:39:00 BASE 2.41 50 2.98 63 -5.6 100 -5.6 44 0 1011.7 NA 0.0000 9999 560 1570 0 0
2019/07/13 17:40:00 BASE 2.35 47 2.62 52 -5.6 100 -5.6 45 0 1011.7 NA 0.0000 9999 1570 0 0 0
2019/07/13 17:41:00 BASE 2.30 44 2.62 52 -5.6 100 -5.6 44 0 1011.7 NA 0.0000 9999 1540 0 0 0
2019/07/13 17:42:00 BASE 2.33 37 2.62 52 -5.6 100 -5.6 44 0 1011.7 NA 0.0000 9999 1540 0 0 0
2019/07/13 17:43:00 BASE 2.57 34 2.88 39 -5.7 100 -5.7 43 0 1011.6 NA 0.0000 9999 460 1540 0 0
2019/07/13 17:44:00 BASE 2.86 38 3.14 42 -5.7 100 -5.7 43 0 1011.7 NA 0.0000 9999 430 1510 0 0
2019/07/13 17:45:00 BASE 3.06 41 3.34 38 -5.8 100 -5.8 43 0 1011.7 NA 0.0000 9999 390 1510 0 0
2019/07/13 17:46:00 BASE 3.17 44 3.34 44 -5.9 100 -5.9 40 0 1011.7 NA 0.0000 9999 430 1510 0 0
2019/07/13 17:47:00 BASE 3.18 44 3.34 45 -6.0 100 -6.0 39 0 1011.7 NA 0.0000 9999 430 1540 0 0
2019/07/13 17:48:00 BASE 3.31 45 3.76 41 -6.0 100 -6.0 36 0 1011.7 NA 0.0000 9999 430 1510 0 0
2019/07/13 17:49:00 BASE 3.31 43 3.76 41 -6.1 100 -6.1 35 0 1011.7 NA 0.0000 9999 1510 0 0 0
2019/07/13 17:50:00 BASE 3.14 44 3.76 41 -6.1 100 -6.1 33 0 1011.7 NA 0.0000 9999 1540 0 0 0
2019/07/13 17:51:00 BASE 3.15 50 3.76 41 -6.2 100 -6.2 31 0 1011.7 NA 0.0000 9999 1510 0 0 0
2019/07/13 17:52:00 BASE 3.34 55 3.76 41 -6.2 100 -6.2 30 0 1011.7 NA 0.0000 9999 1510 0 0 0
2019/07/13 17:53:00 BASE 3.53 57 3.76 58 -6.2 100 -6.2 27 0 1011.7 NA 0.0000 9999 1540 0 0 0
2019/07/13 17:54:01 BASE 3.68 57 4.06 60 -6.2 100 -6.2 24 0 1011.2 NA 0.0000 9999 1540 0 0 0
2019/07/13 17:55:00 BASE 3.71 57 4.06 60 -6.2 100 -6.2 23 0 1011.6 NA 0.0000 9999 1540 0 0 0
2019/07/13 17:56:00 BASE 3.62 55 4.06 60 -6.2 100 -6.2 22 0 1011.6 NA 0.0000 9999 1540 0 0 0
2019/07/13 17:57:00 BASE 3.61 55 4.06 60 -6.2 100 -6.2 22 0 1011.6 NA 0.0000 9999 1510 0 0 0
2019/07/13 17:58:00 BASE 3.50 51 4.06 60 -6.2 100 -6.2 21 0 1011.6 NA 0.0000 9999 1510 0 0 0
2019/07/13 17:59:00 BASE 3.42 49 4.06 60 -6.2 100 -6.2 21 0 1011.6 NA 0.0000 9999 1510 0 0 0
2019/07/13 18:00:00 BASE 3.60 44 4.27 38 -6.3 100 -6.3 21 0 1011.6 NA 0.0000 9999 1410 0 0 0
2019/07/13 18:01:00 BASE 3.67 40 4.27 38 -6.4 100 -6.4 21 0 1011.6 NA 0.0000 9999 1380 0 0 0
2019/07/13 18:02:00 BASE 3.71 39 4.27 38 -6.5 100 -6.5 20 0 1011.6 NA 0.0000 9999 1380 0 0 0
2019/07/13 18:03:00 BASE 3.63 37 4.27 38 -6.6 100 -6.6 20 0 1011.7 NA 0.0000 9999 1380 0 0 0
2019/07/13 18:04:00 BASE 3.35 39 4.27 38 -6.6 100 -6.6 20 0 1011.6 NA 0.0000 9999 1380 0 0 0
2019/07/13 18:05:00 BASE 3.36 40 4.27 38 -6.7 100 -6.7 19 0 1011.7 NA 0.0000 9999 1380 0 0 0
2019/07/13 18:06:00 BASE 3.42 39 4.27 38 -6.7 100 -6.7 19 0 1011.7 NA 0.0000 9999 1380 0 0 0
2019/07/13 18:07:00 BASE 3.31 38 4.27 38 -6.6 100 -6.6 19 0 1011.7 NA 0.0000 9999 1380 0 0 0
2019/07/13 18:08:00 BASE 3.33 37 4.27 38 -6.6 100 -6.6 18 0 1011.7 NA 0.0000 9999 1350 0 0 0
2019/07/13 18:09:00 BASE 3.34 37 4.27 38 -6.6 100 -6.6 18 0 1011.7 NA 0.0000 9999 1380 0 0 0
2019/07/13 18:10:00 BASE 3.15 39 4.01 38 -6.6 100 -6.6 17 0 1011.7 NA 0.0000 9999 1350 0 0 0
2019/07/13 18:11:00 BASE 3.02 41 4.01 38 -6.5 100 -6.5 17 0 1011.7 NA 0.0000 9999 1380 0 0 0
2019/07/13 18:12:00 BASE 2.86 42 3.76 36 -6.5 100 -6.5 16 0 1011.7 NA 0.0000 9999 1350 0 0 0
2019/07/13 18:13:00 BASE 2.70 41 3.76 36 -6.5 100 -6.5 16 0 1011.7 NA 0.0000 9999 1280 0 0 0
2019/07/13 18:14:00 BASE 2.70 42 3.76 36 -6.5 100 -6.5 16 0 1011.7 NA 0.0000 9999 1280 0 0 0
2019/07/13 18:15:00 BASE 2.68 41 3.76 36 -6.5 100 -6.5 16 0 1011.7 NA 0.0000 9999 1250 0 0 0
2019/07/13 18:16:00 BASE 2.58 39 3.60 35 -6.6 100 -6.6 16 0 1011.7 NA 0.0000 9999 1250 0 0 0
2019/07/13 18:17:00 BASE 2.54 41 3.60 35 -6.5 100 -6.5 15 0 1011.7 NA 0.0000 9999 1280 0 0 0
2019/07/13 18:18:00 BASE 2.65 44 3.50 38 -6.5 100 -6.5 15 0 1011.7 NA 0.0000 9999 1250 0 0 0
2019/07/13 18:19:00 BASE 2.75 44 3.24 40 -6.5 100 -6.5 15 0 1011.7 NA 0.0000 9999 1250 0 0 0
2019/07/13 18:20:00 BASE 2.61 44 3.24 40 -6.4 100 -6.4 15 0 1011.7 NA 0.0000 9999 1210 0 0 0
2019/07/13 18:21:00 BASE 2.40 43 2.98 48 -6.4 100 -6.4 15 0 1011.7 NA 0.0000 9999 1180 0 0 0
2019/07/13 18:22:00 BASE 2.18 35 2.98 48 -6.4 100 -6.4 15 0 1011.7 NA 0.0000 9999 1150 0 0 0
2019/07/13 18:23:00 BASE 1.98 22 2.98 48 -6.4 100 -6.4 15 0 1011.7 NA 0.0000 9999 1180 0 0 0
2019/07/13 18:24:00 BASE 1.89 10 2.98 48 -6.3 100 -6.3 14 0 1011.7 NA 0.0000 9999 1150 0 0 0
2019/07/13 18:25:00 BASE 1.85 5 2.98 48 -6.3 100 -6.3 14 0 1011.7 NA 0.0000 9999 1120 0 0 0
2019/07/13 18:26:00 BASE 1.87 0 2.98 48 -6.2 100 -6.2 14 0 1011.7 NA 0.0000 9999 0 0 0 0
2019/07/13 18:27:00 BASE 1.94 360 2.98 48 -6.2 100 -6.2 13 0 1011.7 NA 0.0000 9999 1350 0 0 0
2019/07/13 18:28:00 BASE 2.00 6 2.98 48 -6.1 100 -6.1 13 0 1011.7 NA 0.0000 9999 1350 0 0 0
2019/07/13 18:29:00 BASE 1.73 21 2.68 48 -6.1 100 -6.1 13 0 1011.7 NA 0.0000 9999 1350 0 0 0
2019/07/13 18:30:00 BASE 1.34 35 2.62 38 -6.1 100 -6.1 12 0 1011.7 NA 0.0000 9999 1350 0 0 0
2019/07/13 18:31:00 BASE 1.18 36 2.62 38 -6.1 100 -6.1 12 0 1011.7 NA 0.0000 9999 1350 0 0 0
2019/07/13 18:32:00 BASE 1.31 26 2.42 2 -6.1 100 -6.1 12 0 1011.7 NA 0.0000 9999 1350 0 0 0
2019/07/13 18:33:00 BASE 1.44 21 2.42 2 -6.1 100 -6.1 11 0 1011.7 NA 0.0000 9999 1310 0 0 0
2019/07/13 18:34:00 BASE 1.48 17 2.42 2 -6.1 100 -6.1 11 0 1011.7 NA 0.0000 9999 1310 0 0 0
2019/07/13 18:35:00 BASE 1.57 0 2.42 2 -6.1 100 -6.1 10 0 1011.7 NA 0.0000 9999 0 0 0 0
2019/07/13 18:36:00 BASE 1.69 355 2.42 2 -6.1 100 -6.1 10 0 1011.7 NA 0.0000 9999 1250 0 0 0
2019/07/13 18:37:00 BASE 1.99 1 2.42 360 -6.1 100 -6.1 10 0 1011.7 NA 0.0000 9999 0 0 0 0
2019/07/13 18:38:00 BASE 2.15 5 2.42 360 -6.1 100 -6.1 10 0 1011.7 NA 0.0000 9999 1210 0 0 0
2019/07/13 18:39:00 BASE 2.17 11 2.47 14 -6.1 100 -6.1 9 0 1011.6 NA 0.0000 9999 0 0 0 0
2019/07/13 18:40:00 BASE 2.29 14 2.68 14 -6.1 100 -6.1 9 0 1011.6 NA 0.0000 9999 0 0 0 0
2019/07/13 18:41:00 BASE 2.43 17 2.68 19 -6.1 100 -6.1 9 0 1011.6 NA 0.0000 9999 0 0 0 0
2019/07/13 18:42:00 BASE 2.57 32 2.83 46 -6.1 100 -6.1 8 0 1011.6 NA 0.0000 9999 0 0 0 0
2019/07/13 18:43:00 BASE 2.71 46 2.88 47 -6.1 100 -6.1 8 0 1011.6 NA 0.0000 9999 0 0 0 0
2019/07/13 18:44:00 BASE 2.79 48 2.98 48 -6.2 100 -6.2 7 0 1011.6 NA 0.0000 9999 0 0 0 0
2019/07/13 18:45:00 BASE 2.95 46 3.24 44 -6.2 100 -6.2 7 0 1011.6 NA 0.0000 9999 0 0 0 0
2019/07/13 18:46:00 BASE 3.10 48 3.34 48 -6.3 100 -6.3 7 0 1011.7 NA 0.0000 9999 1280 0 0 0
2019/07/13 18:47:00 BASE 3.01 54 3.34 48 -6.3 100 -6.3 6 0 1011.7 NA 0.0000 9999 1250 1610 0 0
2019/07/13 18:48:00 BASE 2.94 54 3.34 48 -6.3 100 -6.3 6 0 1011.7 NA 0.0000 9999 1250 0 0 0
2019/07/13 18:49:00 BASE 3.13 52 3.55 54 -6.3 100 -6.3 6 0 1011.7 NA 0.0000 9999 1250 0 0 0
2019/07/13 18:50:00 BASE 3.36 52 3.70 49 -6.3 100 -6.3 6 0 1011.7 NA 0.0000 9999 1210 1610 0 0
2019/07/13 18:51:00 BASE 3.31 54 3.70 49 -6.3 100 -6.3 6 0 1011.7 NA 0.0000 9999 1210 1610 0 0
2019/07/13 18:52:00 BASE 3.23 58 3.70 49 -6.2 100 -6.2 6 0 1011.7 NA 0.0000 9999 1250 0 0 0
2019/07/13 18:53:00 BASE 3.37 61 3.91 68 -6.3 100 -6.3 5 0 1011.6 NA 0.0000 9999 1570 0 0 0
2019/07/13 18:54:00 BASE 3.19 64 3.91 68 -6.2 100 -6.2 5 0 1011.6 NA 0.0000 9999 0 0 0 0
2019/07/13 18:55:00 BASE 2.75 63 3.91 68 -6.2 100 -6.2 5 0 1011.6 NA 0.0000 9999 0 0 0 0
2019/07/13 18:56:00 BASE 2.63 60 3.91 68 -6.2 100 -6.2 5 0 1011.6 NA 0.0000 9999 1670 0 0 0
2019/07/13 18:57:00 BASE 2.56 60 3.91 68 -6.1 100 -6.1 5 0 1011.6 NA 0.0000 9999 1510 0 0 0
2019/07/13 18:58:00 BASE 2.42 60 3.91 68 -6.0 100 -6.0 5 0 1011.6 NA 0.0000 9999 1610 0 0 0
2019/07/13 18:59:00 BASE 2.25 57 3.91 68 -5.9 100 -5.9 5 0 1011.6 NA 0.0000 9999 1310 0 0 0
2019/07/13 19:00:00 BASE 2.17 50 3.91 68 -5.9 100 -5.9 4 0 1011.6 NA 0.0000 9999 0 0 0 0
2019/07/13 19:01:00 BASE 2.42 45 3.91 68 -5.8 100 -5.8 4 0 1011.6 NA 0.0000 9999 1570 0 0 0
2019/07/13 19:02:00 BASE 2.60 43 3.91 68 -5.8 100 -5.8 4 0 1011.6 NA 0.0000 9999 1510 0 0 0
2019/07/13 19:03:00 BASE 2.48 44 3.45 69 -5.8 100 -5.8 4 0 1011.6 NA 0.0000 9999 1480 0 0 0
2019/07/13 19:04:00 BASE 2.61 50 3.19 57 -5.8 100 -5.8 4 0 1011.6 NA 0.0000 9999 1480 0 0 0
2019/07/13 19:05:00 BASE 2.61 52 3.19 57 -5.8 100 -5.8 5 0 1011.6 NA 0.0000 9999 1280 0 0 0
2019/07/13 19:06:00 BASE 2.34 53 3.19 57 -5.8 100 -5.8 4 0 1011.6 NA 0.0000 9999 1280 0 0 0
2019/07/13 19:07:00 BASE 2.23 56 3.19 57 -5.8 100 -5.8 4 0 1011.6 NA 0.0000 9999 1250 0 0 0
2019/07/13 19:08:00 BASE 2.04 56 3.19 57 -5.8 100 -5.8 4 0 1011.6 NA 0.0000 9999 1250 0 0 0
2019/07/13 19:09:00 BASE 2.10 59 3.19 57 -5.8 100 -5.8 4 0 1011.6 NA 0.0000 9999 1210 0 0 0
2019/07/13 19:10:00 BASE 2.19 61 3.19 57 -5.7 100 -5.7 4 0 1011.6 NA 0.0000 9999 1280 0 0 0
2019/07/13 19:11:00 BASE 1.89 56 3.19 57 -5.7 100 -5.7 4 0 1011.6 NA 0.0000 9999 1210 0 0 0
2019/07/13 19:12:00 BASE 1.83 56 3.19 57 -5.7 100 -5.7 4 0 1011.6 NA 0.0000 9999 1250 0 0 0
2019/07/13 19:13:00 BASE 2.00 60 3.19 57 -5.7 100 -5.7 4 0 1011.6 NA 0.0000 9999 0 0 0 0
2019/07/13 19:14:00 BASE 1.90 65 2.68 51 -5.6 100 -5.6 4 0 1011.7 NA 0.0000 9999 1310 0 0 0
2019/07/13 19:15:00 BASE 1.69 69 2.57 59 -5.6 100 -5.6 3 0 1011.7 NA 0.0000 9999 0 0 0 0
2019/07/13 19:16:00 BASE 1.62 72 2.47 59 -5.6 100 -5.6 3 0 1011.7 NA 0.0000 9999 0 0 0 0
2019/07/13 19:17:00 BASE 1.76 72 2.47 59 -5.6 100 -5.6 3 0 1011.7 NA 0.0000 9999 0 0 0 0
2019/07/13 19:18:00 BASE 1.89 67 2.47 59 -5.5 100 -5.5 3 0 1011.7 NA 0.0000 9999 0 0 0 0
2019/07/13 19:19:00 BASE 2.01 67 2.42 67 -5.5 100 -5.5 3 0 1011.7 NA 0.0000 9999 1640 0 0 0
2019/07/13 19:20:00 BASE 1.98 68 2.42 67 -5.5 100 -5.5 3 0 1011.7 NA 0.0000 9999 1610 0 0 0
2019/07/13 19:21:00 BASE 1.73 64 2.42 67 -5.5 100 -5.5 3 0 1011.7 NA 0.0000 9999 1640 0 0 0
2019/07/13 19:22:00 BASE 1.54 58 2.42 67 -5.4 100 -5.4 2 0 1011.7 NA 0.0000 9999 1640 0 0 0
2019/07/13 19:23:00 BASE 1.82 57 2.42 67 -5.4 100 -5.4 2 0 1011.7 NA 0.0000 9999 1670 0 0 0
2019/07/13 19:24:00 BASE 2.32 56 2.78 49 -5.4 100 -5.4 2 0 1011.7 NA 0.0000 9999 1610 0 0 0
2019/07/13 19:25:00 BASE 2.60 50 2.98 49 -5.4 100 -5.4 2 0 1011.7 NA 0.0000 9999 1710 0 0 0
2019/07/13 19:26:00 BASE 2.89 48 3.19 47 -5.5 100 -5.5 2 0 1011.7 NA 0.0000 9999 1710 0 0 0
2019/07/13 19:27:00 BASE 3.00 49 3.24 45 -5.6 100 -5.6 1 0 1011.7 NA 0.0000 9999 1740 0 0 0
2019/07/13 19:28:00 BASE 2.96 49 3.24 45 -5.7 100 -5.7 1 0 1011.7 NA 0.0000 9999 1740 0 0 0
2019/07/13 19:29:00 BASE 2.96 47 3.24 45 -5.8 100 -5.8 1 0 1011.7 NA 0.0000 9999 1740 0 0 0
2019/07/13 19:30:00 BASE 2.77 49 3.24 45 -5.9 100 -5.9 1 0 1011.7 NA 0.0000 9999 1740 0 0 0
2019/07/13 19:31:00 BASE 2.50 52 3.24 45 -5.9 100 -5.9 1 0 1011.7 NA 0.0000 9999 1740 0 0 0
2019/07/13 19:32:00 BASE 2.44 53 3.24 45 -6.0 100 -6.0 1 0 1011.7 NA 0.0000 9999 1740 0 0 0
2019/07/13 19:33:00 BASE 2.68 52 3.24 45 -6.0 100 -6.0 1 0 1011.7 NA 0.0000 9999 1740 0 0 0
2019/07/13 19:34:00 BASE 2.96 51 3.24 45 -6.0 100 -6.0 1 0 1011.7 NA 0.0000 9999 1740 0 0 0
2019/07/13 19:35:00 BASE 2.91 53 3.24 45 -6.1 100 -6.1 1 0 1011.7 NA 0.0000 9999 1710 0 0 0
2019/07/13 19:36:00 BASE 2.69 52 3.24 45 -6.1 100 -6.1 1 0 1011.7 NA 0.0000 9999 1710 0 0 0
2019/07/13 19:37:00 BASE 2.57 50 3.14 46 -6.1 100 -6.1 1 0 1011.7 NA 0.0000 9999 1640 0 0 0
2019/07/13 19:38:00 BASE 2.58 53 3.14 46 -6.1 100 -6.1 0 0 1011.7 NA 0.0000 9999 1570 0 0 0
2019/07/13 19:39:00 BASE 2.49 59 3.09 49 -6.1 100 -6.1 0 0 1011.7 NA 0.0000 9999 1670 0 0 0
2019/07/13 19:40:00 BASE 2.35 65 3.09 49 -6.1 100 -6.1 0 0 1011.7 NA 0.0000 9999 1670 0 0 0
2019/07/13 19:41:00 BASE 2.19 72 3.09 49 -6.1 100 -6.1 0 0 1011.7 NA 0.0000 9999 1670 0 0 0
2019/07/13 19:42:00 BASE 2.05 76 3.09 49 -6.1 100 -6.1 0 0 1011.7 NA 0.0000 9999 1670 0 0 0
2019/07/13 19:43:00 BASE 2.04 76 3.09 49 -6.0 100 -6.0 0 0 1011.7 NA 0.0000 9999 1670 0 0 0
2019/07/13 19:44:00 BASE 2.00 75 2.98 53 -6.0 100 -6.0 0 0 1011.7 NA 0.0000 9999 0 0 0 0
2019/07/13 19:45:00 BASE 2.19 73 2.68 54 -5.9 100 -5.9 0 0 1011.7 NA 0.0000 9999 0 0 0 0
2019/07/13 19:46:00 BASE 2.51 73 2.88 84 -5.9 100 -5.9 0 0 1011.7 NA 0.0000 9999 1770 0 0 0
2019/07/13 19:47:00 BASE 2.59 77 2.88 84 -5.9 100 -5.9 0 0 1011.7 NA 0.0000 9999 0 0 0 0
2019/07/13 19:48:00 BASE 2.58 81 2.88 84 -5.8 100 -5.8 0 0 1011.7 NA 0.0000 9999 0 0 0 0
2019/07/13 19:49:00 BASE 2.59 84 2.88 84 -5.8 100 -5.8 0 0 1011.7 NA 0.0000 9999 0 0 0 0
2019/07/13 19:50:00 BASE 2.67 84 2.93 82 -5.9 100 -5.9 0 0 1011.7 NA 0.0000 9999 0 0 0 0
2019/07/13 19:51:00 BASE 2.48 82 2.93 82 -5.9 100 -5.9 0 0 1011.7 NA 0.0000 9999 0 0 0 0
2019/07/13 19:52:00 BASE 2.28 82 2.93 82 -5.9 100 -5.9 0 0 1011.7 NA 0.0000 9999 0 0 0 0
2019/07/13 19:53:00 BASE 2.41 81 3.04 78 -5.9 100 -5.9 0 0 1011.7 NA 0.0000 9999 0 0 0 0
2019/07/13 19:54:00 BASE 2.72 78 3.09 77 -5.8 100 -5.8 0 0 1011.7 NA 0.0000 9999 0 0 0 0
2019/07/13 19:55:00 BASE 2.80 78 3.09 77 -5.8 100 -5.8 0 0 1011.7 NA 0.0000 9999 0 0 0 0
2019/07/13 19:56:00 BASE 2.56 79 3.09 77 -5.8 100 -5.8 0 0 1011.7 NA 0.0000 9999 0 0 0 0
2019/07/13 19:57:00 BASE 2.74 75 3.24 73 -5.8 100 -5.8 0 0 1011.7 NA 0.0000 9999 0 0 0 0
2019/07/13 19:58:00 BASE 2.92 72 3.24 73 -5.8 100 -5.8 0 0 1011.7 NA 0.0000 9999 0 0 0 0
2019/07/13 19:59:00 BASE 2.60 65 3.24 73 -5.8 100 -5.8 0 0 1011.7 NA 0.0000 9999 0 0 0 0
2019/07/13 20:00:00 BASE 2.29 61 3.24 73 -5.8 100 -5.8 0 0 1011.7 NA 0.0000 9999 1740 0 0 0
2019/07/13 20:01:00 BASE 2.52 62 3.34 65 -5.8 100 -5.8 0 0 1011.7 NA 0.0000 9999 1710 0 0 0
2019/07/13 20:02:00 BASE 2.89 62 3.34 65 -5.8 100 -5.8 0 0 1011.7 NA 0.0000 9999 1640 0 0 0
2019/07/13 20:03:00 BASE 2.76 62 3.34 65 -5.8 100 -5.8 0 0 1011.7 NA 0.0000 9999 1640 0 0 0
2019/07/13 20:04:00 BASE 2.20 62 3.34 65 -5.8 100 -5.8 0 0 1011.7 NA 0.0000 9999 1640 0 0 0
2019/07/13 20:05:00 BASE 1.71 62 3.34 65 -5.7 100 -5.7 0 0 1011.7 NA 0.0000 9999 1670 0 0 0
2019/07/13 20:06:00 BASE 1.79 60 3.34 65 -5.7 100 -5.7 0 0 1011.7 NA 0.0000 9999 0 0 0 0
2019/07/13 20:07:00 BASE 2.01 60 3.34 65 -5.7 100 -5.7 0 0 1011.7 NA 0.0000 9999 1670 0 0 0
2019/07/13 20:08:00 BASE 2.18 63 3.34 65 -5.7 100 -5.7 0 0 1011.7 NA 0.0000 9999 1710 0 0 0
2019/07/13 20:09:00 BASE 2.16 61 3.34 65 -5.6 100 -5.6 0 0 1011.7 NA 0.0000 9999 1640 0 0 0
2019/07/13 20:10:00 BASE 2.18 60 3.34 65 -5.7 100 -5.7 0 0 1011.7 NA 0.0000 9999 1540 0 0 0
2019/07/13 20:11:00 BASE 2.36 64 3.14 64 -5.7 100 -5.7 0 0 1011.7 NA 0.0000 9999 1480 0 0 0
2019/07/13 20:12:00 BASE 2.49 65 3.14 68 -5.7 100 -5.7 0 0 1011.7 NA 0.0000 9999 1570 0 0 0
2019/07/13 20:13:00 BASE 2.83 65 3.40 77 -5.7 100 -5.7 0 0 1011.7 NA 0.0000 9999 1540 0 0 0
2019/07/13 20:14:00 BASE 2.73 60 3.40 77 -5.7 100 -5.7 0 0 1011.8 NA 0.0000 9999 1570 0 0 0
2019/07/13 20:15:00 BASE 2.29 56 3.40 77 -5.7 100 -5.7 0 0 1011.9 NA 0.0000 9999 1510 0 0 0
2019/07/13 20:16:00 BASE 2.35 57 3.40 77 -5.7 100 -5.7 0 0 1011.9 NA 0.0000 9999 1570 0 0 0
2019/07/13 20:17:00 BASE 2.62 60 3.40 77 -5.7 100 -5.7 0 0 1011.9 NA 0.0000 9999 1540 0 0 0
2019/07/13 20:18:00 BASE 2.68 58 3.40 77 -5.7 100 -5.7 0 0 1011.9 NA 0.0000 9999 0 0 0 0
2019/07/13 20:19:00 BASE 2.65 54 3.40 77 -5.7 100 -5.7 0 0 1011.9 NA 0.0000 9999 1710 0 0 0
2019/07/13 20:20:00 BASE 2.94 52 3.45 53 -5.7 100 -5.7 0 0 1011.9 NA 0.0000 9999 1710 0 0 0
2019/07/13 20:21:00 BASE 2.85 49 3.45 53 -5.7 100 -5.7 0 0 1011.9 NA 0.0000 9999 1710 0 0 0
2019/07/13 20:22:00 BASE 2.09 47 3.45 53 -5.7 100 -5.7 0 0 1011.9 NA 0.0000 9999 1710 0 0 0
2019/07/13 20:23:00 BASE 2.18 49 3.45 53 -5.7 100 -5.7 0 0 1011.9 NA 0.0000 9999 1710 0 0 0
2019/07/13 20:24:00 BASE 2.72 53 3.45 53 -5.8 100 -5.8 0 0 1011.8 NA 0.0000 9999 1670 0 0 0
2019/07/13 20:25:00 BASE 2.57 58 3.45 53 -5.8 100 -5.8 0 0 1011.7 NA 0.0000 9999 0 0 0 0
2019/07/13 20:26:00 BASE 2.65 64 3.76 62 -5.8 100 -5.8 0 0 1011.7 NA 0.0000 9999 0 0 0 0
2019/07/13 20:27:00 BASE 2.88 68 3.76 62 -5.8 100 -5.8 0 0 1011.7 NA 0.0000 9999 0 0 0 0
2019/07/13 20:28:00 BASE 2.50 69 3.76 62 -5.8 100 -5.8 0 0 1011.7 NA 0.0000 9999 0 0 0 0
2019/07/13 20:29:00 BASE 2.36 72 3.76 62 -5.7 100 -5.7 0 0 1011.7 NA 0.0000 9999 0 0 0 0
2019/07/13 20:30:00 BASE 2.68 74 3.76 62 -5.7 100 -5.7 0 0 1011.7 NA 0.0000 9999 0 0 0 0
2019/07/13 20:31:00 BASE 2.56 71 3.76 62 -5.7 100 -5.7 0 0 1011.7 NA 0.0000 9999 0 0 0 0
2019/07/13 20:32:00 BASE 2.20 73 3.76 62 -5.6 100 -5.6 0 0 1011.7 NA 0.0000 9999 0 0 0 0
2019/07/13 20:33:00 BASE 2.15 74 3.76 62 -5.5 100 -5.5 0 0 1011.7 NA 0.0000 9999 0 0 0 0
2019/07/13 20:34:00 BASE 2.40 62 3.76 62 -5.5 100 -5.5 0 0 1011.7 NA 0.0000 9999 0 0 0 0
2019/07/13 20:35:00 BASE 2.52 53 3.76 62 -5.5 100 -5.5 0 0 1011.7 NA 0.0000 9999 0 0 0 0
2019/07/13 20:36:00 BASE 2.46 60 3.70 61 -5.5 100 -5.5 0 0 1011.7 NA 0.0000 9999 0 0 0 0
2019/07/13 20:37:00 BASE 2.30 66 3.04 72 -5.5 100 -5.5 0 0 1011.7 NA 0.0000 9999 0 0 0 0
2019/07/13 20:38:00 BASE 2.20 63 3.04 72 -5.5 100 -5.5 0 0 1011.7 NA 0.0000 9999 0 0 0 0
2019/07/13 20:39:00 BASE 2.11 61 3.04 72 -5.5 100 -5.5 0 0 1011.7 NA 0.0000 9999 0 0 0 0
2019/07/13 20:40:00 BASE 2.10 61 2.88 70 -5.5 100 -5.5 0 0 1011.7 NA 0.0000 9999 0 0 0 0
2019/07/13 20:41:00 BASE 2.17 67 2.88 70 -5.5 100 -5.5 0 0 1011.7 NA 0.0000 9999 0 0 0 0
2019/07/13 20:42:00 BASE 2.21 75 2.88 70 -5.5 100 -5.5 0 0 1011.7 NA 0.0000 9999 0 0 0 0
2019/07/13 20:43:00 BASE 2.20 80 2.88 70 -5.6 100 -5.6 0 0 1011.7 NA 0.0000 9999 0 0 0 0
2019/07/13 20:44:00 BASE 2.10 73 2.88 70 -5.6 100 -5.6 0 0 1011.7 NA 0.0000 9999 0 0 0 0
2019/07/13 20:45:00 BASE 1.74 58 2.88 70 -5.5 100 -5.5 0 0 1011.7 NA 0.0000 9999 0 0 0 0
2019/07/13 20:46:00 BASE 0.82 57 2.78 86 -5.5 100 -5.5 0 0 1011.7 NA 0.0000 9999 0 0 0 0
2019/07/13 20:47:00 BASE 0.99 77 2.78 86 -5.6 100 -5.6 0 0 1011.7 NA 0.0000 9999 0 0 0 0
2019/07/13 20:48:00 BASE 2.12 78 2.88 69 -5.6 100 -5.7 0 0 1011.7 NA 0.0000 9999 0 0 0 0
2019/07/13 20:49:00 BASE 2.63 68 2.93 69 -5.7 99 -5.7 0 0 1011.7 NA 0.0000 9999 0 0 0 0
2019/07/13 20:50:00 BASE 2.58 67 2.93 69 -5.7 99 -5.8 0 0 1011.7 NA 0.0000 9999 0 0 0 0
2019/07/13 20:51:00 BASE 2.11 68 2.93 69 -5.7 99 -5.8 0 0 1011.7 NA 0.0000 9999 0 0 0 0
2019/07/13 20:52:00 BASE 2.04 68 2.93 69 -5.6 100 -5.7 0 0 1011.7 NA 0.0000 9999 0 0 0 0
2019/07/13 20:53:00 BASE 2.15 67 2.93 69 -5.6 100 -5.6 0 0 1011.7 NA 0.0000 9999 0 0 0 0
2019/07/13 20:54:00 BASE 2.08 71 2.93 69 -5.5 100 -5.5 0 0 1011.7 NA 0.0000 9999 0 0 0 0
2019/07/13 20:55:00 BASE 2.03 75 2.93 69 -5.5 100 -5.5 0 0 1011.7 NA 0.0000 9999 0 0 0 0
2019/07/13 20:56:00 BASE 2.20 80 2.93 69 -5.5 99 -5.6 0 0 1011.7 NA 0.0000 9999 0 0 0 0
2019/07/13 20:57:00 BASE 2.49 83 2.93 69 -5.6 99 -5.7 0 0 1011.7 NA 0.0000 9999 0 0 0 0
2019/07/13 20:58:00 BASE 2.28 82 2.93 69 -5.7 99 -5.8 0 0 1011.7 NA 0.0000 9999 0 0 0 0
2019/07/13 20:59:00 BASE 2.15 91 2.68 85 -5.8 99 -5.9 0 0 1011.7 NA 0.0000 9999 0 0 0 0
2019/07/13 21:00:00 BASE 2.39 98 2.73 97 -5.8 99 -5.9 0 0 1011.7 NA 0.0000 9999 0 0 0 0
2019/07/13 21:01:00 BASE 2.37 95 2.73 97 -5.8 99 -5.9 0 0 1011.7 NA 0.0000 9999 0 0 0 0
2019/07/13 21:02:00 BASE 2.02 91 2.73 97 -5.8 99 -5.8 0 0 1011.7 NA 0.0000 9999 0 0 0 0
2019/07/13 21:03:00 BASE 1.81 89 2.73 97 -5.7 100 -5.8 0 0 1011.7 NA 0.0000 9999 0 0 0 0
2019/07/13 21:04:00 BASE 1.57 91 2.73 97 -5.7 100 -5.7 0 0 1011.7 NA 0.0000 9999 0 0 0 0
2019/07/13 21:05:00 BASE 1.55 92 2.73 97 -5.6 100 -5.6 0 0 1011.7 NA 0.0000 9999 0 0 0 0
2019/07/13 21:06:00 BASE 1.72 93 2.73 97 -5.5 100 -5.5 0 0 1011.7 NA 0.0000 9999 0 0 0 0
2019/07/13 21:07:00 BASE 1.83 95 2.73 97 -5.5 100 -5.6 0 0 1011.7 NA 0.0000 9999 0 0 0 0
2019/07/13 21:08:00 BASE 2.04 95 2.73 97 -5.5 99 -5.6 0 0 1011.7 NA 0.0000 9999 0 0 0 0
2019/07/13 21:09:00 BASE 2.07 98 2.73 97 -5.6 99 -5.7 0 0 1011.7 NA 0.0000 9999 0 0 0 0
2019/07/13 21:10:00 BASE 1.91 98 2.52 94 -5.6 99 -5.8 0 0 1011.7 NA 0.0000 9999 0 0 0 0
2019/07/13 21:11:00 BASE 1.92 84 2.42 88 -5.7 99 -5.8 0 0 1011.6 NA 0.0000 9999 0 0 0 0
2019/07/13 21:12:00 BASE 1.71 76 2.42 88 -5.6 98 -5.9 0 0 1011.6 NA 0.0000 9999 0 0 0 0
2019/07/13 21:13:00 BASE 1.35 81 2.42 88 -5.6 98 -5.8 0 0 1011.6 NA 0.0000 9999 0 0 0 0
2019/07/13 21:14:00 BASE 1.57 75 2.42 88 -5.6 98 -5.9 0 0 1011.6 NA 0.0000 9999 0 0 0 0
2019/07/13 21:15:00 BASE 1.91 63 2.42 88 -5.6 98 -6.0 0 0 1011.6 NA 0.0000 9999 0 0 0 0
2019/07/13 21:16:00 BASE 1.91 61 2.42 61 -5.7 97 -6.1 0 0 1011.6 NA 0.0000 9999 0 0 0 0
2019/07/13 21:17:00 BASE 2.20 59 2.68 56 -5.8 97 -6.2 0 0 1011.6 NA 0.0000 9999 0 0 0 0
2019/07/13 21:18:00 BASE 2.72 57 2.93 53 -5.9 96 -6.3 0 0 1011.6 NA 0.0000 9999 0 0 0 0
2019/07/13 21:19:00 BASE 2.78 56 2.93 53 -5.9 96 -6.4 0 0 1011.6 NA 0.0000 9999 0 0 0 0
2019/07/13 21:20:00 BASE 2.53 58 2.93 53 -6.0 96 -6.5 0 0 1011.6 NA 0.0000 9999 0 0 0 0
2019/07/13 21:21:00 BASE 2.31 59 2.93 53 -6.0 96 -6.6 0 0 1011.6 NA 0.0000 9999 0 0 0 0
2019/07/13 21:22:00 BASE 2.31 58 2.93 53 -6.0 96 -6.6 0 0 1011.6 NA 0.0000 9999 0 0 0 0
2019/07/13 21:23:00 BASE 2.35 59 2.93 53 -6.0 95 -6.7 0 0 1011.6 NA 0.0000 9999 0 0 0 0
2019/07/13 21:24:00 BASE 2.25 63 2.93 53 -6.0 95 -6.7 0 1 1011.6 NA 0.0000 9999 0 0 0 0
2019/07/13 21:25:00 BASE 2.23 65 2.93 53 -6.0 95 -6.7 0 0 1011.6 NA 0.0000 9999 0 0 0 0
2019/07/13 21:26:00 BASE 2.39 67 2.93 53 -5.9 95 -6.6 0 0 1011.6 NA 0.0000 9999 0 0 0 0
2019/07/13 21:27:00 BASE 2.46 71 2.93 53 -5.9 95 -6.6 0 0 1011.6 NA 0.0000 9999 0 0 0 0
2019/07/13 21:28:00 BASE 2.46 75 2.93 53 -5.9 95 -6.6 0 1 1011.6 NA 0.0000 9999 0 0 0 0
2019/07/13 21:29:00 BASE 2.45 78 2.68 70 -5.9 94 -6.6 0 0 1011.6 NA 0.0000 9999 0 0 0 0
2019/07/13 21:30:00 BASE 2.25 78 2.68 70 -5.9 94 -6.6 0 1 1011.6 NA 0.0000 9999 0 0 0 0
2019/07/13 21:31:00 BASE 1.87 80 2.68 70 -5.8 94 -6.6 0 0 1011.6 NA 0.0000 9999 0 0 0 0
2019/07/13 21:32:00 BASE 1.56 76 2.68 70 -5.8 94 -6.6 0 0 1011.6 NA 0.0000 9999 0 0 0 0
2019/07/13 21:33:00 BASE 1.56 75 2.68 70 -5.8 94 -6.6 0 1 1011.7 NA 0.0000 9999 0 0 0 0
2019/07/13 21:34:00 BASE 1.53 75 2.68 70 -5.8 94 -6.6 0 0 1011.7 NA 0.0000 9999 0 0 0 0
2019/07/13 21:35:00 BASE 1.06 73 2.68 70 -5.7 93 -6.6 0 0 1011.6 NA 0.0000 9999 0 0 0 0
2019/07/13 21:36:00 BASE 0.92 80 2.62 78 -5.7 93 -6.7 0 0 1011.6 NA 0.0000 9999 0 0 0 0
2019/07/13 21:37:00 BASE 0.95 76 2.62 78 -5.7 93 -6.7 0 0 1011.6 NA 0.0000 9999 0 0 0 0
2019/07/13 21:38:00 BASE 1.35 62 2.78 56 -5.7 93 -6.7 0 0 1011.6 NA 0.0000 9999 0 0 0 0
2019/07/13 21:39:00 BASE 2.34 54 2.93 49 -5.8 93 -6.7 0 0 1011.7 NA 0.0000 9999 0 0 0 0
2019/07/13 21:40:00 BASE 2.86 50 2.98 51 -5.9 93 -6.8 0 0 1011.7 NA 0.0000 9999 0 0 0 0
2019/07/13 21:41:00 BASE 2.81 52 3.09 49 -6.0 93 -6.9 0 0 1011.7 NA 0.0000 9999 0 0 0 0
2019/07/13 21:42:00 BASE 2.36 58 3.09 49 -6.0 93 -6.9 0 0 1011.7 NA 0.0000 9999 0 0 0 0
2019/07/13 21:43:00 BASE 1.97 62 3.09 49 -6.1 94 -7.0 0 0 1011.7 NA 0.0000 9999 0 0 0 0
2019/07/13 21:44:00 BASE 2.40 62 3.14 57 -6.2 94 -7.0 0 1 1011.7 NA 0.0000 9999 0 0 0 0
2019/07/13 21:45:00 BASE 2.90 58 3.19 58 -6.2 95 -6.9 0 0 1011.7 NA 0.0000 9999 0 0 0 0
2019/07/13 21:46:00 BASE 2.83 55 3.19 58 -6.2 95 -6.8 0 1 1011.7 NA 0.0000 9999 0 0 0 0
2019/07/13 21:47:00 BASE 2.69 54 3.19 58 -6.2 96 -6.8 0 1 1011.7 NA 0.0000 9999 0 0 0 0
2019/07/13 21:48:00 BASE 2.62 51 3.19 58 -6.2 96 -6.7 0 1 1011.7 NA 0.0000 9999 0 0 0 0
2019/07/13 21:49:00 BASE 2.80 46 3.19 58 -6.2 96 -6.7 0 0 1011.7 NA 0.0000 9999 0 0 0 0
2019/07/13 21:50:00 BASE 2.92 42 3.19 58 -6.2 97 -6.7 0 0 1011.7 NA 0.0000 9999 0 0 0 0
2019/07/13 21:51:00 BASE 2.96 43 3.19 49 -6.3 97 -6.7 0 0 1011.7 NA 0.0000 9999 0 0 0 0
2019/07/13 21:52:00 BASE 2.98 45 3.19 49 -6.3 97 -6.7 0 0 1011.7 NA 0.0000 9999 0 0 0 0
2019/07/13 21:53:00 BASE 2.78 43 3.19 49 -6.4 97 -6.8 0 0 1011.7 NA 0.0000 9999 0 0 0 0
2019/07/13 21:54:00 BASE 2.69 43 3.19 49 -6.4 97 -6.8 0 0 1011.7 NA 0.0000 9999 0 0 0 0
2019/07/13 21:55:00 BASE 2.70 44 3.19 49 -6.4 97 -6.8 0 0 1011.7 NA 0.0000 9999 0 0 0 0
2019/07/13 21:56:00 BASE 2.79 44 3.19 49 -6.4 97 -6.7 0 0 1011.7 NA 0.0000 9999 0 0 0 0
2019/07/13 21:57:00 BASE 2.84 43 3.19 49 -6.4 98 -6.7 0 0 1011.7 NA 0.0000 9999 0 0 0 0
2019/07/13 21:58:00 BASE 2.96 41 3.19 40 -6.4 98 -6.7 0 0 1011.7 NA 0.0000 9999 0 0 0 0
2019/07/13 21:59:00 BASE 3.20 40 3.40 41 -6.4 98 -6.7 0 0 1011.7 NA 0.0000 9999 0 0 0 0
2019/07/13 22:00:00 BASE 3.31 42 3.40 41 -6.4 98 -6.7 0 0 1011.7 NA 0.0000 9999 0 0 0 0
2019/07/13 22:01:00 BASE 3.27 43 3.40 41 -6.5 98 -6.7 0 0 1011.7 NA 0.0000 9999 0 0 0 0
2019/07/13 22:02:00 BASE 3.27 43 3.50 43 -6.5 98 -6.8 0 0 1011.7 NA 0.0000 9999 0 0 0 0
2019/07/13 22:03:00 BASE 3.34 43 3.60 44 -6.6 98 -6.8 0 0 1011.7 NA 0.0000 9999 0 0 0 0
2019/07/13 22:04:00 BASE 3.29 46 3.60 44 -6.6 98 -6.8 0 0 1011.7 NA 0.0000 9999 0 0 0 0
2019/07/13 22:05:00 BASE 3.08 49 3.60 44 -6.6 98 -6.8 0 1 1011.7 NA 0.0000 9999 0 0 0 0
2019/07/13 22:06:00 BASE 2.98 51 3.60 44 -6.6 99 -6.7 0 1 1011.7 NA 0.0000 9999 0 0 0 0
2019/07/13 22:07:00 BASE 3.17 51 3.60 44 -6.5 99 -6.7 0 0 1011.7 NA 0.0000 9999 0 0 0 0
2019/07/13 22:08:00 BASE 3.44 51 3.65 52 -6.5 99 -6.6 0 0 1011.7 NA 0.0000 9999 0 0 0 0
2019/07/13 22:09:00 BASE 3.56 52 3.65 51 -6.4 99 -6.6 0 1 1011.7 NA 0.0000 9999 0 0 0 0
2019/07/13 22:10:00 BASE 3.54 51 3.65 51 -6.4 99 -6.6 0 0 1011.7 NA 0.0000 9999 0 0 0 0
2019/07/13 22:11:00 BASE 3.47 50 3.65 51 -6.4 99 -6.6 0 0 1011.7 NA 0.0000 9999 1440 0 0 0
2019/07/13 22:12:00 BASE 3.34 46 3.65 51 -6.4 99 -6.5 0 1 1011.7 NA 0.0000 9999 1440 0 0 0
2019/07/13 22:13:00 BASE 3.27 46 3.65 51 -6.4 99 -6.6 0 0 1011.7 NA 0.0000 9999 1410 0 0 0
2019/07/13 22:14:00 BASE 3.20 48 3.65 51 -6.4 99 -6.5 0 0 1011.7 NA 0.0000 9999 1410 0 0 0
2019/07/13 22:15:00 BASE 3.13 49 3.65 51 -6.4 99 -6.5 0 1 1011.7 NA 0.0000 9999 1380 0 0 0
2019/07/13 22:16:00 BASE 3.13 51 3.65 51 -6.4 100 -6.4 0 0 1011.7 NA 0.0000 9999 1380 0 0 0
2019/07/13 22:17:00 BASE 3.10 54 3.65 51 -6.4 100 -6.4 0 0 1011.7 NA 0.0000 9999 1380 0 0 0
2019/07/13 22:18:00 BASE 3.04 53 3.65 51 -6.3 100 -6.3 0 1 1011.7 NA 0.0000 9999 1350 0 0 0
2019/07/13 22:19:00 BASE 2.97 50 3.60 52 -6.3 100 -6.3 0 0 1011.7 NA 0.0000 9999 1410 0 0 0
2019/07/13 22:20:00 BASE 2.81 46 3.60 52 -6.2 100 -6.2 0 0 1011.7 NA 0.0000 9999 1350 0 0 0
2019/07/13 22:21:00 BASE 2.75 43 3.45 41 -6.2 100 -6.2 0 0 1011.7 NA 0.0000 9999 1350 0 0 0
2019/07/13 22:22:00 BASE 2.76 43 3.34 42 -6.2 100 -6.2 0 0 1011.7 NA 0.0000 9999 1350 0 0 0
2019/07/13 22:23:00 BASE 2.66 43 3.24 52 -6.2 100 -6.2 0 1 1011.7 NA 0.0000 9999 1310 0 0 0
2019/07/13 22:24:00 BASE 2.50 43 3.24 52 -6.2 100 -6.2 0 0 1011.7 NA 0.0000 9999 1310 0 0 0
2019/07/13 22:25:00 BASE 2.43 42 3.24 52 -6.2 100 -6.2 0 0 1011.7 NA 0.0000 9999 1310 0 0 0
2019/07/13 22:26:00 BASE 2.48 39 3.14 54 -6.2 100 -6.2 0 0 1011.7 NA 0.0000 9999 1280 0 0 0
2019/07/13 22:27:00 BASE 2.52 35 3.09 50 -6.2 100 -6.2 0 0 1011.7 NA 0.0000 9999 1350 0 0 0
2019/07/13 22:28:00 BASE 2.55 36 3.04 51 -6.2 100 -6.3 0 0 1011.7 NA 0.0000 9999 1310 0 0 0
2019/07/13 22:29:00 BASE 2.60 37 2.88 42 -6.2 99 -6.3 0 0 1011.7 NA 0.0000 9999 1280 0 0 0
2019/07/13 22:30:00 BASE 2.68 35 2.88 34 -6.3 99 -6.3 0 0 1011.7 NA 0.0000 9999 1310 0 0 0
2019/07/13 22:31:00 BASE 2.69 32 2.88 34 -6.3 99 -6.4 0 0 1011.7 NA 0.0000 9999 1210 0 0 0
2019/07/13 22:32:00 BASE 2.65 31 2.88 34 -6.3 99 -6.4 0 0 1011.7 NA 0.0000 9999 1210 0 0 0
2019/07/13 22:33:00 BASE 2.69 28 2.88 25 -6.3 99 -6.3 0 0 1011.7 NA 0.0000 9999 1210 0 0 0
2019/07/13 22:34:00 BASE 2.72 28 2.88 25 -6.2 100 -6.3 0 0 1011.7 NA 0.0000 9999 1210 0 0 0
2019/07/13 22:35:00 BASE 2.72 28 2.88 28 -6.3 100 -6.3 0 0 1011.7 NA 0.0000 9999 1250 0 0 0
2019/07/13 22:36:00 BASE 2.72 27 2.88 28 -6.3 100 -6.3 0 0 1011.7 NA 0.0000 9999 1310 0 0 0
2019/07/13 22:37:00 BASE 2.72 26 3.19 21 -6.3 100 -6.3 0 0 1011.7 NA 0.0000 9999 1280 0 0 0
2019/07/13 22:38:00 BASE 2.69 26 3.19 21 -6.3 100 -6.3 0 0 1011.7 NA 0.0000 9999 1250 0 0 0
2019/07/13 22:39:00 BASE 2.61 27 3.19 21 -6.3 100 -6.3 0 0 1011.7 NA 0.0000 9999 1250 0 0 0
2019/07/13 22:40:00 BASE 2.56 26 3.19 21 -6.3 100 -6.3 0 0 1011.7 NA 0.0000 9999 1250 0 0 0
2019/07/13 22:41:00 BASE 2.66 26 3.19 21 -6.3 100 -6.3 0 0 1011.7 NA 0.0000 9999 1080 0 0 0
2019/07/13 22:42:00 BASE 2.79 27 3.19 21 -6.3 100 -6.3 0 0 1011.7 NA 0.0000 9999 1080 0 0 0
2019/07/13 22:43:00 BASE 2.71 28 3.19 21 -6.3 100 -6.3 0 1 1011.7 NA 0.0000 9999 920 0 0 0
2019/07/13 22:44:00 BASE 2.77 27 3.19 21 -6.3 100 -6.3 0 0 1011.7 NA 0.0000 9999 890 0 0 0
2019/07/13 22:45:00 BASE 2.83 28 3.19 21 -6.3 100 -6.3 0 0 1011.7 NA 0.0000 9999 950 0 0 0
2019/07/13 22:46:00 BASE 2.70 32 3.19 21 -6.3 100 -6.3 0 0 1011.7 NA 0.0000 9999 920 0 0 0
2019/07/13 22:47:00 BASE 2.62 35 3.14 26 -6.3 100 -6.3 0 0 1011.7 NA 0.0000 9999 950 0 0 0
2019/07/13 22:48:00 BASE 2.48 36 3.14 26 -6.3 100 -6.3 0 0 1011.7 NA 0.0000 9999 980 0 0 0
2019/07/13 22:49:00 BASE 2.37 36 3.14 26 -6.3 100 -6.3 0 0 1011.7 NA 0.0000 9999 980 0 0 0
2019/07/13 22:50:00 BASE 2.30 36 3.14 26 -6.3 100 -6.3 0 0 1011.7 NA 0.0000 9999 980 0 0 0
2019/07/13 22:51:00 BASE 2.38 36 3.14 26 -6.4 100 -6.4 0 0 1011.7 NA 0.0000 9999 1050 0 0 0
2019/07/13 22:52:00 BASE 2.45 31 3.14 26 -6.4 100 -6.4 0 0 1011.7 NA 0.0000 9999 1050 0 0 0
2019/07/13 22:53:00 BASE 2.41 30 3.14 26 -6.4 100 -6.4 0 0 1011.7 NA 0.0000 9999 1120 0 0 0
2019/07/13 22:54:00 BASE 2.48 30 2.88 23 -6.3 100 -6.3 0 0 1011.7 NA 0.0000 9999 1150 0 0 0
2019/07/13 22:55:00 BASE 2.44 27 2.78 32 -6.3 100 -6.3 0 0 1011.6 NA 0.0000 9999 1020 0 0 0
2019/07/13 22:56:00 BASE 2.29 25 2.78 32 -6.3 100 -6.3 0 1 1011.6 NA 0.0000 9999 820 0 0 0
2019/07/13 22:57:00 BASE 2.16 23 2.78 32 -6.3 100 -6.3 0 0 1011.6 NA 0.0000 9999 920 0 0 0
2019/07/13 22:58:00 BASE 1.97 20 2.78 32 -6.4 100 -6.4 0 1 1011.6 NA 0.0000 9999 820 0 0 0
2019/07/13 22:59:00 BASE 1.89 20 2.78 32 -6.4 100 -6.4 0 2 1011.6 NA 0.0000 9999 790 0 0 0
2019/07/13 23:00:00 BASE 2.04 26 2.78 32 -6.4 100 -6.4 0 2 1011.6 NA 0.0000 9999 850 0 0 0
2019/07/13 23:01:00 BASE 2.04 32 2.78 32 -6.4 100 -6.4 0 2 1011.7 NA 0.0000 9999 920 0 0 0
2019/07/13 23:02:00 BASE 1.97 32 2.78 32 -6.4 100 -6.4 0 2 1011.7 NA 0.0000 9999 1080 0 0 0
2019/07/13 23:03:00 BASE 2.02 33 2.78 32 -6.4 100 -6.4 0 2 1011.6 NA 0.0000 9999 0 0 0 0
2019/07/13 23:04:00 BASE 2.10 34 2.52 27 -6.4 100 -6.4 0 2 1011.6 NA 0.0000 9999 0 0 0 0
2019/07/13 23:05:00 BASE 2.22 29 2.52 27 -6.4 100 -6.4 0 2 1011.6 NA 0.0000 9999 0 0 0 0
2019/07/13 23:06:00 BASE 2.22 25 2.52 27 -6.5 100 -6.5 0 1 1011.6 NA 0.0000 9999 0 0 0 0
2019/07/13 23:07:00 BASE 2.05 28 2.52 27 -6.5 100 -6.5 0 0 1011.6 NA 0.0000 9999 0 0 0 0
2019/07/13 23:08:00 BASE 1.95 32 2.52 27 -6.5 100 -6.5 0 0 1011.6 NA 0.0000 9999 0 0 0 0
2019/07/13 23:09:00 BASE 2.08 37 2.52 27 -6.5 100 -6.5 0 1 1011.6 NA 0.0000 9999 0 0 0 0
2019/07/13 23:10:00 BASE 2.25 41 2.52 27 -6.6 100 -6.6 0 0 1011.6 NA 0.0000 9999 0 0 0 0
2019/07/13 23:11:00 BASE 2.20 43 2.52 27 -6.6 100 -6.6 0 0 1011.6 NA 0.0000 9999 0 0 0 0
2019/07/13 23:12:00 BASE 2.13 43 2.52 27 -6.6 100 -6.6 0 1 1011.6 NA 0.0000 9999 0 0 0 0
2019/07/13 23:13:00 BASE 2.22 39 2.52 27 -6.6 100 -6.6 0 0 1011.6 NA 0.0000 9999 0 0 0 0
2019/07/13 23:14:00 BASE 2.25 35 2.52 27 -6.6 100 -6.6 0 1 1011.6 NA 0.0000 9999 0 0 0 0
2019/07/13 23:15:00 BASE 2.10 36 2.47 34 -6.6 100 -6.6 0 1 1011.6 NA 0.0000 9999 0 0 0 0
2019/07/13 23:16:00 BASE 1.90 36 2.47 34 -6.6 100 -6.6 0 0 1011.6 NA 0.0000 9999 0 0 0 0
2019/07/13 23:17:00 BASE 1.78 38 2.47 34 -6.6 100 -6.6 0 0 1011.6 NA 0.0000 9999 0 0 0 0
2019/07/13 23:18:00 BASE 1.75 40 2.47 34 -6.6 100 -6.6 0 0 1011.6 NA 0.0000 9999 0 0 0 0
2019/07/13 23:19:00 BASE 1.77 41 2.47 34 -6.6 100 -6.6 0 0 1011.6 NA 0.0000 9999 0 0 0 0
2019/07/13 23:20:00 BASE 1.82 40 2.47 34 -6.6 100 -6.6 0 0 1011.6 NA 0.0000 9999 0 0 0 0
2019/07/13 23:21:00 BASE 1.85 37 2.47 34 -6.5 100 -6.5 0 2 1011.6 NA 0.0000 9999 0 0 0 0
2019/07/13 23:22:00 BASE 1.84 34 2.47 34 -6.5 100 -6.5 0 0 1011.6 NA 0.0000 9999 0 0 0 0
2019/07/13 23:23:00 BASE 1.93 32 2.42 39 -6.5 100 -6.5 0 0 1011.6 NA 0.0000 9999 0 0 0 0
2019/07/13 23:24:00 BASE 2.07 30 2.21 29 -6.5 100 -6.5 0 0 1011.6 NA 0.0000 9999 0 0 0 0
2019/07/13 23:25:00 BASE 2.17 30 2.37 33 -6.5 100 -6.5 0 0 1011.5 NA 0.0000 9999 0 0 0 0
2019/07/13 23:26:00 BASE 2.21 29 2.37 33 -6.5 100 -6.5 0 0 1011.5 NA 0.0000 9999 0 0 0 0
2019/07/13 23:27:00 BASE 2.16 29 2.37 33 -6.5 100 -6.5 0 1 1011.5 NA 0.0000 9999 0 0 0 0
2019/07/13 23:28:00 BASE 2.10 30 2.37 33 -6.5 100 -6.5 0 1 1011.6 NA 0.0000 9999 0 0 0 0
2019/07/13 23:29:00 BASE 2.04 27 2.37 33 -6.5 100 -6.5 0 0 1011.6 NA 0.0000 9999 0 0 0 0
2019/07/13 23:30:00 BASE 1.92 25 2.37 33 -6.6 100 -6.6 0 0 1011.5 NA 0.0000 9999 0 0 0 0
2019/07/13 23:31:00 BASE 2.02 28 2.37 33 -6.6 100 -6.6 0 0 1011.5 NA 0.0000 9999 0 0 0 0
2019/07/13 23:32:00 BASE 2.31 31 2.62 32 -6.6 100 -6.6 0 0 1011.5 NA 0.0000 9999 0 0 0 0
2019/07/13 23:33:00 BASE 2.62 32 3.09 30 -6.7 100 -6.7 0 0 1011.5 NA 0.0000 9999 0 0 0 0
2019/07/13 23:34:00 BASE 2.77 34 3.09 30 -6.7 100 -6.7 0 0 1011.5 NA 0.0000 9999 0 0 0 0
2019/07/13 23:35:00 BASE 2.67 37 3.09 30 -6.7 100 -6.7 0 0 1011.5 NA 0.0000 9999 0 0 0 0
2019/07/13 23:36:00 BASE 2.74 41 3.09 41 -6.7 100 -6.7 0 1 1011.4 NA 0.0000 9999 0 0 0 0
2019/07/13 23:37:00 BASE 2.77 40 3.09 41 -6.8 100 -6.8 0 0 1011.4 NA 0.0000 9999 0 0 0 0
2019/07/13 23:38:00 BASE 2.73 40 3.09 41 -6.8 100 -6.8 0 0 1011.4 NA 0.0000 9999 0 0 0 0
2019/07/13 23:39:00 BASE 2.68 39 3.09 41 -6.8 100 -6.8 0 0 1011.4 NA 0.0000 9999 0 0 0 0
2019/07/13 23:40:00 BASE 2.69 38 3.09 41 -6.8 100 -6.8 0 0 1011.4 NA 0.0000 9999 0 0 0 0
2019/07/13 23:41:00 BASE 2.64 38 3.09 41 -6.8 100 -6.8 0 0 1011.4 NA 0.0000 9999 0 0 0 0
2019/07/13 23:42:00 BASE 2.56 37 3.09 41 -6.8 100 -6.8 0 0 1011.4 NA 0.0000 9999 0 0 0 0
2019/07/13 23:43:00 BASE 2.57 38 3.09 41 -6.8 100 -6.8 0 1 1011.4 NA 0.0000 9999 0 0 0 0
2019/07/13 23:44:00 BASE 2.57 37 3.09 41 -6.8 100 -6.8 0 1 1011.4 NA 0.0000 9999 0 0 0 0
2019/07/13 23:45:00 BASE 2.56 35 3.09 41 -6.7 100 -6.7 0 1 1011.4 NA 0.0000 9999 0 0 0 0
2019/07/13 23:46:00 BASE 2.72 34 3.14 34 -6.7 100 -6.7 0 1 1011.4 NA 0.0000 9999 0 0 0 0
2019/07/13 23:47:00 BASE 2.94 36 3.14 36 -6.7 100 -6.7 0 1 1011.4 NA 0.0000 9999 0 0 0 0
2019/07/13 23:48:00 BASE 2.86 39 3.19 36 -6.7 100 -6.7 0 1 1011.4 NA 0.0000 9999 0 0 0 0
2019/07/13 23:49:00 BASE 2.62 41 3.19 36 -6.7 100 -6.7 0 0 1011.4 NA 0.0000 9999 0 0 0 0
2019/07/13 23:50:00 BASE 2.58 40 3.19 36 -6.7 100 -6.7 0 0 1011.4 NA 0.0000 9999 0 0 0 0
2019/07/13 23:51:00 BASE 2.81 41 3.19 36 -6.7 100 -6.7 0 0 1011.4 NA 0.0000 9999 0 0 0 0
2019/07/13 23:52:00 BASE 2.72 42 3.19 36 -6.8 100 -6.8 0 0 1011.4 NA 0.0000 9999 0 0 0 0
2019/07/13 23:53:00 BASE 2.31 43 3.19 36 -6.8 100 -6.8 0 1 1011.4 NA 0.0000 9999 0 0 0 0
2019/07/13 23:54:00 BASE 1.91 44 3.19 36 -6.8 100 -6.8 0 2 1011.4 NA 0.0000 9999 0 0 0 0
2019/07/13 23:55:00 BASE 1.70 43 3.19 36 -6.7 100 -6.7 0 0 1011.4 NA 0.0000 9999 0 0 0 0
2019/07/13 23:56:00 BASE 1.72 45 3.19 36 -6.7 100 -6.7 0 0 1011.4 NA 0.0000 9999 0 0 0 0
2019/07/13 23:57:00 BASE 1.74 49 3.19 36 -6.6 100 -6.6 0 0 1011.4 NA 0.0000 9999 0 0 0 0
2019/07/13 23:58:00 BASE 1.71 59 3.09 41 -6.6 100 -6.6 0 0 1011.4 NA 0.0000 9999 0 0 0 0
2019/07/13 23:59:00 BASE 1.59 65 3.09 41 -6.6 100 -6.6 0 0 1011.4 NA 0.0000 9999 0 0 0 0